<?xml version="1.0" encoding="UTF-8" standalone="no" ?>
<gpx xmlns="http://www.topografix.com/GPX/1/1" xmlns:xsi="http://www.w3.org/2001/XMLSchema-instance" xsi:schemaLocation="http://www.topografix.com/GPX/1/1 http://www.topografix.com/GPX/1/1/gpx.xsd" version="1.1" creator="VisuGPX - https://www.visugpx.com">
  <metadata>
    <name>Vélo bleu - Circuit 27</name>
    <desc><![CDATA[Petit patrimoine sur ce circuit :
- Chapelle du Dieu de Pitié à Choiseul, Ermitage Saint-Hilaire à Breuvannes-en-Bassigny, Chapelle Saint-Roch à Champigneulles-en-Bassigny.
- Lavoirs de Chaumont-la-Ville et Vroncourt-la-Côte.]]></desc>
  </metadata>
  <trk>
    <name><![CDATA[Sortie vélo dans l'après-midi]]></name>
    <trkseg>
      <trkpt lat="48.10904" lon="5.51828">
        <ele>364.2</ele>
        <time>2024-07-24T13:45:12Z</time>
      </trkpt>
      <trkpt lat="48.10905" lon="5.51828">
        <ele>364.2</ele>
        <time>2024-07-24T13:45:13Z</time>
      </trkpt>
      <trkpt lat="48.10892" lon="5.51827">
        <ele>364.1</ele>
        <time>2024-07-24T13:47:03Z</time>
      </trkpt>
      <trkpt lat="48.10891" lon="5.5182">
        <ele>364.1</ele>
        <time>2024-07-24T13:47:06Z</time>
      </trkpt>
      <trkpt lat="48.10883" lon="5.51801">
        <ele>364</ele>
        <time>2024-07-24T13:47:12Z</time>
      </trkpt>
      <trkpt lat="48.10869" lon="5.51778">
        <ele>363.9</ele>
        <time>2024-07-24T13:47:19Z</time>
      </trkpt>
      <trkpt lat="48.10847" lon="5.51743">
        <ele>364.1</ele>
        <time>2024-07-24T13:47:28Z</time>
      </trkpt>
      <trkpt lat="48.10825" lon="5.51709">
        <ele>364.2</ele>
        <time>2024-07-24T13:47:35Z</time>
      </trkpt>
      <trkpt lat="48.10798" lon="5.51674">
        <ele>364.3</ele>
        <time>2024-07-24T13:47:43Z</time>
      </trkpt>
      <trkpt lat="48.10768" lon="5.51634">
        <ele>364.5</ele>
        <time>2024-07-24T13:47:52Z</time>
      </trkpt>
      <trkpt lat="48.10742" lon="5.51609">
        <ele>364.6</ele>
        <time>2024-07-24T13:47:59Z</time>
      </trkpt>
      <trkpt lat="48.10716" lon="5.51589">
        <ele>364.7</ele>
        <time>2024-07-24T13:48:06Z</time>
      </trkpt>
      <trkpt lat="48.10682" lon="5.5158">
        <ele>364.9</ele>
        <time>2024-07-24T13:48:14Z</time>
      </trkpt>
      <trkpt lat="48.10654" lon="5.51573">
        <ele>365</ele>
        <time>2024-07-24T13:48:21Z</time>
      </trkpt>
      <trkpt lat="48.10634" lon="5.51569">
        <ele>365</ele>
        <time>2024-07-24T13:48:28Z</time>
      </trkpt>
      <trkpt lat="48.10624" lon="5.51583">
        <ele>364.5</ele>
        <time>2024-07-24T13:48:32Z</time>
      </trkpt>
      <trkpt lat="48.10625" lon="5.51587">
        <ele>364.4</ele>
        <time>2024-07-24T13:48:33Z</time>
      </trkpt>
      <trkpt lat="48.10625" lon="5.51587">
        <ele>364.4</ele>
        <time>2024-07-24T13:48:35Z</time>
      </trkpt>
      <trkpt lat="48.1064" lon="5.51649">
        <ele>362.2</ele>
        <time>2024-07-24T13:48:42Z</time>
      </trkpt>
      <trkpt lat="48.10659" lon="5.51705">
        <ele>360.2</ele>
        <time>2024-07-24T13:48:50Z</time>
      </trkpt>
      <trkpt lat="48.10663" lon="5.51739">
        <ele>359.1</ele>
        <time>2024-07-24T13:48:55Z</time>
      </trkpt>
      <trkpt lat="48.10663" lon="5.51746">
        <ele>358.8</ele>
        <time>2024-07-24T13:48:56Z</time>
      </trkpt>
      <trkpt lat="48.10661" lon="5.5179">
        <ele>357.4</ele>
        <time>2024-07-24T13:49:02Z</time>
      </trkpt>
      <trkpt lat="48.10655" lon="5.51819">
        <ele>356.4</ele>
        <time>2024-07-24T13:49:06Z</time>
      </trkpt>
      <trkpt lat="48.10651" lon="5.51831">
        <ele>356</ele>
        <time>2024-07-24T13:49:08Z</time>
      </trkpt>
      <trkpt lat="48.10642" lon="5.5184">
        <ele>355.5</ele>
        <time>2024-07-24T13:49:10Z</time>
      </trkpt>
      <trkpt lat="48.10634" lon="5.51851">
        <ele>354.9</ele>
        <time>2024-07-24T13:49:12Z</time>
      </trkpt>
      <trkpt lat="48.10612" lon="5.51878">
        <ele>353.6</ele>
        <time>2024-07-24T13:49:18Z</time>
      </trkpt>
      <trkpt lat="48.10604" lon="5.51898">
        <ele>352.8</ele>
        <time>2024-07-24T13:49:24Z</time>
      </trkpt>
      <trkpt lat="48.10591" lon="5.51894">
        <ele>353.1</ele>
        <time>2024-07-24T13:49:28Z</time>
      </trkpt>
      <trkpt lat="48.10569" lon="5.51878">
        <ele>354</ele>
        <time>2024-07-24T13:49:36Z</time>
      </trkpt>
      <trkpt lat="48.10552" lon="5.51867">
        <ele>354.8</ele>
        <time>2024-07-24T13:49:42Z</time>
      </trkpt>
      <trkpt lat="48.10536" lon="5.51855">
        <ele>355.7</ele>
        <time>2024-07-24T13:49:48Z</time>
      </trkpt>
      <trkpt lat="48.10514" lon="5.51839">
        <ele>356.8</ele>
        <time>2024-07-24T13:49:55Z</time>
      </trkpt>
      <trkpt lat="48.10479" lon="5.51819">
        <ele>358.1</ele>
        <time>2024-07-24T13:50:04Z</time>
      </trkpt>
      <trkpt lat="48.10453" lon="5.51805">
        <ele>359.2</ele>
        <time>2024-07-24T13:50:11Z</time>
      </trkpt>
      <trkpt lat="48.10428" lon="5.51781">
        <ele>360.4</ele>
        <time>2024-07-24T13:50:18Z</time>
      </trkpt>
      <trkpt lat="48.10405" lon="5.51747">
        <ele>361.8</ele>
        <time>2024-07-24T13:50:26Z</time>
      </trkpt>
      <trkpt lat="48.10384" lon="5.51713">
        <ele>363.3</ele>
        <time>2024-07-24T13:50:35Z</time>
      </trkpt>
      <trkpt lat="48.10367" lon="5.51681">
        <ele>364.6</ele>
        <time>2024-07-24T13:50:43Z</time>
      </trkpt>
      <trkpt lat="48.1035" lon="5.51648">
        <ele>366.1</ele>
        <time>2024-07-24T13:50:51Z</time>
      </trkpt>
      <trkpt lat="48.10332" lon="5.51615">
        <ele>367.5</ele>
        <time>2024-07-24T13:50:59Z</time>
      </trkpt>
      <trkpt lat="48.10312" lon="5.51583">
        <ele>369.1</ele>
        <time>2024-07-24T13:51:08Z</time>
      </trkpt>
      <trkpt lat="48.10291" lon="5.51549">
        <ele>370.8</ele>
        <time>2024-07-24T13:51:18Z</time>
      </trkpt>
      <trkpt lat="48.10273" lon="5.51518">
        <ele>372.3</ele>
        <time>2024-07-24T13:51:27Z</time>
      </trkpt>
      <trkpt lat="48.10257" lon="5.51482">
        <ele>374</ele>
        <time>2024-07-24T13:51:36Z</time>
      </trkpt>
      <trkpt lat="48.10244" lon="5.51444">
        <ele>375.5</ele>
        <time>2024-07-24T13:51:45Z</time>
      </trkpt>
      <trkpt lat="48.10234" lon="5.51405">
        <ele>377.5</ele>
        <time>2024-07-24T13:51:55Z</time>
      </trkpt>
      <trkpt lat="48.10227" lon="5.51378">
        <ele>379</ele>
        <time>2024-07-24T13:52:04Z</time>
      </trkpt>
      <trkpt lat="48.10219" lon="5.51346">
        <ele>381</ele>
        <time>2024-07-24T13:52:13Z</time>
      </trkpt>
      <trkpt lat="48.10212" lon="5.5132">
        <ele>382.6</ele>
        <time>2024-07-24T13:52:22Z</time>
      </trkpt>
      <trkpt lat="48.10205" lon="5.51295">
        <ele>384.1</ele>
        <time>2024-07-24T13:52:31Z</time>
      </trkpt>
      <trkpt lat="48.10201" lon="5.51277">
        <ele>385.3</ele>
        <time>2024-07-24T13:52:38Z</time>
      </trkpt>
      <trkpt lat="48.10192" lon="5.51267">
        <ele>386.3</ele>
        <time>2024-07-24T13:52:44Z</time>
      </trkpt>
      <trkpt lat="48.10174" lon="5.51259">
        <ele>386.4</ele>
        <time>2024-07-24T13:52:50Z</time>
      </trkpt>
      <trkpt lat="48.10143" lon="5.51247">
        <ele>386.8</ele>
        <time>2024-07-24T13:52:59Z</time>
      </trkpt>
      <trkpt lat="48.10121" lon="5.51245">
        <ele>387.3</ele>
        <time>2024-07-24T13:53:05Z</time>
      </trkpt>
      <trkpt lat="48.10092" lon="5.51248">
        <ele>388.1</ele>
        <time>2024-07-24T13:53:13Z</time>
      </trkpt>
      <trkpt lat="48.10065" lon="5.51259">
        <ele>389</ele>
        <time>2024-07-24T13:53:21Z</time>
      </trkpt>
      <trkpt lat="48.10044" lon="5.51273">
        <ele>389.9</ele>
        <time>2024-07-24T13:53:27Z</time>
      </trkpt>
      <trkpt lat="48.1004" lon="5.51276">
        <ele>390.1</ele>
        <time>2024-07-24T13:53:28Z</time>
      </trkpt>
      <trkpt lat="48.10021" lon="5.51293">
        <ele>390.8</ele>
        <time>2024-07-24T13:53:34Z</time>
      </trkpt>
      <trkpt lat="48.09993" lon="5.51325">
        <ele>392</ele>
        <time>2024-07-24T13:53:43Z</time>
      </trkpt>
      <trkpt lat="48.09969" lon="5.51356">
        <ele>393.2</ele>
        <time>2024-07-24T13:53:51Z</time>
      </trkpt>
      <trkpt lat="48.09951" lon="5.51388">
        <ele>394.3</ele>
        <time>2024-07-24T13:53:58Z</time>
      </trkpt>
      <trkpt lat="48.09932" lon="5.51429">
        <ele>395.8</ele>
        <time>2024-07-24T13:54:06Z</time>
      </trkpt>
      <trkpt lat="48.09915" lon="5.51471">
        <ele>396.9</ele>
        <time>2024-07-24T13:54:14Z</time>
      </trkpt>
      <trkpt lat="48.09895" lon="5.5152">
        <ele>398.4</ele>
        <time>2024-07-24T13:54:23Z</time>
      </trkpt>
      <trkpt lat="48.09892" lon="5.51525">
        <ele>398.5</ele>
        <time>2024-07-24T13:54:24Z</time>
      </trkpt>
      <trkpt lat="48.09872" lon="5.51557">
        <ele>399.5</ele>
        <time>2024-07-24T13:54:31Z</time>
      </trkpt>
      <trkpt lat="48.09846" lon="5.51599">
        <ele>400.6</ele>
        <time>2024-07-24T13:54:40Z</time>
      </trkpt>
      <trkpt lat="48.09818" lon="5.51637">
        <ele>401.9</ele>
        <time>2024-07-24T13:54:49Z</time>
      </trkpt>
      <trkpt lat="48.09789" lon="5.51674">
        <ele>403.5</ele>
        <time>2024-07-24T13:54:58Z</time>
      </trkpt>
      <trkpt lat="48.09767" lon="5.51694">
        <ele>405</ele>
        <time>2024-07-24T13:55:04Z</time>
      </trkpt>
      <trkpt lat="48.09747" lon="5.51705">
        <ele>405.8</ele>
        <time>2024-07-24T13:55:09Z</time>
      </trkpt>
      <trkpt lat="48.09742" lon="5.51705">
        <ele>405.9</ele>
        <time>2024-07-24T13:55:10Z</time>
      </trkpt>
      <trkpt lat="48.09734" lon="5.51707">
        <ele>406</ele>
        <time>2024-07-24T13:55:12Z</time>
      </trkpt>
      <trkpt lat="48.0972" lon="5.51708">
        <ele>406.4</ele>
        <time>2024-07-24T13:55:15Z</time>
      </trkpt>
      <trkpt lat="48.09689" lon="5.51703">
        <ele>407</ele>
        <time>2024-07-24T13:55:22Z</time>
      </trkpt>
      <trkpt lat="48.09661" lon="5.51686">
        <ele>407.9</ele>
        <time>2024-07-24T13:55:29Z</time>
      </trkpt>
      <trkpt lat="48.09636" lon="5.51666">
        <ele>408.2</ele>
        <time>2024-07-24T13:55:35Z</time>
      </trkpt>
      <trkpt lat="48.09617" lon="5.51646">
        <ele>408.7</ele>
        <time>2024-07-24T13:55:40Z</time>
      </trkpt>
      <trkpt lat="48.09613" lon="5.51642">
        <ele>408.8</ele>
        <time>2024-07-24T13:55:41Z</time>
      </trkpt>
      <trkpt lat="48.09586" lon="5.51615">
        <ele>409.7</ele>
        <time>2024-07-24T13:55:48Z</time>
      </trkpt>
      <trkpt lat="48.09554" lon="5.51595">
        <ele>410.4</ele>
        <time>2024-07-24T13:55:55Z</time>
      </trkpt>
      <trkpt lat="48.09531" lon="5.51594">
        <ele>411.2</ele>
        <time>2024-07-24T13:56:00Z</time>
      </trkpt>
      <trkpt lat="48.09522" lon="5.51593">
        <ele>411.6</ele>
        <time>2024-07-24T13:56:02Z</time>
      </trkpt>
      <trkpt lat="48.09509" lon="5.51592">
        <ele>412</ele>
        <time>2024-07-24T13:56:05Z</time>
      </trkpt>
      <trkpt lat="48.09477" lon="5.5159">
        <ele>413.2</ele>
        <time>2024-07-24T13:56:12Z</time>
      </trkpt>
      <trkpt lat="48.0944" lon="5.51587">
        <ele>413.3</ele>
        <time>2024-07-24T13:56:19Z</time>
      </trkpt>
      <trkpt lat="48.09405" lon="5.51577">
        <ele>413.3</ele>
        <time>2024-07-24T13:56:25Z</time>
      </trkpt>
      <trkpt lat="48.09377" lon="5.51556">
        <ele>413.2</ele>
        <time>2024-07-24T13:56:30Z</time>
      </trkpt>
      <trkpt lat="48.09355" lon="5.51515">
        <ele>412.6</ele>
        <time>2024-07-24T13:56:36Z</time>
      </trkpt>
      <trkpt lat="48.09336" lon="5.51469">
        <ele>411.8</ele>
        <time>2024-07-24T13:56:42Z</time>
      </trkpt>
      <trkpt lat="48.09319" lon="5.51408">
        <ele>410.8</ele>
        <time>2024-07-24T13:56:49Z</time>
      </trkpt>
      <trkpt lat="48.09313" lon="5.51358">
        <ele>410.2</ele>
        <time>2024-07-24T13:56:55Z</time>
      </trkpt>
      <trkpt lat="48.09312" lon="5.51348">
        <ele>410</ele>
        <time>2024-07-24T13:56:57Z</time>
      </trkpt>
      <trkpt lat="48.09306" lon="5.51343">
        <ele>409.4</ele>
        <time>2024-07-24T13:56:58Z</time>
      </trkpt>
      <trkpt lat="48.09304" lon="5.51346">
        <ele>409.1</ele>
        <time>2024-07-24T13:56:59Z</time>
      </trkpt>
      <trkpt lat="48.09297" lon="5.51355">
        <ele>408.2</ele>
        <time>2024-07-24T13:57:01Z</time>
      </trkpt>
      <trkpt lat="48.09274" lon="5.51397">
        <ele>405.7</ele>
        <time>2024-07-24T13:57:06Z</time>
      </trkpt>
      <trkpt lat="48.09241" lon="5.51469">
        <ele>402.1</ele>
        <time>2024-07-24T13:57:13Z</time>
      </trkpt>
      <trkpt lat="48.09232" lon="5.51493">
        <ele>400.9</ele>
        <time>2024-07-24T13:57:15Z</time>
      </trkpt>
      <trkpt lat="48.0923" lon="5.5152">
        <ele>399.8</ele>
        <time>2024-07-24T13:57:17Z</time>
      </trkpt>
      <trkpt lat="48.09223" lon="5.51588">
        <ele>396.9</ele>
        <time>2024-07-24T13:57:22Z</time>
      </trkpt>
      <trkpt lat="48.09214" lon="5.51678">
        <ele>393.2</ele>
        <time>2024-07-24T13:57:29Z</time>
      </trkpt>
      <trkpt lat="48.09212" lon="5.51704">
        <ele>392.1</ele>
        <time>2024-07-24T13:57:31Z</time>
      </trkpt>
      <trkpt lat="48.09209" lon="5.5173">
        <ele>391</ele>
        <time>2024-07-24T13:57:33Z</time>
      </trkpt>
      <trkpt lat="48.09198" lon="5.5175">
        <ele>389.8</ele>
        <time>2024-07-24T13:57:35Z</time>
      </trkpt>
      <trkpt lat="48.09186" lon="5.5177">
        <ele>388.6</ele>
        <time>2024-07-24T13:57:37Z</time>
      </trkpt>
      <trkpt lat="48.09177" lon="5.51774">
        <ele>388</ele>
        <time>2024-07-24T13:57:38Z</time>
      </trkpt>
      <trkpt lat="48.09168" lon="5.51777">
        <ele>387.3</ele>
        <time>2024-07-24T13:57:39Z</time>
      </trkpt>
      <trkpt lat="48.09139" lon="5.5179">
        <ele>385.5</ele>
        <time>2024-07-24T13:57:42Z</time>
      </trkpt>
      <trkpt lat="48.0912" lon="5.51802">
        <ele>384.7</ele>
        <time>2024-07-24T13:57:44Z</time>
      </trkpt>
      <trkpt lat="48.09102" lon="5.51817">
        <ele>384</ele>
        <time>2024-07-24T13:57:46Z</time>
      </trkpt>
      <trkpt lat="48.09088" lon="5.51836">
        <ele>383.4</ele>
        <time>2024-07-24T13:57:48Z</time>
      </trkpt>
      <trkpt lat="48.09081" lon="5.51848">
        <ele>383.1</ele>
        <time>2024-07-24T13:57:49Z</time>
      </trkpt>
      <trkpt lat="48.09052" lon="5.51906">
        <ele>381.9</ele>
        <time>2024-07-24T13:57:54Z</time>
      </trkpt>
      <trkpt lat="48.09017" lon="5.51973">
        <ele>379.8</ele>
        <time>2024-07-24T13:58:00Z</time>
      </trkpt>
      <trkpt lat="48.09011" lon="5.51983">
        <ele>379.4</ele>
        <time>2024-07-24T13:58:01Z</time>
      </trkpt>
      <trkpt lat="48.09003" lon="5.5199">
        <ele>378.9</ele>
        <time>2024-07-24T13:58:02Z</time>
      </trkpt>
      <trkpt lat="48.08972" lon="5.52021">
        <ele>377.1</ele>
        <time>2024-07-24T13:58:06Z</time>
      </trkpt>
      <trkpt lat="48.08949" lon="5.52045">
        <ele>375.8</ele>
        <time>2024-07-24T13:58:09Z</time>
      </trkpt>
      <trkpt lat="48.08936" lon="5.52067">
        <ele>374.9</ele>
        <time>2024-07-24T13:58:11Z</time>
      </trkpt>
      <trkpt lat="48.08901" lon="5.52135">
        <ele>372.1</ele>
        <time>2024-07-24T13:58:17Z</time>
      </trkpt>
      <trkpt lat="48.08873" lon="5.52213">
        <ele>369</ele>
        <time>2024-07-24T13:58:23Z</time>
      </trkpt>
      <trkpt lat="48.08846" lon="5.52292">
        <ele>365.7</ele>
        <time>2024-07-24T13:58:29Z</time>
      </trkpt>
      <trkpt lat="48.08837" lon="5.52318">
        <ele>364.5</ele>
        <time>2024-07-24T13:58:31Z</time>
      </trkpt>
      <trkpt lat="48.08809" lon="5.52397">
        <ele>360.9</ele>
        <time>2024-07-24T13:58:37Z</time>
      </trkpt>
      <trkpt lat="48.08804" lon="5.52411">
        <ele>360.3</ele>
        <time>2024-07-24T13:58:38Z</time>
      </trkpt>
      <trkpt lat="48.08774" lon="5.52487">
        <ele>356.4</ele>
        <time>2024-07-24T13:58:44Z</time>
      </trkpt>
      <trkpt lat="48.08756" lon="5.52537">
        <ele>354.2</ele>
        <time>2024-07-24T13:58:48Z</time>
      </trkpt>
      <trkpt lat="48.0875" lon="5.52595">
        <ele>351.9</ele>
        <time>2024-07-24T13:58:52Z</time>
      </trkpt>
      <trkpt lat="48.08741" lon="5.52685">
        <ele>348.3</ele>
        <time>2024-07-24T13:58:58Z</time>
      </trkpt>
      <trkpt lat="48.08735" lon="5.52714">
        <ele>347</ele>
        <time>2024-07-24T13:59:00Z</time>
      </trkpt>
      <trkpt lat="48.08732" lon="5.52727">
        <ele>346.3</ele>
        <time>2024-07-24T13:59:01Z</time>
      </trkpt>
      <trkpt lat="48.08718" lon="5.52768">
        <ele>344.6</ele>
        <time>2024-07-24T13:59:04Z</time>
      </trkpt>
      <trkpt lat="48.08689" lon="5.5285">
        <ele>340.7</ele>
        <time>2024-07-24T13:59:10Z</time>
      </trkpt>
      <trkpt lat="48.0868" lon="5.52879">
        <ele>339.3</ele>
        <time>2024-07-24T13:59:12Z</time>
      </trkpt>
      <trkpt lat="48.0865" lon="5.52964">
        <ele>335.3</ele>
        <time>2024-07-24T13:59:18Z</time>
      </trkpt>
      <trkpt lat="48.0864" lon="5.52993">
        <ele>333.9</ele>
        <time>2024-07-24T13:59:20Z</time>
      </trkpt>
      <trkpt lat="48.08615" lon="5.53066">
        <ele>330.8</ele>
        <time>2024-07-24T13:59:25Z</time>
      </trkpt>
      <trkpt lat="48.08595" lon="5.53123">
        <ele>329</ele>
        <time>2024-07-24T13:59:29Z</time>
      </trkpt>
      <trkpt lat="48.08565" lon="5.532">
        <ele>328.3</ele>
        <time>2024-07-24T13:59:35Z</time>
      </trkpt>
      <trkpt lat="48.08539" lon="5.53235">
        <ele>328.3</ele>
        <time>2024-07-24T13:59:39Z</time>
      </trkpt>
      <trkpt lat="48.08494" lon="5.53287">
        <ele>328.8</ele>
        <time>2024-07-24T13:59:46Z</time>
      </trkpt>
      <trkpt lat="48.08452" lon="5.53337">
        <ele>330.4</ele>
        <time>2024-07-24T13:59:53Z</time>
      </trkpt>
      <trkpt lat="48.08427" lon="5.53374">
        <ele>330.9</ele>
        <time>2024-07-24T13:59:58Z</time>
      </trkpt>
      <trkpt lat="48.08423" lon="5.53381">
        <ele>331</ele>
        <time>2024-07-24T13:59:59Z</time>
      </trkpt>
      <trkpt lat="48.08402" lon="5.53432">
        <ele>330.2</ele>
        <time>2024-07-24T14:00:05Z</time>
      </trkpt>
      <trkpt lat="48.08388" lon="5.53492">
        <ele>328.8</ele>
        <time>2024-07-24T14:00:11Z</time>
      </trkpt>
      <trkpt lat="48.0837" lon="5.53579">
        <ele>326.8</ele>
        <time>2024-07-24T14:00:19Z</time>
      </trkpt>
      <trkpt lat="48.08363" lon="5.53612">
        <ele>326</ele>
        <time>2024-07-24T14:00:22Z</time>
      </trkpt>
      <trkpt lat="48.08355" lon="5.5367">
        <ele>324.8</ele>
        <time>2024-07-24T14:00:27Z</time>
      </trkpt>
      <trkpt lat="48.0836" lon="5.53692">
        <ele>324.3</ele>
        <time>2024-07-24T14:00:29Z</time>
      </trkpt>
      <trkpt lat="48.08362" lon="5.53704">
        <ele>324</ele>
        <time>2024-07-24T14:00:30Z</time>
      </trkpt>
      <trkpt lat="48.08371" lon="5.53735">
        <ele>323.2</ele>
        <time>2024-07-24T14:00:33Z</time>
      </trkpt>
      <trkpt lat="48.08377" lon="5.53744">
        <ele>322.9</ele>
        <time>2024-07-24T14:00:34Z</time>
      </trkpt>
      <trkpt lat="48.08409" lon="5.538">
        <ele>321</ele>
        <time>2024-07-24T14:00:40Z</time>
      </trkpt>
      <trkpt lat="48.08438" lon="5.53857">
        <ele>319.9</ele>
        <time>2024-07-24T14:00:46Z</time>
      </trkpt>
      <trkpt lat="48.08443" lon="5.53879">
        <ele>319.7</ele>
        <time>2024-07-24T14:00:48Z</time>
      </trkpt>
      <trkpt lat="48.08449" lon="5.53913">
        <ele>319.4</ele>
        <time>2024-07-24T14:00:51Z</time>
      </trkpt>
      <trkpt lat="48.08456" lon="5.53996">
        <ele>319.2</ele>
        <time>2024-07-24T14:00:58Z</time>
      </trkpt>
      <trkpt lat="48.08459" lon="5.5405">
        <ele>319.3</ele>
        <time>2024-07-24T14:01:03Z</time>
      </trkpt>
      <trkpt lat="48.08461" lon="5.54084">
        <ele>319.3</ele>
        <time>2024-07-24T14:01:06Z</time>
      </trkpt>
      <trkpt lat="48.08466" lon="5.54173">
        <ele>319.1</ele>
        <time>2024-07-24T14:01:14Z</time>
      </trkpt>
      <trkpt lat="48.08467" lon="5.54196">
        <ele>319.2</ele>
        <time>2024-07-24T14:01:16Z</time>
      </trkpt>
      <trkpt lat="48.08471" lon="5.54281">
        <ele>318.8</ele>
        <time>2024-07-24T14:01:24Z</time>
      </trkpt>
      <trkpt lat="48.08474" lon="5.54349">
        <ele>318.9</ele>
        <time>2024-07-24T14:01:31Z</time>
      </trkpt>
      <trkpt lat="48.08478" lon="5.54421">
        <ele>319.6</ele>
        <time>2024-07-24T14:01:39Z</time>
      </trkpt>
      <trkpt lat="48.08478" lon="5.54458">
        <ele>319.6</ele>
        <time>2024-07-24T14:01:44Z</time>
      </trkpt>
      <trkpt lat="48.08476" lon="5.54463">
        <ele>319.6</ele>
        <time>2024-07-24T14:01:45Z</time>
      </trkpt>
      <trkpt lat="48.08468" lon="5.54493">
        <ele>319.7</ele>
        <time>2024-07-24T14:01:51Z</time>
      </trkpt>
      <trkpt lat="48.08467" lon="5.54498">
        <ele>319.7</ele>
        <time>2024-07-24T14:01:52Z</time>
      </trkpt>
      <trkpt lat="48.08459" lon="5.54523">
        <ele>319.7</ele>
        <time>2024-07-24T14:01:56Z</time>
      </trkpt>
      <trkpt lat="48.08442" lon="5.5457">
        <ele>319.9</ele>
        <time>2024-07-24T14:02:03Z</time>
      </trkpt>
      <trkpt lat="48.08432" lon="5.54598">
        <ele>320.6</ele>
        <time>2024-07-24T14:02:07Z</time>
      </trkpt>
      <trkpt lat="48.08427" lon="5.5461">
        <ele>321</ele>
        <time>2024-07-24T14:02:09Z</time>
      </trkpt>
      <trkpt lat="48.08413" lon="5.54646">
        <ele>322.8</ele>
        <time>2024-07-24T14:02:16Z</time>
      </trkpt>
      <trkpt lat="48.08403" lon="5.54672">
        <ele>324.1</ele>
        <time>2024-07-24T14:02:22Z</time>
      </trkpt>
      <trkpt lat="48.08392" lon="5.54695">
        <ele>324.7</ele>
        <time>2024-07-24T14:02:29Z</time>
      </trkpt>
      <trkpt lat="48.08389" lon="5.54698">
        <ele>324.5</ele>
        <time>2024-07-24T14:02:31Z</time>
      </trkpt>
      <trkpt lat="48.08386" lon="5.54696">
        <ele>324.6</ele>
        <time>2024-07-24T14:02:32Z</time>
      </trkpt>
      <trkpt lat="48.08364" lon="5.54682">
        <ele>324.4</ele>
        <time>2024-07-24T14:02:38Z</time>
      </trkpt>
      <trkpt lat="48.08337" lon="5.54657">
        <ele>323.2</ele>
        <time>2024-07-24T14:02:44Z</time>
      </trkpt>
      <trkpt lat="48.08308" lon="5.54631">
        <ele>321.6</ele>
        <time>2024-07-24T14:02:49Z</time>
      </trkpt>
      <trkpt lat="48.08268" lon="5.54596">
        <ele>320.8</ele>
        <time>2024-07-24T14:02:55Z</time>
      </trkpt>
      <trkpt lat="48.0823" lon="5.5458">
        <ele>320.4</ele>
        <time>2024-07-24T14:03:01Z</time>
      </trkpt>
      <trkpt lat="48.08198" lon="5.54566">
        <ele>320.5</ele>
        <time>2024-07-24T14:03:06Z</time>
      </trkpt>
      <trkpt lat="48.08192" lon="5.54564">
        <ele>320.6</ele>
        <time>2024-07-24T14:03:07Z</time>
      </trkpt>
      <trkpt lat="48.08174" lon="5.54558">
        <ele>320.7</ele>
        <time>2024-07-24T14:03:10Z</time>
      </trkpt>
      <trkpt lat="48.08162" lon="5.54557">
        <ele>320.7</ele>
        <time>2024-07-24T14:03:12Z</time>
      </trkpt>
      <trkpt lat="48.08151" lon="5.54564">
        <ele>320.7</ele>
        <time>2024-07-24T14:03:14Z</time>
      </trkpt>
      <trkpt lat="48.08142" lon="5.54576">
        <ele>320.7</ele>
        <time>2024-07-24T14:03:16Z</time>
      </trkpt>
      <trkpt lat="48.08126" lon="5.54601">
        <ele>320.9</ele>
        <time>2024-07-24T14:03:21Z</time>
      </trkpt>
      <trkpt lat="48.0811" lon="5.54624">
        <ele>321.1</ele>
        <time>2024-07-24T14:03:27Z</time>
      </trkpt>
      <trkpt lat="48.08107" lon="5.54628">
        <ele>321.2</ele>
        <time>2024-07-24T14:03:28Z</time>
      </trkpt>
      <trkpt lat="48.08104" lon="5.54634">
        <ele>321.2</ele>
        <time>2024-07-24T14:03:29Z</time>
      </trkpt>
      <trkpt lat="48.08091" lon="5.54656">
        <ele>321.8</ele>
        <time>2024-07-24T14:03:33Z</time>
      </trkpt>
      <trkpt lat="48.08079" lon="5.54669">
        <ele>322.5</ele>
        <time>2024-07-24T14:03:36Z</time>
      </trkpt>
      <trkpt lat="48.08071" lon="5.54677">
        <ele>323.1</ele>
        <time>2024-07-24T14:03:38Z</time>
      </trkpt>
      <trkpt lat="48.08067" lon="5.54681">
        <ele>323.3</ele>
        <time>2024-07-24T14:03:39Z</time>
      </trkpt>
      <trkpt lat="48.08063" lon="5.54684">
        <ele>323.5</ele>
        <time>2024-07-24T14:03:40Z</time>
      </trkpt>
      <trkpt lat="48.08053" lon="5.54686">
        <ele>323.8</ele>
        <time>2024-07-24T14:03:42Z</time>
      </trkpt>
      <trkpt lat="48.08043" lon="5.54686">
        <ele>324.1</ele>
        <time>2024-07-24T14:03:44Z</time>
      </trkpt>
      <trkpt lat="48.08021" lon="5.5468">
        <ele>324.5</ele>
        <time>2024-07-24T14:03:48Z</time>
      </trkpt>
      <trkpt lat="48.08016" lon="5.54676">
        <ele>324.5</ele>
        <time>2024-07-24T14:03:49Z</time>
      </trkpt>
      <trkpt lat="48.07978" lon="5.5465">
        <ele>324.7</ele>
        <time>2024-07-24T14:03:56Z</time>
      </trkpt>
      <trkpt lat="48.07939" lon="5.54623">
        <ele>325</ele>
        <time>2024-07-24T14:04:03Z</time>
      </trkpt>
      <trkpt lat="48.07902" lon="5.54594">
        <ele>325.4</ele>
        <time>2024-07-24T14:04:10Z</time>
      </trkpt>
      <trkpt lat="48.07861" lon="5.54559">
        <ele>326.2</ele>
        <time>2024-07-24T14:04:18Z</time>
      </trkpt>
      <trkpt lat="48.07827" lon="5.54532">
        <ele>327.3</ele>
        <time>2024-07-24T14:04:25Z</time>
      </trkpt>
      <trkpt lat="48.07796" lon="5.54527">
        <ele>328.7</ele>
        <time>2024-07-24T14:04:31Z</time>
      </trkpt>
      <trkpt lat="48.07758" lon="5.54525">
        <ele>330.6</ele>
        <time>2024-07-24T14:04:38Z</time>
      </trkpt>
      <trkpt lat="48.07722" lon="5.54528">
        <ele>332.3</ele>
        <time>2024-07-24T14:04:45Z</time>
      </trkpt>
      <trkpt lat="48.07685" lon="5.5454">
        <ele>333.6</ele>
        <time>2024-07-24T14:04:52Z</time>
      </trkpt>
      <trkpt lat="48.0765" lon="5.54549">
        <ele>335</ele>
        <time>2024-07-24T14:04:59Z</time>
      </trkpt>
      <trkpt lat="48.07603" lon="5.5456">
        <ele>335.1</ele>
        <time>2024-07-24T14:05:08Z</time>
      </trkpt>
      <trkpt lat="48.07564" lon="5.5457">
        <ele>333.8</ele>
        <time>2024-07-24T14:05:14Z</time>
      </trkpt>
      <trkpt lat="48.07518" lon="5.54592">
        <ele>332.7</ele>
        <time>2024-07-24T14:05:21Z</time>
      </trkpt>
      <trkpt lat="48.07466" lon="5.54628">
        <ele>332.7</ele>
        <time>2024-07-24T14:05:29Z</time>
      </trkpt>
      <trkpt lat="48.07432" lon="5.54643">
        <ele>332</ele>
        <time>2024-07-24T14:05:34Z</time>
      </trkpt>
      <trkpt lat="48.07377" lon="5.54653">
        <ele>330.3</ele>
        <time>2024-07-24T14:05:41Z</time>
      </trkpt>
      <trkpt lat="48.07368" lon="5.54654">
        <ele>330</ele>
        <time>2024-07-24T14:05:42Z</time>
      </trkpt>
      <trkpt lat="48.07307" lon="5.54659">
        <ele>327.8</ele>
        <time>2024-07-24T14:05:49Z</time>
      </trkpt>
      <trkpt lat="48.07245" lon="5.54662">
        <ele>326.1</ele>
        <time>2024-07-24T14:05:56Z</time>
      </trkpt>
      <trkpt lat="48.07236" lon="5.54662">
        <ele>325.9</ele>
        <time>2024-07-24T14:05:57Z</time>
      </trkpt>
      <trkpt lat="48.07174" lon="5.54664">
        <ele>325</ele>
        <time>2024-07-24T14:06:04Z</time>
      </trkpt>
      <trkpt lat="48.07157" lon="5.54665">
        <ele>324.7</ele>
        <time>2024-07-24T14:06:06Z</time>
      </trkpt>
      <trkpt lat="48.07098" lon="5.54668">
        <ele>323.9</ele>
        <time>2024-07-24T14:06:13Z</time>
      </trkpt>
      <trkpt lat="48.07049" lon="5.54662">
        <ele>323.1</ele>
        <time>2024-07-24T14:06:19Z</time>
      </trkpt>
      <trkpt lat="48.06993" lon="5.5466">
        <ele>322</ele>
        <time>2024-07-24T14:06:26Z</time>
      </trkpt>
      <trkpt lat="48.06939" lon="5.54676">
        <ele>322.4</ele>
        <time>2024-07-24T14:06:33Z</time>
      </trkpt>
      <trkpt lat="48.06894" lon="5.54701">
        <ele>323.4</ele>
        <time>2024-07-24T14:06:40Z</time>
      </trkpt>
      <trkpt lat="48.06875" lon="5.54711">
        <ele>324.1</ele>
        <time>2024-07-24T14:06:43Z</time>
      </trkpt>
      <trkpt lat="48.06864" lon="5.54722">
        <ele>324.4</ele>
        <time>2024-07-24T14:06:45Z</time>
      </trkpt>
      <trkpt lat="48.06837" lon="5.5477">
        <ele>325.8</ele>
        <time>2024-07-24T14:06:52Z</time>
      </trkpt>
      <trkpt lat="48.06817" lon="5.54804">
        <ele>326.6</ele>
        <time>2024-07-24T14:06:58Z</time>
      </trkpt>
      <trkpt lat="48.06801" lon="5.54832">
        <ele>327.1</ele>
        <time>2024-07-24T14:07:04Z</time>
      </trkpt>
      <trkpt lat="48.06794" lon="5.54837">
        <ele>327.2</ele>
        <time>2024-07-24T14:07:06Z</time>
      </trkpt>
      <trkpt lat="48.06786" lon="5.54844">
        <ele>327.4</ele>
        <time>2024-07-24T14:07:08Z</time>
      </trkpt>
      <trkpt lat="48.06784" lon="5.5485">
        <ele>327.5</ele>
        <time>2024-07-24T14:07:09Z</time>
      </trkpt>
      <trkpt lat="48.06782" lon="5.54857">
        <ele>327.6</ele>
        <time>2024-07-24T14:07:10Z</time>
      </trkpt>
      <trkpt lat="48.06772" lon="5.54886">
        <ele>328.2</ele>
        <time>2024-07-24T14:07:14Z</time>
      </trkpt>
      <trkpt lat="48.06748" lon="5.54957">
        <ele>329.5</ele>
        <time>2024-07-24T14:07:23Z</time>
      </trkpt>
      <trkpt lat="48.0673" lon="5.55022">
        <ele>331.1</ele>
        <time>2024-07-24T14:07:31Z</time>
      </trkpt>
      <trkpt lat="48.06713" lon="5.55085">
        <ele>333.2</ele>
        <time>2024-07-24T14:07:40Z</time>
      </trkpt>
      <trkpt lat="48.06697" lon="5.55143">
        <ele>333.7</ele>
        <time>2024-07-24T14:07:48Z</time>
      </trkpt>
      <trkpt lat="48.06681" lon="5.55206">
        <ele>333.7</ele>
        <time>2024-07-24T14:07:56Z</time>
      </trkpt>
      <trkpt lat="48.06664" lon="5.55269">
        <ele>333.6</ele>
        <time>2024-07-24T14:08:04Z</time>
      </trkpt>
      <trkpt lat="48.06663" lon="5.55316">
        <ele>332.8</ele>
        <time>2024-07-24T14:08:10Z</time>
      </trkpt>
      <trkpt lat="48.06663" lon="5.55334">
        <ele>332.3</ele>
        <time>2024-07-24T14:08:12Z</time>
      </trkpt>
      <trkpt lat="48.0666" lon="5.55352">
        <ele>331.9</ele>
        <time>2024-07-24T14:08:14Z</time>
      </trkpt>
      <trkpt lat="48.06652" lon="5.55382">
        <ele>330.9</ele>
        <time>2024-07-24T14:08:17Z</time>
      </trkpt>
      <trkpt lat="48.06646" lon="5.5539">
        <ele>330.6</ele>
        <time>2024-07-24T14:08:18Z</time>
      </trkpt>
      <trkpt lat="48.06639" lon="5.55395">
        <ele>330.2</ele>
        <time>2024-07-24T14:08:19Z</time>
      </trkpt>
      <trkpt lat="48.06624" lon="5.55405">
        <ele>329.6</ele>
        <time>2024-07-24T14:08:21Z</time>
      </trkpt>
      <trkpt lat="48.06617" lon="5.55409">
        <ele>329.4</ele>
        <time>2024-07-24T14:08:22Z</time>
      </trkpt>
      <trkpt lat="48.06566" lon="5.55431">
        <ele>328.1</ele>
        <time>2024-07-24T14:08:28Z</time>
      </trkpt>
      <trkpt lat="48.06509" lon="5.5545">
        <ele>327.5</ele>
        <time>2024-07-24T14:08:35Z</time>
      </trkpt>
      <trkpt lat="48.06453" lon="5.55457">
        <ele>327.8</ele>
        <time>2024-07-24T14:08:42Z</time>
      </trkpt>
      <trkpt lat="48.06438" lon="5.55462">
        <ele>328.1</ele>
        <time>2024-07-24T14:08:44Z</time>
      </trkpt>
      <trkpt lat="48.06408" lon="5.55472">
        <ele>328.9</ele>
        <time>2024-07-24T14:08:48Z</time>
      </trkpt>
      <trkpt lat="48.06401" lon="5.55474">
        <ele>329.1</ele>
        <time>2024-07-24T14:08:49Z</time>
      </trkpt>
      <trkpt lat="48.06365" lon="5.55507">
        <ele>330</ele>
        <time>2024-07-24T14:08:55Z</time>
      </trkpt>
      <trkpt lat="48.06334" lon="5.55559">
        <ele>330.3</ele>
        <time>2024-07-24T14:09:02Z</time>
      </trkpt>
      <trkpt lat="48.06311" lon="5.5562">
        <ele>330.3</ele>
        <time>2024-07-24T14:09:09Z</time>
      </trkpt>
      <trkpt lat="48.06284" lon="5.55691">
        <ele>330.3</ele>
        <time>2024-07-24T14:09:17Z</time>
      </trkpt>
      <trkpt lat="48.06277" lon="5.55709">
        <ele>330.3</ele>
        <time>2024-07-24T14:09:19Z</time>
      </trkpt>
      <trkpt lat="48.06251" lon="5.55756">
        <ele>330.4</ele>
        <time>2024-07-24T14:09:25Z</time>
      </trkpt>
      <trkpt lat="48.06224" lon="5.5579">
        <ele>330.8</ele>
        <time>2024-07-24T14:09:31Z</time>
      </trkpt>
      <trkpt lat="48.06197" lon="5.55825">
        <ele>331.1</ele>
        <time>2024-07-24T14:09:37Z</time>
      </trkpt>
      <trkpt lat="48.06155" lon="5.55879">
        <ele>332.8</ele>
        <time>2024-07-24T14:09:46Z</time>
      </trkpt>
      <trkpt lat="48.06121" lon="5.55941">
        <ele>333.3</ele>
        <time>2024-07-24T14:09:55Z</time>
      </trkpt>
      <trkpt lat="48.06088" lon="5.56012">
        <ele>333.8</ele>
        <time>2024-07-24T14:10:04Z</time>
      </trkpt>
      <trkpt lat="48.06056" lon="5.5608">
        <ele>335.4</ele>
        <time>2024-07-24T14:10:13Z</time>
      </trkpt>
      <trkpt lat="48.06053" lon="5.56088">
        <ele>335.6</ele>
        <time>2024-07-24T14:10:14Z</time>
      </trkpt>
      <trkpt lat="48.06027" lon="5.56143">
        <ele>337.3</ele>
        <time>2024-07-24T14:10:22Z</time>
      </trkpt>
      <trkpt lat="48.06007" lon="5.56185">
        <ele>339.2</ele>
        <time>2024-07-24T14:10:29Z</time>
      </trkpt>
      <trkpt lat="48.05987" lon="5.5623">
        <ele>341.1</ele>
        <time>2024-07-24T14:10:38Z</time>
      </trkpt>
      <trkpt lat="48.05974" lon="5.56258">
        <ele>342</ele>
        <time>2024-07-24T14:10:46Z</time>
      </trkpt>
      <trkpt lat="48.05975" lon="5.56274">
        <ele>342.1</ele>
        <time>2024-07-24T14:10:50Z</time>
      </trkpt>
      <trkpt lat="48.05976" lon="5.56275">
        <ele>342.1</ele>
        <time>2024-07-24T14:10:51Z</time>
      </trkpt>
      <trkpt lat="48.05977" lon="5.56277">
        <ele>342.1</ele>
        <time>2024-07-24T14:10:54Z</time>
      </trkpt>
      <trkpt lat="48.0597" lon="5.56268">
        <ele>342.1</ele>
        <time>2024-07-24T14:17:07Z</time>
      </trkpt>
      <trkpt lat="48.05963" lon="5.56282">
        <ele>342.2</ele>
        <time>2024-07-24T14:17:12Z</time>
      </trkpt>
      <trkpt lat="48.05952" lon="5.56307">
        <ele>342.3</ele>
        <time>2024-07-24T14:17:17Z</time>
      </trkpt>
      <trkpt lat="48.05936" lon="5.56344">
        <ele>342.7</ele>
        <time>2024-07-24T14:17:24Z</time>
      </trkpt>
      <trkpt lat="48.05923" lon="5.56384">
        <ele>342.9</ele>
        <time>2024-07-24T14:17:31Z</time>
      </trkpt>
      <trkpt lat="48.05912" lon="5.56424">
        <ele>343</ele>
        <time>2024-07-24T14:17:37Z</time>
      </trkpt>
      <trkpt lat="48.05903" lon="5.56474">
        <ele>343.3</ele>
        <time>2024-07-24T14:17:44Z</time>
      </trkpt>
      <trkpt lat="48.05902" lon="5.56482">
        <ele>343.4</ele>
        <time>2024-07-24T14:17:45Z</time>
      </trkpt>
      <trkpt lat="48.05899" lon="5.5653">
        <ele>344.2</ele>
        <time>2024-07-24T14:17:51Z</time>
      </trkpt>
      <trkpt lat="48.05897" lon="5.5658">
        <ele>345.2</ele>
        <time>2024-07-24T14:17:58Z</time>
      </trkpt>
      <trkpt lat="48.05896" lon="5.56615">
        <ele>345.5</ele>
        <time>2024-07-24T14:18:04Z</time>
      </trkpt>
      <trkpt lat="48.05895" lon="5.56639">
        <ele>345.5</ele>
        <time>2024-07-24T14:18:08Z</time>
      </trkpt>
      <trkpt lat="48.05895" lon="5.5665">
        <ele>345.5</ele>
        <time>2024-07-24T14:18:10Z</time>
      </trkpt>
      <trkpt lat="48.05892" lon="5.56673">
        <ele>344.8</ele>
        <time>2024-07-24T14:18:15Z</time>
      </trkpt>
      <trkpt lat="48.05885" lon="5.56717">
        <ele>345.7</ele>
        <time>2024-07-24T14:18:22Z</time>
      </trkpt>
      <trkpt lat="48.05882" lon="5.56737">
        <ele>346</ele>
        <time>2024-07-24T14:18:25Z</time>
      </trkpt>
      <trkpt lat="48.05878" lon="5.56759">
        <ele>346.3</ele>
        <time>2024-07-24T14:18:28Z</time>
      </trkpt>
      <trkpt lat="48.05868" lon="5.56821">
        <ele>347.3</ele>
        <time>2024-07-24T14:18:36Z</time>
      </trkpt>
      <trkpt lat="48.05862" lon="5.56884">
        <ele>347.8</ele>
        <time>2024-07-24T14:18:44Z</time>
      </trkpt>
      <trkpt lat="48.05862" lon="5.56939">
        <ele>346.8</ele>
        <time>2024-07-24T14:18:51Z</time>
      </trkpt>
      <trkpt lat="48.05859" lon="5.56999">
        <ele>344.8</ele>
        <time>2024-07-24T14:18:57Z</time>
      </trkpt>
      <trkpt lat="48.05857" lon="5.57044">
        <ele>343.4</ele>
        <time>2024-07-24T14:19:01Z</time>
      </trkpt>
      <trkpt lat="48.05857" lon="5.57056">
        <ele>343.3</ele>
        <time>2024-07-24T14:19:02Z</time>
      </trkpt>
      <trkpt lat="48.05856" lon="5.57067">
        <ele>343.1</ele>
        <time>2024-07-24T14:19:03Z</time>
      </trkpt>
      <trkpt lat="48.0586" lon="5.57088">
        <ele>343</ele>
        <time>2024-07-24T14:19:05Z</time>
      </trkpt>
      <trkpt lat="48.05864" lon="5.57099">
        <ele>343</ele>
        <time>2024-07-24T14:19:06Z</time>
      </trkpt>
      <trkpt lat="48.05868" lon="5.57109">
        <ele>343.1</ele>
        <time>2024-07-24T14:19:07Z</time>
      </trkpt>
      <trkpt lat="48.05885" lon="5.5715">
        <ele>343.1</ele>
        <time>2024-07-24T14:19:11Z</time>
      </trkpt>
      <trkpt lat="48.05911" lon="5.57211">
        <ele>343.4</ele>
        <time>2024-07-24T14:19:17Z</time>
      </trkpt>
      <trkpt lat="48.05936" lon="5.57284">
        <ele>343.6</ele>
        <time>2024-07-24T14:19:24Z</time>
      </trkpt>
      <trkpt lat="48.05954" lon="5.57335">
        <ele>343.7</ele>
        <time>2024-07-24T14:19:29Z</time>
      </trkpt>
      <trkpt lat="48.05981" lon="5.57413">
        <ele>344.4</ele>
        <time>2024-07-24T14:19:37Z</time>
      </trkpt>
      <trkpt lat="48.05984" lon="5.57423">
        <ele>344.4</ele>
        <time>2024-07-24T14:19:38Z</time>
      </trkpt>
      <trkpt lat="48.06009" lon="5.57493">
        <ele>344.5</ele>
        <time>2024-07-24T14:19:46Z</time>
      </trkpt>
      <trkpt lat="48.06031" lon="5.57556">
        <ele>344.2</ele>
        <time>2024-07-24T14:19:53Z</time>
      </trkpt>
      <trkpt lat="48.06043" lon="5.57592">
        <ele>344.2</ele>
        <time>2024-07-24T14:19:57Z</time>
      </trkpt>
      <trkpt lat="48.06057" lon="5.5763">
        <ele>344.1</ele>
        <time>2024-07-24T14:20:01Z</time>
      </trkpt>
      <trkpt lat="48.06081" lon="5.57707">
        <ele>344.5</ele>
        <time>2024-07-24T14:20:09Z</time>
      </trkpt>
      <trkpt lat="48.06102" lon="5.57777">
        <ele>345.4</ele>
        <time>2024-07-24T14:20:17Z</time>
      </trkpt>
      <trkpt lat="48.06126" lon="5.57854">
        <ele>346.8</ele>
        <time>2024-07-24T14:20:26Z</time>
      </trkpt>
      <trkpt lat="48.06138" lon="5.57895">
        <ele>347.7</ele>
        <time>2024-07-24T14:20:31Z</time>
      </trkpt>
      <trkpt lat="48.06145" lon="5.57918">
        <ele>348.2</ele>
        <time>2024-07-24T14:20:34Z</time>
      </trkpt>
      <trkpt lat="48.06163" lon="5.57976">
        <ele>349.8</ele>
        <time>2024-07-24T14:20:42Z</time>
      </trkpt>
      <trkpt lat="48.06183" lon="5.58023">
        <ele>351</ele>
        <time>2024-07-24T14:20:50Z</time>
      </trkpt>
      <trkpt lat="48.06211" lon="5.58073">
        <ele>351.5</ele>
        <time>2024-07-24T14:20:59Z</time>
      </trkpt>
      <trkpt lat="48.06238" lon="5.58113">
        <ele>351.7</ele>
        <time>2024-07-24T14:21:06Z</time>
      </trkpt>
      <trkpt lat="48.06267" lon="5.58156">
        <ele>352.2</ele>
        <time>2024-07-24T14:21:13Z</time>
      </trkpt>
      <trkpt lat="48.06295" lon="5.58198">
        <ele>352.7</ele>
        <time>2024-07-24T14:21:20Z</time>
      </trkpt>
      <trkpt lat="48.06332" lon="5.58258">
        <ele>353.2</ele>
        <time>2024-07-24T14:21:29Z</time>
      </trkpt>
      <trkpt lat="48.06336" lon="5.58264">
        <ele>353.3</ele>
        <time>2024-07-24T14:21:30Z</time>
      </trkpt>
      <trkpt lat="48.06364" lon="5.58308">
        <ele>354.3</ele>
        <time>2024-07-24T14:21:37Z</time>
      </trkpt>
      <trkpt lat="48.06391" lon="5.58359">
        <ele>355.2</ele>
        <time>2024-07-24T14:21:45Z</time>
      </trkpt>
      <trkpt lat="48.0641" lon="5.58411">
        <ele>355.2</ele>
        <time>2024-07-24T14:21:52Z</time>
      </trkpt>
      <trkpt lat="48.06429" lon="5.58477">
        <ele>355.1</ele>
        <time>2024-07-24T14:22:00Z</time>
      </trkpt>
      <trkpt lat="48.06435" lon="5.58493">
        <ele>355.2</ele>
        <time>2024-07-24T14:22:02Z</time>
      </trkpt>
      <trkpt lat="48.06445" lon="5.58525">
        <ele>355.2</ele>
        <time>2024-07-24T14:22:06Z</time>
      </trkpt>
      <trkpt lat="48.06457" lon="5.58559">
        <ele>355.2</ele>
        <time>2024-07-24T14:22:10Z</time>
      </trkpt>
      <trkpt lat="48.06463" lon="5.58576">
        <ele>355.3</ele>
        <time>2024-07-24T14:22:12Z</time>
      </trkpt>
      <trkpt lat="48.06484" lon="5.58624">
        <ele>355.6</ele>
        <time>2024-07-24T14:22:18Z</time>
      </trkpt>
      <trkpt lat="48.06515" lon="5.58687">
        <ele>355.9</ele>
        <time>2024-07-24T14:22:26Z</time>
      </trkpt>
      <trkpt lat="48.06544" lon="5.58744">
        <ele>356.3</ele>
        <time>2024-07-24T14:22:33Z</time>
      </trkpt>
      <trkpt lat="48.06577" lon="5.58804">
        <ele>357.2</ele>
        <time>2024-07-24T14:22:41Z</time>
      </trkpt>
      <trkpt lat="48.06612" lon="5.58856">
        <ele>358.1</ele>
        <time>2024-07-24T14:22:49Z</time>
      </trkpt>
      <trkpt lat="48.06647" lon="5.58908">
        <ele>359.5</ele>
        <time>2024-07-24T14:22:57Z</time>
      </trkpt>
      <trkpt lat="48.06671" lon="5.58943">
        <ele>360.6</ele>
        <time>2024-07-24T14:23:03Z</time>
      </trkpt>
      <trkpt lat="48.06691" lon="5.58973">
        <ele>361.3</ele>
        <time>2024-07-24T14:23:09Z</time>
      </trkpt>
      <trkpt lat="48.06694" lon="5.58978">
        <ele>361.4</ele>
        <time>2024-07-24T14:23:10Z</time>
      </trkpt>
      <trkpt lat="48.06721" lon="5.5901">
        <ele>360.7</ele>
        <time>2024-07-24T14:23:17Z</time>
      </trkpt>
      <trkpt lat="48.06751" lon="5.59043">
        <ele>360.1</ele>
        <time>2024-07-24T14:23:23Z</time>
      </trkpt>
      <trkpt lat="48.06792" lon="5.59087">
        <ele>360.2</ele>
        <time>2024-07-24T14:23:31Z</time>
      </trkpt>
      <trkpt lat="48.06831" lon="5.5913">
        <ele>360.1</ele>
        <time>2024-07-24T14:23:38Z</time>
      </trkpt>
      <trkpt lat="48.06869" lon="5.59178">
        <ele>360</ele>
        <time>2024-07-24T14:23:45Z</time>
      </trkpt>
      <trkpt lat="48.06912" lon="5.59236">
        <ele>359.3</ele>
        <time>2024-07-24T14:23:53Z</time>
      </trkpt>
      <trkpt lat="48.06952" lon="5.59292">
        <ele>358.2</ele>
        <time>2024-07-24T14:24:01Z</time>
      </trkpt>
      <trkpt lat="48.06957" lon="5.59299">
        <ele>358.2</ele>
        <time>2024-07-24T14:24:02Z</time>
      </trkpt>
      <trkpt lat="48.06996" lon="5.59352">
        <ele>357.4</ele>
        <time>2024-07-24T14:24:09Z</time>
      </trkpt>
      <trkpt lat="48.07039" lon="5.59411">
        <ele>357.2</ele>
        <time>2024-07-24T14:24:16Z</time>
      </trkpt>
      <trkpt lat="48.07045" lon="5.59419">
        <ele>357.3</ele>
        <time>2024-07-24T14:24:17Z</time>
      </trkpt>
      <trkpt lat="48.07083" lon="5.59471">
        <ele>358.8</ele>
        <time>2024-07-24T14:24:24Z</time>
      </trkpt>
      <trkpt lat="48.07108" lon="5.59506">
        <ele>359</ele>
        <time>2024-07-24T14:24:29Z</time>
      </trkpt>
      <trkpt lat="48.07114" lon="5.59512">
        <ele>359</ele>
        <time>2024-07-24T14:24:30Z</time>
      </trkpt>
      <trkpt lat="48.0714" lon="5.59541">
        <ele>358.8</ele>
        <time>2024-07-24T14:24:35Z</time>
      </trkpt>
      <trkpt lat="48.07146" lon="5.59547">
        <ele>358.7</ele>
        <time>2024-07-24T14:24:36Z</time>
      </trkpt>
      <trkpt lat="48.07189" lon="5.59594">
        <ele>358.7</ele>
        <time>2024-07-24T14:24:44Z</time>
      </trkpt>
      <trkpt lat="48.07224" lon="5.59621">
        <ele>359.1</ele>
        <time>2024-07-24T14:24:50Z</time>
      </trkpt>
      <trkpt lat="48.07272" lon="5.59653">
        <ele>358.7</ele>
        <time>2024-07-24T14:24:58Z</time>
      </trkpt>
      <trkpt lat="48.07316" lon="5.59679">
        <ele>357.8</ele>
        <time>2024-07-24T14:25:05Z</time>
      </trkpt>
      <trkpt lat="48.07352" lon="5.59682">
        <ele>357.3</ele>
        <time>2024-07-24T14:25:10Z</time>
      </trkpt>
      <trkpt lat="48.07387" lon="5.59675">
        <ele>356.8</ele>
        <time>2024-07-24T14:25:15Z</time>
      </trkpt>
      <trkpt lat="48.07427" lon="5.59666">
        <ele>355.6</ele>
        <time>2024-07-24T14:25:21Z</time>
      </trkpt>
      <trkpt lat="48.07433" lon="5.59668">
        <ele>355.2</ele>
        <time>2024-07-24T14:25:22Z</time>
      </trkpt>
      <trkpt lat="48.07441" lon="5.59671">
        <ele>354.7</ele>
        <time>2024-07-24T14:25:23Z</time>
      </trkpt>
      <trkpt lat="48.07464" lon="5.59679">
        <ele>353.1</ele>
        <time>2024-07-24T14:25:26Z</time>
      </trkpt>
      <trkpt lat="48.07521" lon="5.59714">
        <ele>348.4</ele>
        <time>2024-07-24T14:25:33Z</time>
      </trkpt>
      <trkpt lat="48.07577" lon="5.59749">
        <ele>344</ele>
        <time>2024-07-24T14:25:39Z</time>
      </trkpt>
      <trkpt lat="48.07627" lon="5.5978">
        <ele>340.9</ele>
        <time>2024-07-24T14:25:44Z</time>
      </trkpt>
      <trkpt lat="48.07686" lon="5.59818">
        <ele>337.4</ele>
        <time>2024-07-24T14:25:50Z</time>
      </trkpt>
      <trkpt lat="48.07743" lon="5.59853">
        <ele>337.2</ele>
        <time>2024-07-24T14:25:56Z</time>
      </trkpt>
      <trkpt lat="48.07761" lon="5.59864">
        <ele>337.2</ele>
        <time>2024-07-24T14:25:58Z</time>
      </trkpt>
      <trkpt lat="48.07817" lon="5.59902">
        <ele>338.2</ele>
        <time>2024-07-24T14:26:05Z</time>
      </trkpt>
      <trkpt lat="48.07865" lon="5.59939">
        <ele>339.2</ele>
        <time>2024-07-24T14:26:12Z</time>
      </trkpt>
      <trkpt lat="48.07883" lon="5.59959">
        <ele>339.6</ele>
        <time>2024-07-24T14:26:15Z</time>
      </trkpt>
      <trkpt lat="48.07892" lon="5.59975">
        <ele>339.7</ele>
        <time>2024-07-24T14:26:17Z</time>
      </trkpt>
      <trkpt lat="48.07929" lon="5.60044">
        <ele>339</ele>
        <time>2024-07-24T14:26:26Z</time>
      </trkpt>
      <trkpt lat="48.07955" lon="5.60093">
        <ele>337.6</ele>
        <time>2024-07-24T14:26:32Z</time>
      </trkpt>
      <trkpt lat="48.07966" lon="5.60107">
        <ele>337.2</ele>
        <time>2024-07-24T14:26:34Z</time>
      </trkpt>
      <trkpt lat="48.07985" lon="5.60125">
        <ele>336.6</ele>
        <time>2024-07-24T14:26:37Z</time>
      </trkpt>
      <trkpt lat="48.08005" lon="5.60134">
        <ele>336.2</ele>
        <time>2024-07-24T14:26:40Z</time>
      </trkpt>
      <trkpt lat="48.08012" lon="5.60136">
        <ele>336</ele>
        <time>2024-07-24T14:26:41Z</time>
      </trkpt>
      <trkpt lat="48.0802" lon="5.60137">
        <ele>335.9</ele>
        <time>2024-07-24T14:26:42Z</time>
      </trkpt>
      <trkpt lat="48.08043" lon="5.60131">
        <ele>335.6</ele>
        <time>2024-07-24T14:26:45Z</time>
      </trkpt>
      <trkpt lat="48.08094" lon="5.60119">
        <ele>335.3</ele>
        <time>2024-07-24T14:26:52Z</time>
      </trkpt>
      <trkpt lat="48.08109" lon="5.60121">
        <ele>335.3</ele>
        <time>2024-07-24T14:26:54Z</time>
      </trkpt>
      <trkpt lat="48.08123" lon="5.60126">
        <ele>335.3</ele>
        <time>2024-07-24T14:26:56Z</time>
      </trkpt>
      <trkpt lat="48.08147" lon="5.60153">
        <ele>335.5</ele>
        <time>2024-07-24T14:27:00Z</time>
      </trkpt>
      <trkpt lat="48.08196" lon="5.60206">
        <ele>336.2</ele>
        <time>2024-07-24T14:27:08Z</time>
      </trkpt>
      <trkpt lat="48.08202" lon="5.60213">
        <ele>336.3</ele>
        <time>2024-07-24T14:27:09Z</time>
      </trkpt>
      <trkpt lat="48.08241" lon="5.60254">
        <ele>336.9</ele>
        <time>2024-07-24T14:27:16Z</time>
      </trkpt>
      <trkpt lat="48.08288" lon="5.60304">
        <ele>337.9</ele>
        <time>2024-07-24T14:27:25Z</time>
      </trkpt>
      <trkpt lat="48.08318" lon="5.60316">
        <ele>338.2</ele>
        <time>2024-07-24T14:27:30Z</time>
      </trkpt>
      <trkpt lat="48.08362" lon="5.60318">
        <ele>338.3</ele>
        <time>2024-07-24T14:27:37Z</time>
      </trkpt>
      <trkpt lat="48.08412" lon="5.60315">
        <ele>338.8</ele>
        <time>2024-07-24T14:27:45Z</time>
      </trkpt>
      <trkpt lat="48.08446" lon="5.60305">
        <ele>339.4</ele>
        <time>2024-07-24T14:27:51Z</time>
      </trkpt>
      <trkpt lat="48.08491" lon="5.60291">
        <ele>340.8</ele>
        <time>2024-07-24T14:27:59Z</time>
      </trkpt>
      <trkpt lat="48.08501" lon="5.60293">
        <ele>341</ele>
        <time>2024-07-24T14:28:01Z</time>
      </trkpt>
      <trkpt lat="48.0851" lon="5.60297">
        <ele>341.2</ele>
        <time>2024-07-24T14:28:03Z</time>
      </trkpt>
      <trkpt lat="48.08523" lon="5.60309">
        <ele>341.3</ele>
        <time>2024-07-24T14:28:06Z</time>
      </trkpt>
      <trkpt lat="48.0853" lon="5.60319">
        <ele>341.4</ele>
        <time>2024-07-24T14:28:08Z</time>
      </trkpt>
      <trkpt lat="48.08542" lon="5.60332">
        <ele>341.1</ele>
        <time>2024-07-24T14:28:11Z</time>
      </trkpt>
      <trkpt lat="48.08551" lon="5.6034">
        <ele>340.7</ele>
        <time>2024-07-24T14:28:13Z</time>
      </trkpt>
      <trkpt lat="48.08584" lon="5.60359">
        <ele>339.4</ele>
        <time>2024-07-24T14:28:19Z</time>
      </trkpt>
      <trkpt lat="48.08635" lon="5.60383">
        <ele>337.5</ele>
        <time>2024-07-24T14:28:26Z</time>
      </trkpt>
      <trkpt lat="48.08692" lon="5.60409">
        <ele>337.2</ele>
        <time>2024-07-24T14:28:34Z</time>
      </trkpt>
      <trkpt lat="48.08748" lon="5.60435">
        <ele>337.6</ele>
        <time>2024-07-24T14:28:42Z</time>
      </trkpt>
      <trkpt lat="48.08763" lon="5.60442">
        <ele>337.6</ele>
        <time>2024-07-24T14:28:44Z</time>
      </trkpt>
      <trkpt lat="48.088" lon="5.60463">
        <ele>337.7</ele>
        <time>2024-07-24T14:28:50Z</time>
      </trkpt>
      <trkpt lat="48.08818" lon="5.60476">
        <ele>337.9</ele>
        <time>2024-07-24T14:28:53Z</time>
      </trkpt>
      <trkpt lat="48.08828" lon="5.60489">
        <ele>337.8</ele>
        <time>2024-07-24T14:28:55Z</time>
      </trkpt>
      <trkpt lat="48.08857" lon="5.60545">
        <ele>337.9</ele>
        <time>2024-07-24T14:29:02Z</time>
      </trkpt>
      <trkpt lat="48.08889" lon="5.60609">
        <ele>336.2</ele>
        <time>2024-07-24T14:29:10Z</time>
      </trkpt>
      <trkpt lat="48.0892" lon="5.60672">
        <ele>333.1</ele>
        <time>2024-07-24T14:29:17Z</time>
      </trkpt>
      <trkpt lat="48.08954" lon="5.60721">
        <ele>330.3</ele>
        <time>2024-07-24T14:29:23Z</time>
      </trkpt>
      <trkpt lat="48.08986" lon="5.60755">
        <ele>327.8</ele>
        <time>2024-07-24T14:29:28Z</time>
      </trkpt>
      <trkpt lat="48.09029" lon="5.60796">
        <ele>325.7</ele>
        <time>2024-07-24T14:29:35Z</time>
      </trkpt>
      <trkpt lat="48.0906" lon="5.60823">
        <ele>324.4</ele>
        <time>2024-07-24T14:29:40Z</time>
      </trkpt>
      <trkpt lat="48.091" lon="5.60857">
        <ele>323.5</ele>
        <time>2024-07-24T14:29:47Z</time>
      </trkpt>
      <trkpt lat="48.09117" lon="5.60872">
        <ele>323.2</ele>
        <time>2024-07-24T14:29:50Z</time>
      </trkpt>
      <trkpt lat="48.09129" lon="5.60875">
        <ele>323.1</ele>
        <time>2024-07-24T14:29:52Z</time>
      </trkpt>
      <trkpt lat="48.09173" lon="5.6089">
        <ele>323</ele>
        <time>2024-07-24T14:29:59Z</time>
      </trkpt>
      <trkpt lat="48.0918" lon="5.60892">
        <ele>323.1</ele>
        <time>2024-07-24T14:30:00Z</time>
      </trkpt>
      <trkpt lat="48.09195" lon="5.60906">
        <ele>323.2</ele>
        <time>2024-07-24T14:30:03Z</time>
      </trkpt>
      <trkpt lat="48.09202" lon="5.60916">
        <ele>323.2</ele>
        <time>2024-07-24T14:30:05Z</time>
      </trkpt>
      <trkpt lat="48.09213" lon="5.60912">
        <ele>323</ele>
        <time>2024-07-24T14:30:07Z</time>
      </trkpt>
      <trkpt lat="48.09231" lon="5.60891">
        <ele>322.8</ele>
        <time>2024-07-24T14:30:11Z</time>
      </trkpt>
      <trkpt lat="48.09265" lon="5.60852">
        <ele>323.1</ele>
        <time>2024-07-24T14:30:18Z</time>
      </trkpt>
      <trkpt lat="48.09277" lon="5.60838">
        <ele>323.3</ele>
        <time>2024-07-24T14:30:21Z</time>
      </trkpt>
      <trkpt lat="48.0928" lon="5.60835">
        <ele>323.4</ele>
        <time>2024-07-24T14:30:22Z</time>
      </trkpt>
      <trkpt lat="48.09285" lon="5.60839">
        <ele>323.4</ele>
        <time>2024-07-24T14:30:23Z</time>
      </trkpt>
      <trkpt lat="48.09293" lon="5.60846">
        <ele>323.4</ele>
        <time>2024-07-24T14:30:25Z</time>
      </trkpt>
      <trkpt lat="48.09308" lon="5.60869">
        <ele>323.5</ele>
        <time>2024-07-24T14:30:29Z</time>
      </trkpt>
      <trkpt lat="48.09318" lon="5.60885">
        <ele>323.7</ele>
        <time>2024-07-24T14:30:32Z</time>
      </trkpt>
      <trkpt lat="48.09326" lon="5.60887">
        <ele>323.8</ele>
        <time>2024-07-24T14:30:34Z</time>
      </trkpt>
      <trkpt lat="48.09335" lon="5.60888">
        <ele>323.8</ele>
        <time>2024-07-24T14:30:36Z</time>
      </trkpt>
      <trkpt lat="48.09337" lon="5.60882">
        <ele>323.7</ele>
        <time>2024-07-24T14:30:37Z</time>
      </trkpt>
      <trkpt lat="48.09339" lon="5.60875">
        <ele>323.6</ele>
        <time>2024-07-24T14:30:38Z</time>
      </trkpt>
      <trkpt lat="48.09344" lon="5.60852">
        <ele>323.3</ele>
        <time>2024-07-24T14:30:41Z</time>
      </trkpt>
      <trkpt lat="48.09347" lon="5.60842">
        <ele>323.1</ele>
        <time>2024-07-24T14:30:42Z</time>
      </trkpt>
      <trkpt lat="48.09361" lon="5.60812">
        <ele>322.9</ele>
        <time>2024-07-24T14:30:46Z</time>
      </trkpt>
      <trkpt lat="48.0938" lon="5.60768">
        <ele>322.8</ele>
        <time>2024-07-24T14:30:52Z</time>
      </trkpt>
      <trkpt lat="48.09397" lon="5.60712">
        <ele>323.1</ele>
        <time>2024-07-24T14:30:59Z</time>
      </trkpt>
      <trkpt lat="48.09413" lon="5.60655">
        <ele>324.1</ele>
        <time>2024-07-24T14:31:06Z</time>
      </trkpt>
      <trkpt lat="48.09428" lon="5.60621">
        <ele>325.4</ele>
        <time>2024-07-24T14:31:12Z</time>
      </trkpt>
      <trkpt lat="48.09433" lon="5.60618">
        <ele>325.9</ele>
        <time>2024-07-24T14:31:14Z</time>
      </trkpt>
      <trkpt lat="48.09435" lon="5.60621">
        <ele>325.9</ele>
        <time>2024-07-24T14:31:15Z</time>
      </trkpt>
      <trkpt lat="48.09449" lon="5.60641">
        <ele>326.3</ele>
        <time>2024-07-24T14:31:20Z</time>
      </trkpt>
      <trkpt lat="48.0946" lon="5.60657">
        <ele>326.6</ele>
        <time>2024-07-24T14:31:24Z</time>
      </trkpt>
      <trkpt lat="48.09468" lon="5.60669">
        <ele>326.8</ele>
        <time>2024-07-24T14:31:27Z</time>
      </trkpt>
      <trkpt lat="48.09495" lon="5.60694">
        <ele>327.5</ele>
        <time>2024-07-24T14:31:34Z</time>
      </trkpt>
      <trkpt lat="48.09521" lon="5.60711">
        <ele>328.1</ele>
        <time>2024-07-24T14:31:40Z</time>
      </trkpt>
      <trkpt lat="48.09558" lon="5.60726">
        <ele>328.9</ele>
        <time>2024-07-24T14:31:48Z</time>
      </trkpt>
      <trkpt lat="48.09584" lon="5.60736">
        <ele>329.4</ele>
        <time>2024-07-24T14:31:54Z</time>
      </trkpt>
      <trkpt lat="48.09593" lon="5.60741">
        <ele>329.6</ele>
        <time>2024-07-24T14:31:56Z</time>
      </trkpt>
      <trkpt lat="48.09597" lon="5.60744">
        <ele>329.7</ele>
        <time>2024-07-24T14:31:57Z</time>
      </trkpt>
      <trkpt lat="48.09626" lon="5.60764">
        <ele>330.4</ele>
        <time>2024-07-24T14:32:04Z</time>
      </trkpt>
      <trkpt lat="48.09649" lon="5.60785">
        <ele>330.8</ele>
        <time>2024-07-24T14:32:10Z</time>
      </trkpt>
      <trkpt lat="48.09653" lon="5.6079">
        <ele>330.9</ele>
        <time>2024-07-24T14:32:11Z</time>
      </trkpt>
      <trkpt lat="48.09685" lon="5.60825">
        <ele>331.7</ele>
        <time>2024-07-24T14:32:19Z</time>
      </trkpt>
      <trkpt lat="48.09692" lon="5.60835">
        <ele>331.9</ele>
        <time>2024-07-24T14:32:21Z</time>
      </trkpt>
      <trkpt lat="48.09701" lon="5.60849">
        <ele>332.2</ele>
        <time>2024-07-24T14:32:24Z</time>
      </trkpt>
      <trkpt lat="48.0971" lon="5.60864">
        <ele>332.5</ele>
        <time>2024-07-24T14:32:27Z</time>
      </trkpt>
      <trkpt lat="48.0972" lon="5.6088">
        <ele>332.7</ele>
        <time>2024-07-24T14:32:30Z</time>
      </trkpt>
      <trkpt lat="48.09729" lon="5.60895">
        <ele>332.7</ele>
        <time>2024-07-24T14:32:33Z</time>
      </trkpt>
      <trkpt lat="48.09735" lon="5.60905">
        <ele>332.7</ele>
        <time>2024-07-24T14:32:35Z</time>
      </trkpt>
      <trkpt lat="48.09748" lon="5.60926">
        <ele>332.6</ele>
        <time>2024-07-24T14:32:39Z</time>
      </trkpt>
      <trkpt lat="48.09755" lon="5.60938">
        <ele>332.6</ele>
        <time>2024-07-24T14:32:41Z</time>
      </trkpt>
      <trkpt lat="48.09783" lon="5.60984">
        <ele>332.4</ele>
        <time>2024-07-24T14:32:49Z</time>
      </trkpt>
      <trkpt lat="48.09812" lon="5.6103">
        <ele>332.4</ele>
        <time>2024-07-24T14:32:57Z</time>
      </trkpt>
      <trkpt lat="48.09836" lon="5.61069">
        <ele>332.4</ele>
        <time>2024-07-24T14:33:05Z</time>
      </trkpt>
      <trkpt lat="48.09845" lon="5.61078">
        <ele>332.5</ele>
        <time>2024-07-24T14:33:07Z</time>
      </trkpt>
      <trkpt lat="48.09858" lon="5.61091">
        <ele>332.5</ele>
        <time>2024-07-24T14:33:10Z</time>
      </trkpt>
      <trkpt lat="48.09894" lon="5.61129">
        <ele>331.8</ele>
        <time>2024-07-24T14:33:18Z</time>
      </trkpt>
      <trkpt lat="48.09927" lon="5.61174">
        <ele>330.8</ele>
        <time>2024-07-24T14:33:25Z</time>
      </trkpt>
      <trkpt lat="48.09939" lon="5.61193">
        <ele>330.8</ele>
        <time>2024-07-24T14:33:29Z</time>
      </trkpt>
      <trkpt lat="48.09937" lon="5.61187">
        <ele>330.9</ele>
        <time>2024-07-24T14:33:31Z</time>
      </trkpt>
      <trkpt lat="48.09937" lon="5.61187">
        <ele>330.9</ele>
        <time>2024-07-24T14:33:32Z</time>
      </trkpt>
      <trkpt lat="48.09937" lon="5.61187">
        <ele>330.9</ele>
        <time>2024-07-24T14:33:34Z</time>
      </trkpt>
      <trkpt lat="48.09961" lon="5.61245">
        <ele>331.4</ele>
        <time>2024-07-24T14:39:11Z</time>
      </trkpt>
      <trkpt lat="48.09951" lon="5.6122">
        <ele>331.2</ele>
        <time>2024-07-24T14:39:17Z</time>
      </trkpt>
      <trkpt lat="48.09936" lon="5.61186">
        <ele>330.8</ele>
        <time>2024-07-24T14:39:23Z</time>
      </trkpt>
      <trkpt lat="48.09914" lon="5.61156">
        <ele>330.9</ele>
        <time>2024-07-24T14:39:30Z</time>
      </trkpt>
      <trkpt lat="48.09889" lon="5.61123">
        <ele>331.9</ele>
        <time>2024-07-24T14:39:38Z</time>
      </trkpt>
      <trkpt lat="48.09866" lon="5.61099">
        <ele>332.4</ele>
        <time>2024-07-24T14:39:45Z</time>
      </trkpt>
      <trkpt lat="48.09846" lon="5.61079">
        <ele>332.5</ele>
        <time>2024-07-24T14:39:51Z</time>
      </trkpt>
      <trkpt lat="48.09842" lon="5.61075">
        <ele>332.5</ele>
        <time>2024-07-24T14:39:52Z</time>
      </trkpt>
      <trkpt lat="48.0982" lon="5.61071">
        <ele>331.8</ele>
        <time>2024-07-24T14:39:57Z</time>
      </trkpt>
      <trkpt lat="48.09783" lon="5.61075">
        <ele>329.9</ele>
        <time>2024-07-24T14:40:04Z</time>
      </trkpt>
      <trkpt lat="48.09735" lon="5.61081">
        <ele>327</ele>
        <time>2024-07-24T14:40:11Z</time>
      </trkpt>
      <trkpt lat="48.09678" lon="5.61087">
        <ele>324.2</ele>
        <time>2024-07-24T14:40:18Z</time>
      </trkpt>
      <trkpt lat="48.0967" lon="5.61089">
        <ele>324</ele>
        <time>2024-07-24T14:40:19Z</time>
      </trkpt>
      <trkpt lat="48.09654" lon="5.61096">
        <ele>323.8</ele>
        <time>2024-07-24T14:40:21Z</time>
      </trkpt>
      <trkpt lat="48.09649" lon="5.61104">
        <ele>323.9</ele>
        <time>2024-07-24T14:40:22Z</time>
      </trkpt>
      <trkpt lat="48.09644" lon="5.61112">
        <ele>324.1</ele>
        <time>2024-07-24T14:40:23Z</time>
      </trkpt>
      <trkpt lat="48.09625" lon="5.61141">
        <ele>325.5</ele>
        <time>2024-07-24T14:40:27Z</time>
      </trkpt>
      <trkpt lat="48.09604" lon="5.61178">
        <ele>327.7</ele>
        <time>2024-07-24T14:40:33Z</time>
      </trkpt>
      <trkpt lat="48.09593" lon="5.612">
        <ele>328.8</ele>
        <time>2024-07-24T14:40:38Z</time>
      </trkpt>
      <trkpt lat="48.09578" lon="5.61226">
        <ele>330.1</ele>
        <time>2024-07-24T14:40:45Z</time>
      </trkpt>
      <trkpt lat="48.09561" lon="5.61252">
        <ele>331.3</ele>
        <time>2024-07-24T14:40:51Z</time>
      </trkpt>
      <trkpt lat="48.09533" lon="5.61285">
        <ele>333.3</ele>
        <time>2024-07-24T14:40:58Z</time>
      </trkpt>
      <trkpt lat="48.09525" lon="5.61294">
        <ele>333.8</ele>
        <time>2024-07-24T14:41:00Z</time>
      </trkpt>
      <trkpt lat="48.0952" lon="5.61307">
        <ele>334.2</ele>
        <time>2024-07-24T14:41:02Z</time>
      </trkpt>
      <trkpt lat="48.09511" lon="5.6135">
        <ele>334.6</ele>
        <time>2024-07-24T14:41:08Z</time>
      </trkpt>
      <trkpt lat="48.09509" lon="5.61357">
        <ele>334.6</ele>
        <time>2024-07-24T14:41:09Z</time>
      </trkpt>
      <trkpt lat="48.09504" lon="5.61369">
        <ele>334.6</ele>
        <time>2024-07-24T14:41:11Z</time>
      </trkpt>
      <trkpt lat="48.09478" lon="5.61392">
        <ele>334.9</ele>
        <time>2024-07-24T14:41:17Z</time>
      </trkpt>
      <trkpt lat="48.09465" lon="5.61404">
        <ele>335.1</ele>
        <time>2024-07-24T14:41:22Z</time>
      </trkpt>
      <trkpt lat="48.09466" lon="5.61426">
        <ele>335.4</ele>
        <time>2024-07-24T14:41:26Z</time>
      </trkpt>
      <trkpt lat="48.09478" lon="5.61464">
        <ele>336</ele>
        <time>2024-07-24T14:41:32Z</time>
      </trkpt>
      <trkpt lat="48.09501" lon="5.61538">
        <ele>337.3</ele>
        <time>2024-07-24T14:41:42Z</time>
      </trkpt>
      <trkpt lat="48.0952" lon="5.61598">
        <ele>338.6</ele>
        <time>2024-07-24T14:41:50Z</time>
      </trkpt>
      <trkpt lat="48.09541" lon="5.61644">
        <ele>339.5</ele>
        <time>2024-07-24T14:41:57Z</time>
      </trkpt>
      <trkpt lat="48.09569" lon="5.61691">
        <ele>340.5</ele>
        <time>2024-07-24T14:42:05Z</time>
      </trkpt>
      <trkpt lat="48.09601" lon="5.61746">
        <ele>341.2</ele>
        <time>2024-07-24T14:42:14Z</time>
      </trkpt>
      <trkpt lat="48.0962" lon="5.61805">
        <ele>341.7</ele>
        <time>2024-07-24T14:42:22Z</time>
      </trkpt>
      <trkpt lat="48.09629" lon="5.61865">
        <ele>341.8</ele>
        <time>2024-07-24T14:42:29Z</time>
      </trkpt>
      <trkpt lat="48.09641" lon="5.6194">
        <ele>342.6</ele>
        <time>2024-07-24T14:42:38Z</time>
      </trkpt>
      <trkpt lat="48.0965" lon="5.62005">
        <ele>343.6</ele>
        <time>2024-07-24T14:42:46Z</time>
      </trkpt>
      <trkpt lat="48.09671" lon="5.62069">
        <ele>344.4</ele>
        <time>2024-07-24T14:42:55Z</time>
      </trkpt>
      <trkpt lat="48.09693" lon="5.62128">
        <ele>344.4</ele>
        <time>2024-07-24T14:43:03Z</time>
      </trkpt>
      <trkpt lat="48.09719" lon="5.62188">
        <ele>343.8</ele>
        <time>2024-07-24T14:43:11Z</time>
      </trkpt>
      <trkpt lat="48.09751" lon="5.62262">
        <ele>342.2</ele>
        <time>2024-07-24T14:43:20Z</time>
      </trkpt>
      <trkpt lat="48.09783" lon="5.62335">
        <ele>339.3</ele>
        <time>2024-07-24T14:43:28Z</time>
      </trkpt>
      <trkpt lat="48.09806" lon="5.62416">
        <ele>336.2</ele>
        <time>2024-07-24T14:43:35Z</time>
      </trkpt>
      <trkpt lat="48.09828" lon="5.62502">
        <ele>334.7</ele>
        <time>2024-07-24T14:43:42Z</time>
      </trkpt>
      <trkpt lat="48.09834" lon="5.62525">
        <ele>334.7</ele>
        <time>2024-07-24T14:43:44Z</time>
      </trkpt>
      <trkpt lat="48.09856" lon="5.62608">
        <ele>335.8</ele>
        <time>2024-07-24T14:43:52Z</time>
      </trkpt>
      <trkpt lat="48.09877" lon="5.62687">
        <ele>336.8</ele>
        <time>2024-07-24T14:44:00Z</time>
      </trkpt>
      <trkpt lat="48.09882" lon="5.62707">
        <ele>336.9</ele>
        <time>2024-07-24T14:44:02Z</time>
      </trkpt>
      <trkpt lat="48.09898" lon="5.6277">
        <ele>337.2</ele>
        <time>2024-07-24T14:44:09Z</time>
      </trkpt>
      <trkpt lat="48.09918" lon="5.62848">
        <ele>337</ele>
        <time>2024-07-24T14:44:17Z</time>
      </trkpt>
      <trkpt lat="48.09938" lon="5.62931">
        <ele>336.5</ele>
        <time>2024-07-24T14:44:25Z</time>
      </trkpt>
      <trkpt lat="48.09939" lon="5.62942">
        <ele>336.4</ele>
        <time>2024-07-24T14:44:26Z</time>
      </trkpt>
      <trkpt lat="48.09943" lon="5.63003">
        <ele>336.3</ele>
        <time>2024-07-24T14:44:32Z</time>
      </trkpt>
      <trkpt lat="48.0994" lon="5.63066">
        <ele>336.2</ele>
        <time>2024-07-24T14:44:38Z</time>
      </trkpt>
      <trkpt lat="48.09927" lon="5.6313">
        <ele>336.5</ele>
        <time>2024-07-24T14:44:44Z</time>
      </trkpt>
      <trkpt lat="48.09907" lon="5.63211">
        <ele>337.6</ele>
        <time>2024-07-24T14:44:52Z</time>
      </trkpt>
      <trkpt lat="48.09904" lon="5.6322">
        <ele>337.7</ele>
        <time>2024-07-24T14:44:53Z</time>
      </trkpt>
      <trkpt lat="48.09891" lon="5.63272">
        <ele>338.9</ele>
        <time>2024-07-24T14:44:59Z</time>
      </trkpt>
      <trkpt lat="48.09882" lon="5.63338">
        <ele>340.4</ele>
        <time>2024-07-24T14:45:07Z</time>
      </trkpt>
      <trkpt lat="48.09882" lon="5.63413">
        <ele>342.6</ele>
        <time>2024-07-24T14:45:16Z</time>
      </trkpt>
      <trkpt lat="48.09888" lon="5.63475">
        <ele>344.6</ele>
        <time>2024-07-24T14:45:24Z</time>
      </trkpt>
      <trkpt lat="48.09895" lon="5.63525">
        <ele>346.2</ele>
        <time>2024-07-24T14:45:31Z</time>
      </trkpt>
      <trkpt lat="48.09907" lon="5.63604">
        <ele>348.3</ele>
        <time>2024-07-24T14:45:43Z</time>
      </trkpt>
      <trkpt lat="48.09917" lon="5.63665">
        <ele>349.4</ele>
        <time>2024-07-24T14:45:52Z</time>
      </trkpt>
      <trkpt lat="48.09927" lon="5.63728">
        <ele>350.1</ele>
        <time>2024-07-24T14:46:01Z</time>
      </trkpt>
      <trkpt lat="48.09936" lon="5.63787">
        <ele>350.4</ele>
        <time>2024-07-24T14:46:09Z</time>
      </trkpt>
      <trkpt lat="48.09948" lon="5.63858">
        <ele>350.2</ele>
        <time>2024-07-24T14:46:18Z</time>
      </trkpt>
      <trkpt lat="48.09956" lon="5.63924">
        <ele>349.2</ele>
        <time>2024-07-24T14:46:25Z</time>
      </trkpt>
      <trkpt lat="48.09957" lon="5.64005">
        <ele>347.2</ele>
        <time>2024-07-24T14:46:33Z</time>
      </trkpt>
      <trkpt lat="48.09958" lon="5.64091">
        <ele>345.8</ele>
        <time>2024-07-24T14:46:41Z</time>
      </trkpt>
      <trkpt lat="48.09958" lon="5.64102">
        <ele>345.7</ele>
        <time>2024-07-24T14:46:42Z</time>
      </trkpt>
      <trkpt lat="48.09959" lon="5.6417">
        <ele>346.1</ele>
        <time>2024-07-24T14:46:49Z</time>
      </trkpt>
      <trkpt lat="48.0996" lon="5.64235">
        <ele>346.9</ele>
        <time>2024-07-24T14:46:57Z</time>
      </trkpt>
      <trkpt lat="48.09962" lon="5.64321">
        <ele>347.5</ele>
        <time>2024-07-24T14:47:07Z</time>
      </trkpt>
      <trkpt lat="48.09962" lon="5.6433">
        <ele>347.5</ele>
        <time>2024-07-24T14:47:08Z</time>
      </trkpt>
      <trkpt lat="48.09961" lon="5.64411">
        <ele>348.1</ele>
        <time>2024-07-24T14:47:17Z</time>
      </trkpt>
      <trkpt lat="48.09961" lon="5.64438">
        <ele>348.5</ele>
        <time>2024-07-24T14:47:20Z</time>
      </trkpt>
      <trkpt lat="48.0996" lon="5.64456">
        <ele>348.8</ele>
        <time>2024-07-24T14:47:22Z</time>
      </trkpt>
      <trkpt lat="48.09958" lon="5.64514">
        <ele>350.2</ele>
        <time>2024-07-24T14:47:29Z</time>
      </trkpt>
      <trkpt lat="48.09955" lon="5.64572">
        <ele>352</ele>
        <time>2024-07-24T14:47:37Z</time>
      </trkpt>
      <trkpt lat="48.09951" lon="5.64632">
        <ele>353.9</ele>
        <time>2024-07-24T14:47:46Z</time>
      </trkpt>
      <trkpt lat="48.0994" lon="5.64695">
        <ele>355.8</ele>
        <time>2024-07-24T14:47:56Z</time>
      </trkpt>
      <trkpt lat="48.09925" lon="5.64752">
        <ele>357</ele>
        <time>2024-07-24T14:48:05Z</time>
      </trkpt>
      <trkpt lat="48.09913" lon="5.64799">
        <ele>358.1</ele>
        <time>2024-07-24T14:48:12Z</time>
      </trkpt>
      <trkpt lat="48.09903" lon="5.64848">
        <ele>359.1</ele>
        <time>2024-07-24T14:48:20Z</time>
      </trkpt>
      <trkpt lat="48.09897" lon="5.64912">
        <ele>359.9</ele>
        <time>2024-07-24T14:48:29Z</time>
      </trkpt>
      <trkpt lat="48.09891" lon="5.6498">
        <ele>360.3</ele>
        <time>2024-07-24T14:48:38Z</time>
      </trkpt>
      <trkpt lat="48.09885" lon="5.65043">
        <ele>360.5</ele>
        <time>2024-07-24T14:48:46Z</time>
      </trkpt>
      <trkpt lat="48.09877" lon="5.65125">
        <ele>360.6</ele>
        <time>2024-07-24T14:48:56Z</time>
      </trkpt>
      <trkpt lat="48.09872" lon="5.65167">
        <ele>360.8</ele>
        <time>2024-07-24T14:49:02Z</time>
      </trkpt>
      <trkpt lat="48.09867" lon="5.65205">
        <ele>360.9</ele>
        <time>2024-07-24T14:49:09Z</time>
      </trkpt>
      <trkpt lat="48.09861" lon="5.65245">
        <ele>360.9</ele>
        <time>2024-07-24T14:49:15Z</time>
      </trkpt>
      <trkpt lat="48.0986" lon="5.65251">
        <ele>360.9</ele>
        <time>2024-07-24T14:49:16Z</time>
      </trkpt>
      <trkpt lat="48.09856" lon="5.65275">
        <ele>361</ele>
        <time>2024-07-24T14:49:21Z</time>
      </trkpt>
      <trkpt lat="48.09856" lon="5.65279">
        <ele>361</ele>
        <time>2024-07-24T14:49:25Z</time>
      </trkpt>
      <trkpt lat="48.09852" lon="5.65283">
        <ele>361</ele>
        <time>2024-07-24T14:49:30Z</time>
      </trkpt>
      <trkpt lat="48.09839" lon="5.65283">
        <ele>360.6</ele>
        <time>2024-07-24T14:49:37Z</time>
      </trkpt>
      <trkpt lat="48.09839" lon="5.65283">
        <ele>360.6</ele>
        <time>2024-07-24T14:49:38Z</time>
      </trkpt>
      <trkpt lat="48.09838" lon="5.6529">
        <ele>360.6</ele>
        <time>2024-07-24T14:49:51Z</time>
      </trkpt>
      <trkpt lat="48.09841" lon="5.65283">
        <ele>360.7</ele>
        <time>2024-07-24T14:49:53Z</time>
      </trkpt>
      <trkpt lat="48.09855" lon="5.65283">
        <ele>361</ele>
        <time>2024-07-24T14:49:58Z</time>
      </trkpt>
      <trkpt lat="48.09862" lon="5.65284">
        <ele>360.9</ele>
        <time>2024-07-24T14:50:00Z</time>
      </trkpt>
      <trkpt lat="48.09876" lon="5.65284">
        <ele>360.7</ele>
        <time>2024-07-24T14:50:03Z</time>
      </trkpt>
      <trkpt lat="48.09914" lon="5.65287">
        <ele>360.4</ele>
        <time>2024-07-24T14:50:10Z</time>
      </trkpt>
      <trkpt lat="48.09925" lon="5.6529">
        <ele>360.4</ele>
        <time>2024-07-24T14:50:12Z</time>
      </trkpt>
      <trkpt lat="48.09935" lon="5.65296">
        <ele>360.4</ele>
        <time>2024-07-24T14:50:14Z</time>
      </trkpt>
      <trkpt lat="48.09939" lon="5.65299">
        <ele>360.4</ele>
        <time>2024-07-24T14:50:15Z</time>
      </trkpt>
      <trkpt lat="48.09942" lon="5.65304">
        <ele>360.4</ele>
        <time>2024-07-24T14:50:16Z</time>
      </trkpt>
      <trkpt lat="48.09947" lon="5.65316">
        <ele>360.4</ele>
        <time>2024-07-24T14:50:18Z</time>
      </trkpt>
      <trkpt lat="48.09948" lon="5.65324">
        <ele>360.4</ele>
        <time>2024-07-24T14:50:19Z</time>
      </trkpt>
      <trkpt lat="48.09948" lon="5.65332">
        <ele>360.4</ele>
        <time>2024-07-24T14:50:20Z</time>
      </trkpt>
      <trkpt lat="48.09949" lon="5.65357">
        <ele>360.6</ele>
        <time>2024-07-24T14:50:23Z</time>
      </trkpt>
      <trkpt lat="48.09942" lon="5.65411">
        <ele>360.9</ele>
        <time>2024-07-24T14:50:30Z</time>
      </trkpt>
      <trkpt lat="48.09933" lon="5.65477">
        <ele>361.2</ele>
        <time>2024-07-24T14:50:38Z</time>
      </trkpt>
      <trkpt lat="48.09924" lon="5.65544">
        <ele>361.9</ele>
        <time>2024-07-24T14:50:46Z</time>
      </trkpt>
      <trkpt lat="48.09926" lon="5.65567">
        <ele>362.5</ele>
        <time>2024-07-24T14:50:49Z</time>
      </trkpt>
      <trkpt lat="48.09929" lon="5.65591">
        <ele>363.2</ele>
        <time>2024-07-24T14:50:52Z</time>
      </trkpt>
      <trkpt lat="48.09933" lon="5.65605">
        <ele>363.6</ele>
        <time>2024-07-24T14:50:54Z</time>
      </trkpt>
      <trkpt lat="48.09943" lon="5.65625">
        <ele>364.1</ele>
        <time>2024-07-24T14:50:57Z</time>
      </trkpt>
      <trkpt lat="48.09953" lon="5.65643">
        <ele>364.7</ele>
        <time>2024-07-24T14:51:00Z</time>
      </trkpt>
      <trkpt lat="48.09963" lon="5.65658">
        <ele>365.2</ele>
        <time>2024-07-24T14:51:03Z</time>
      </trkpt>
      <trkpt lat="48.09979" lon="5.65671">
        <ele>366</ele>
        <time>2024-07-24T14:51:07Z</time>
      </trkpt>
      <trkpt lat="48.09987" lon="5.65677">
        <ele>366.4</ele>
        <time>2024-07-24T14:51:09Z</time>
      </trkpt>
      <trkpt lat="48.10015" lon="5.65699">
        <ele>367.4</ele>
        <time>2024-07-24T14:51:16Z</time>
      </trkpt>
      <trkpt lat="48.10051" lon="5.65728">
        <ele>367.7</ele>
        <time>2024-07-24T14:51:24Z</time>
      </trkpt>
      <trkpt lat="48.10074" lon="5.65761">
        <ele>367.8</ele>
        <time>2024-07-24T14:51:30Z</time>
      </trkpt>
      <trkpt lat="48.10092" lon="5.65807">
        <ele>368</ele>
        <time>2024-07-24T14:51:36Z</time>
      </trkpt>
      <trkpt lat="48.10109" lon="5.65879">
        <ele>368</ele>
        <time>2024-07-24T14:51:44Z</time>
      </trkpt>
      <trkpt lat="48.10116" lon="5.65943">
        <ele>367.6</ele>
        <time>2024-07-24T14:51:51Z</time>
      </trkpt>
      <trkpt lat="48.10125" lon="5.6603">
        <ele>367</ele>
        <time>2024-07-24T14:52:00Z</time>
      </trkpt>
      <trkpt lat="48.10133" lon="5.66112">
        <ele>367</ele>
        <time>2024-07-24T14:52:09Z</time>
      </trkpt>
      <trkpt lat="48.10142" lon="5.66193">
        <ele>367.1</ele>
        <time>2024-07-24T14:52:18Z</time>
      </trkpt>
      <trkpt lat="48.10152" lon="5.66243">
        <ele>367.2</ele>
        <time>2024-07-24T14:52:24Z</time>
      </trkpt>
      <trkpt lat="48.10171" lon="5.66285">
        <ele>367.4</ele>
        <time>2024-07-24T14:52:30Z</time>
      </trkpt>
      <trkpt lat="48.10203" lon="5.66321">
        <ele>367.7</ele>
        <time>2024-07-24T14:52:37Z</time>
      </trkpt>
      <trkpt lat="48.10252" lon="5.66366">
        <ele>368.4</ele>
        <time>2024-07-24T14:52:47Z</time>
      </trkpt>
      <trkpt lat="48.10257" lon="5.66371">
        <ele>368.4</ele>
        <time>2024-07-24T14:52:48Z</time>
      </trkpt>
      <trkpt lat="48.10294" lon="5.66404">
        <ele>368.7</ele>
        <time>2024-07-24T14:52:55Z</time>
      </trkpt>
      <trkpt lat="48.10339" lon="5.66446">
        <ele>369.1</ele>
        <time>2024-07-24T14:53:04Z</time>
      </trkpt>
      <trkpt lat="48.1038" lon="5.66487">
        <ele>369.2</ele>
        <time>2024-07-24T14:53:12Z</time>
      </trkpt>
      <trkpt lat="48.1041" lon="5.6652">
        <ele>369.2</ele>
        <time>2024-07-24T14:53:19Z</time>
      </trkpt>
      <trkpt lat="48.1044" lon="5.66552">
        <ele>368.8</ele>
        <time>2024-07-24T14:53:26Z</time>
      </trkpt>
      <trkpt lat="48.10452" lon="5.66561">
        <ele>368.7</ele>
        <time>2024-07-24T14:53:28Z</time>
      </trkpt>
      <trkpt lat="48.10457" lon="5.66559">
        <ele>368.5</ele>
        <time>2024-07-24T14:53:29Z</time>
      </trkpt>
      <trkpt lat="48.10467" lon="5.66554">
        <ele>368.3</ele>
        <time>2024-07-24T14:53:31Z</time>
      </trkpt>
      <trkpt lat="48.10486" lon="5.66546">
        <ele>368</ele>
        <time>2024-07-24T14:53:34Z</time>
      </trkpt>
      <trkpt lat="48.10522" lon="5.66527">
        <ele>367.7</ele>
        <time>2024-07-24T14:53:40Z</time>
      </trkpt>
      <trkpt lat="48.10527" lon="5.66521">
        <ele>367.7</ele>
        <time>2024-07-24T14:53:41Z</time>
      </trkpt>
      <trkpt lat="48.10543" lon="5.66501">
        <ele>367.7</ele>
        <time>2024-07-24T14:53:44Z</time>
      </trkpt>
      <trkpt lat="48.10571" lon="5.66453">
        <ele>367.8</ele>
        <time>2024-07-24T14:53:50Z</time>
      </trkpt>
      <trkpt lat="48.10583" lon="5.6643">
        <ele>367.9</ele>
        <time>2024-07-24T14:53:53Z</time>
      </trkpt>
      <trkpt lat="48.10593" lon="5.66415">
        <ele>368</ele>
        <time>2024-07-24T14:53:55Z</time>
      </trkpt>
      <trkpt lat="48.10606" lon="5.66411">
        <ele>368.1</ele>
        <time>2024-07-24T14:53:57Z</time>
      </trkpt>
      <trkpt lat="48.10619" lon="5.66407">
        <ele>368.2</ele>
        <time>2024-07-24T14:53:59Z</time>
      </trkpt>
      <trkpt lat="48.10646" lon="5.66399">
        <ele>368.5</ele>
        <time>2024-07-24T14:54:03Z</time>
      </trkpt>
      <trkpt lat="48.10658" lon="5.66394">
        <ele>368.7</ele>
        <time>2024-07-24T14:54:05Z</time>
      </trkpt>
      <trkpt lat="48.1068" lon="5.6636">
        <ele>369</ele>
        <time>2024-07-24T14:54:10Z</time>
      </trkpt>
      <trkpt lat="48.10711" lon="5.66313">
        <ele>369.7</ele>
        <time>2024-07-24T14:54:17Z</time>
      </trkpt>
      <trkpt lat="48.10743" lon="5.66264">
        <ele>370.1</ele>
        <time>2024-07-24T14:54:24Z</time>
      </trkpt>
      <trkpt lat="48.10773" lon="5.66216">
        <ele>371</ele>
        <time>2024-07-24T14:54:31Z</time>
      </trkpt>
      <trkpt lat="48.10802" lon="5.66172">
        <ele>371.2</ele>
        <time>2024-07-24T14:54:38Z</time>
      </trkpt>
      <trkpt lat="48.10826" lon="5.66125">
        <ele>371.3</ele>
        <time>2024-07-24T14:54:44Z</time>
      </trkpt>
      <trkpt lat="48.10855" lon="5.66074">
        <ele>371.5</ele>
        <time>2024-07-24T14:54:51Z</time>
      </trkpt>
      <trkpt lat="48.10885" lon="5.66041">
        <ele>371.6</ele>
        <time>2024-07-24T14:54:57Z</time>
      </trkpt>
      <trkpt lat="48.10928" lon="5.66006">
        <ele>371.6</ele>
        <time>2024-07-24T14:55:05Z</time>
      </trkpt>
      <trkpt lat="48.10973" lon="5.65973">
        <ele>371.3</ele>
        <time>2024-07-24T14:55:13Z</time>
      </trkpt>
      <trkpt lat="48.11014" lon="5.65942">
        <ele>370.5</ele>
        <time>2024-07-24T14:55:20Z</time>
      </trkpt>
      <trkpt lat="48.11051" lon="5.65908">
        <ele>369</ele>
        <time>2024-07-24T14:55:27Z</time>
      </trkpt>
      <trkpt lat="48.11067" lon="5.65889">
        <ele>368.1</ele>
        <time>2024-07-24T14:55:30Z</time>
      </trkpt>
      <trkpt lat="48.11079" lon="5.65863">
        <ele>367.1</ele>
        <time>2024-07-24T14:55:33Z</time>
      </trkpt>
      <trkpt lat="48.11092" lon="5.65809">
        <ele>365.1</ele>
        <time>2024-07-24T14:55:38Z</time>
      </trkpt>
      <trkpt lat="48.11102" lon="5.65747">
        <ele>362.9</ele>
        <time>2024-07-24T14:55:43Z</time>
      </trkpt>
      <trkpt lat="48.11108" lon="5.65695">
        <ele>360.8</ele>
        <time>2024-07-24T14:55:47Z</time>
      </trkpt>
      <trkpt lat="48.11114" lon="5.65609">
        <ele>357.9</ele>
        <time>2024-07-24T14:55:53Z</time>
      </trkpt>
      <trkpt lat="48.11123" lon="5.6554">
        <ele>356.2</ele>
        <time>2024-07-24T14:55:58Z</time>
      </trkpt>
      <trkpt lat="48.11126" lon="5.65526">
        <ele>355.9</ele>
        <time>2024-07-24T14:55:59Z</time>
      </trkpt>
      <trkpt lat="48.11141" lon="5.65475">
        <ele>354.6</ele>
        <time>2024-07-24T14:56:03Z</time>
      </trkpt>
      <trkpt lat="48.11172" lon="5.65404">
        <ele>353</ele>
        <time>2024-07-24T14:56:09Z</time>
      </trkpt>
      <trkpt lat="48.11183" lon="5.6538">
        <ele>352.8</ele>
        <time>2024-07-24T14:56:11Z</time>
      </trkpt>
      <trkpt lat="48.11215" lon="5.65307">
        <ele>351.2</ele>
        <time>2024-07-24T14:56:17Z</time>
      </trkpt>
      <trkpt lat="48.1122" lon="5.65295">
        <ele>351</ele>
        <time>2024-07-24T14:56:18Z</time>
      </trkpt>
      <trkpt lat="48.1125" lon="5.65227">
        <ele>350.4</ele>
        <time>2024-07-24T14:56:24Z</time>
      </trkpt>
      <trkpt lat="48.11255" lon="5.65217">
        <ele>350.4</ele>
        <time>2024-07-24T14:56:25Z</time>
      </trkpt>
      <trkpt lat="48.11286" lon="5.65141">
        <ele>350.2</ele>
        <time>2024-07-24T14:56:32Z</time>
      </trkpt>
      <trkpt lat="48.11315" lon="5.6507">
        <ele>350</ele>
        <time>2024-07-24T14:56:39Z</time>
      </trkpt>
      <trkpt lat="48.11345" lon="5.64995">
        <ele>349.5</ele>
        <time>2024-07-24T14:56:47Z</time>
      </trkpt>
      <trkpt lat="48.11374" lon="5.64929">
        <ele>348.9</ele>
        <time>2024-07-24T14:56:54Z</time>
      </trkpt>
      <trkpt lat="48.11406" lon="5.64872">
        <ele>348.5</ele>
        <time>2024-07-24T14:57:01Z</time>
      </trkpt>
      <trkpt lat="48.11442" lon="5.64806">
        <ele>348.4</ele>
        <time>2024-07-24T14:57:10Z</time>
      </trkpt>
      <trkpt lat="48.11446" lon="5.64799">
        <ele>348.4</ele>
        <time>2024-07-24T14:57:11Z</time>
      </trkpt>
      <trkpt lat="48.11472" lon="5.64752">
        <ele>348.9</ele>
        <time>2024-07-24T14:57:18Z</time>
      </trkpt>
      <trkpt lat="48.11491" lon="5.64727">
        <ele>349.2</ele>
        <time>2024-07-24T14:57:22Z</time>
      </trkpt>
      <trkpt lat="48.11496" lon="5.64722">
        <ele>349.3</ele>
        <time>2024-07-24T14:57:23Z</time>
      </trkpt>
      <trkpt lat="48.11528" lon="5.64695">
        <ele>349.9</ele>
        <time>2024-07-24T14:57:30Z</time>
      </trkpt>
      <trkpt lat="48.1155" lon="5.64672">
        <ele>350.7</ele>
        <time>2024-07-24T14:57:36Z</time>
      </trkpt>
      <trkpt lat="48.11569" lon="5.64645">
        <ele>350.9</ele>
        <time>2024-07-24T14:57:42Z</time>
      </trkpt>
      <trkpt lat="48.11602" lon="5.64606">
        <ele>350.7</ele>
        <time>2024-07-24T14:57:50Z</time>
      </trkpt>
      <trkpt lat="48.11624" lon="5.646">
        <ele>350.8</ele>
        <time>2024-07-24T14:57:55Z</time>
      </trkpt>
      <trkpt lat="48.11629" lon="5.64599">
        <ele>350.8</ele>
        <time>2024-07-24T14:57:56Z</time>
      </trkpt>
      <trkpt lat="48.11643" lon="5.64597">
        <ele>350.5</ele>
        <time>2024-07-24T14:57:59Z</time>
      </trkpt>
      <trkpt lat="48.1168" lon="5.64597">
        <ele>349.6</ele>
        <time>2024-07-24T14:58:06Z</time>
      </trkpt>
      <trkpt lat="48.11689" lon="5.64597">
        <ele>349.3</ele>
        <time>2024-07-24T14:58:08Z</time>
      </trkpt>
      <trkpt lat="48.11699" lon="5.64604">
        <ele>349.1</ele>
        <time>2024-07-24T14:58:10Z</time>
      </trkpt>
      <trkpt lat="48.11701" lon="5.64609">
        <ele>349.1</ele>
        <time>2024-07-24T14:58:11Z</time>
      </trkpt>
      <trkpt lat="48.1173" lon="5.6462">
        <ele>348.5</ele>
        <time>2024-07-24T14:58:18Z</time>
      </trkpt>
      <trkpt lat="48.11741" lon="5.64623">
        <ele>347.9</ele>
        <time>2024-07-24T14:58:21Z</time>
      </trkpt>
      <trkpt lat="48.11751" lon="5.64626">
        <ele>347.3</ele>
        <time>2024-07-24T14:58:23Z</time>
      </trkpt>
      <trkpt lat="48.11775" lon="5.64625">
        <ele>345.7</ele>
        <time>2024-07-24T14:58:27Z</time>
      </trkpt>
      <trkpt lat="48.11781" lon="5.64624">
        <ele>345.3</ele>
        <time>2024-07-24T14:58:28Z</time>
      </trkpt>
      <trkpt lat="48.11789" lon="5.64615">
        <ele>344.8</ele>
        <time>2024-07-24T14:58:29Z</time>
      </trkpt>
      <trkpt lat="48.11796" lon="5.64607">
        <ele>344.2</ele>
        <time>2024-07-24T14:58:31Z</time>
      </trkpt>
      <trkpt lat="48.11806" lon="5.64594">
        <ele>343.5</ele>
        <time>2024-07-24T14:58:33Z</time>
      </trkpt>
      <trkpt lat="48.11811" lon="5.64578">
        <ele>342.9</ele>
        <time>2024-07-24T14:58:35Z</time>
      </trkpt>
      <trkpt lat="48.11829" lon="5.64522">
        <ele>341.2</ele>
        <time>2024-07-24T14:58:42Z</time>
      </trkpt>
      <trkpt lat="48.11844" lon="5.64489">
        <ele>340.3</ele>
        <time>2024-07-24T14:58:46Z</time>
      </trkpt>
      <trkpt lat="48.11848" lon="5.6448">
        <ele>340</ele>
        <time>2024-07-24T14:58:47Z</time>
      </trkpt>
      <trkpt lat="48.11859" lon="5.64468">
        <ele>339.6</ele>
        <time>2024-07-24T14:58:49Z</time>
      </trkpt>
      <trkpt lat="48.11871" lon="5.64458">
        <ele>339.1</ele>
        <time>2024-07-24T14:58:51Z</time>
      </trkpt>
      <trkpt lat="48.11908" lon="5.64437">
        <ele>338.3</ele>
        <time>2024-07-24T14:58:57Z</time>
      </trkpt>
      <trkpt lat="48.11952" lon="5.64424">
        <ele>338.1</ele>
        <time>2024-07-24T14:59:03Z</time>
      </trkpt>
      <trkpt lat="48.11997" lon="5.64427">
        <ele>339</ele>
        <time>2024-07-24T14:59:09Z</time>
      </trkpt>
      <trkpt lat="48.12041" lon="5.64437">
        <ele>340.5</ele>
        <time>2024-07-24T14:59:16Z</time>
      </trkpt>
      <trkpt lat="48.12047" lon="5.64438">
        <ele>340.8</ele>
        <time>2024-07-24T14:59:17Z</time>
      </trkpt>
      <trkpt lat="48.12067" lon="5.6445">
        <ele>341.5</ele>
        <time>2024-07-24T14:59:21Z</time>
      </trkpt>
      <trkpt lat="48.12075" lon="5.64461">
        <ele>341.9</ele>
        <time>2024-07-24T14:59:23Z</time>
      </trkpt>
      <trkpt lat="48.12086" lon="5.64479">
        <ele>342.7</ele>
        <time>2024-07-24T14:59:26Z</time>
      </trkpt>
      <trkpt lat="48.12111" lon="5.64509">
        <ele>344.2</ele>
        <time>2024-07-24T14:59:32Z</time>
      </trkpt>
      <trkpt lat="48.12133" lon="5.64525">
        <ele>345.3</ele>
        <time>2024-07-24T14:59:37Z</time>
      </trkpt>
      <trkpt lat="48.12137" lon="5.64528">
        <ele>345.6</ele>
        <time>2024-07-24T14:59:38Z</time>
      </trkpt>
      <trkpt lat="48.12152" lon="5.6453">
        <ele>346.4</ele>
        <time>2024-07-24T14:59:41Z</time>
      </trkpt>
      <trkpt lat="48.12161" lon="5.64529">
        <ele>347</ele>
        <time>2024-07-24T14:59:43Z</time>
      </trkpt>
      <trkpt lat="48.12194" lon="5.64523">
        <ele>349</ele>
        <time>2024-07-24T14:59:51Z</time>
      </trkpt>
      <trkpt lat="48.12216" lon="5.64514">
        <ele>350.3</ele>
        <time>2024-07-24T14:59:57Z</time>
      </trkpt>
      <trkpt lat="48.12231" lon="5.64489">
        <ele>351.7</ele>
        <time>2024-07-24T15:00:04Z</time>
      </trkpt>
      <trkpt lat="48.12243" lon="5.64461">
        <ele>353.3</ele>
        <time>2024-07-24T15:00:11Z</time>
      </trkpt>
      <trkpt lat="48.12254" lon="5.64426">
        <ele>355.1</ele>
        <time>2024-07-24T15:00:19Z</time>
      </trkpt>
      <trkpt lat="48.12265" lon="5.6439">
        <ele>357</ele>
        <time>2024-07-24T15:00:28Z</time>
      </trkpt>
      <trkpt lat="48.12276" lon="5.64358">
        <ele>358.7</ele>
        <time>2024-07-24T15:00:36Z</time>
      </trkpt>
      <trkpt lat="48.12286" lon="5.64326">
        <ele>360.3</ele>
        <time>2024-07-24T15:00:44Z</time>
      </trkpt>
      <trkpt lat="48.12301" lon="5.64313">
        <ele>361.5</ele>
        <time>2024-07-24T15:00:50Z</time>
      </trkpt>
      <trkpt lat="48.12318" lon="5.64306">
        <ele>362.4</ele>
        <time>2024-07-24T15:00:56Z</time>
      </trkpt>
      <trkpt lat="48.12337" lon="5.64309">
        <ele>363.2</ele>
        <time>2024-07-24T15:01:02Z</time>
      </trkpt>
      <trkpt lat="48.12356" lon="5.64329">
        <ele>363.7</ele>
        <time>2024-07-24T15:01:08Z</time>
      </trkpt>
      <trkpt lat="48.12362" lon="5.64338">
        <ele>363.8</ele>
        <time>2024-07-24T15:01:10Z</time>
      </trkpt>
      <trkpt lat="48.12364" lon="5.64351">
        <ele>363.9</ele>
        <time>2024-07-24T15:01:12Z</time>
      </trkpt>
      <trkpt lat="48.12365" lon="5.64357">
        <ele>364</ele>
        <time>2024-07-24T15:01:13Z</time>
      </trkpt>
      <trkpt lat="48.1237" lon="5.64386">
        <ele>364.3</ele>
        <time>2024-07-24T15:01:18Z</time>
      </trkpt>
      <trkpt lat="48.12374" lon="5.6441">
        <ele>364.4</ele>
        <time>2024-07-24T15:01:22Z</time>
      </trkpt>
      <trkpt lat="48.12381" lon="5.64428">
        <ele>364.3</ele>
        <time>2024-07-24T15:01:25Z</time>
      </trkpt>
      <trkpt lat="48.12386" lon="5.64441">
        <ele>364.3</ele>
        <time>2024-07-24T15:01:27Z</time>
      </trkpt>
      <trkpt lat="48.12392" lon="5.64451">
        <ele>364.2</ele>
        <time>2024-07-24T15:01:29Z</time>
      </trkpt>
      <trkpt lat="48.12397" lon="5.64454">
        <ele>364.2</ele>
        <time>2024-07-24T15:01:30Z</time>
      </trkpt>
      <trkpt lat="48.1243" lon="5.64479">
        <ele>363.4</ele>
        <time>2024-07-24T15:01:37Z</time>
      </trkpt>
      <trkpt lat="48.1247" lon="5.64509">
        <ele>362.3</ele>
        <time>2024-07-24T15:01:45Z</time>
      </trkpt>
      <trkpt lat="48.12519" lon="5.64547">
        <ele>360.8</ele>
        <time>2024-07-24T15:01:54Z</time>
      </trkpt>
      <trkpt lat="48.12525" lon="5.64551">
        <ele>360.7</ele>
        <time>2024-07-24T15:01:55Z</time>
      </trkpt>
      <trkpt lat="48.1257" lon="5.64575">
        <ele>358.9</ele>
        <time>2024-07-24T15:02:02Z</time>
      </trkpt>
      <trkpt lat="48.12618" lon="5.64586">
        <ele>356.3</ele>
        <time>2024-07-24T15:02:08Z</time>
      </trkpt>
      <trkpt lat="48.12661" lon="5.64586">
        <ele>354.1</ele>
        <time>2024-07-24T15:02:13Z</time>
      </trkpt>
      <trkpt lat="48.12707" lon="5.6457">
        <ele>351.9</ele>
        <time>2024-07-24T15:02:18Z</time>
      </trkpt>
      <trkpt lat="48.12749" lon="5.64541">
        <ele>349.6</ele>
        <time>2024-07-24T15:02:23Z</time>
      </trkpt>
      <trkpt lat="48.128" lon="5.6449">
        <ele>346</ele>
        <time>2024-07-24T15:02:30Z</time>
      </trkpt>
      <trkpt lat="48.12838" lon="5.64456">
        <ele>342.8</ele>
        <time>2024-07-24T15:02:35Z</time>
      </trkpt>
      <trkpt lat="48.12847" lon="5.64452">
        <ele>342.2</ele>
        <time>2024-07-24T15:02:36Z</time>
      </trkpt>
      <trkpt lat="48.12884" lon="5.64439">
        <ele>340.4</ele>
        <time>2024-07-24T15:02:40Z</time>
      </trkpt>
      <trkpt lat="48.12924" lon="5.64432">
        <ele>339.9</ele>
        <time>2024-07-24T15:02:45Z</time>
      </trkpt>
      <trkpt lat="48.12942" lon="5.64435">
        <ele>340.1</ele>
        <time>2024-07-24T15:02:48Z</time>
      </trkpt>
      <trkpt lat="48.12948" lon="5.64436">
        <ele>340.3</ele>
        <time>2024-07-24T15:02:49Z</time>
      </trkpt>
      <trkpt lat="48.12957" lon="5.64439">
        <ele>340.5</ele>
        <time>2024-07-24T15:02:51Z</time>
      </trkpt>
      <trkpt lat="48.12968" lon="5.64441">
        <ele>341</ele>
        <time>2024-07-24T15:02:54Z</time>
      </trkpt>
      <trkpt lat="48.12989" lon="5.64444">
        <ele>342.7</ele>
        <time>2024-07-24T15:03:00Z</time>
      </trkpt>
      <trkpt lat="48.12999" lon="5.64445">
        <ele>343.8</ele>
        <time>2024-07-24T15:03:04Z</time>
      </trkpt>
      <trkpt lat="48.13015" lon="5.64447">
        <ele>345.8</ele>
        <time>2024-07-24T15:03:10Z</time>
      </trkpt>
      <trkpt lat="48.13031" lon="5.64449">
        <ele>347.9</ele>
        <time>2024-07-24T15:03:16Z</time>
      </trkpt>
      <trkpt lat="48.13045" lon="5.64444">
        <ele>349.7</ele>
        <time>2024-07-24T15:03:22Z</time>
      </trkpt>
      <trkpt lat="48.13043" lon="5.6443">
        <ele>350.3</ele>
        <time>2024-07-24T15:03:26Z</time>
      </trkpt>
      <trkpt lat="48.13043" lon="5.64402">
        <ele>350.7</ele>
        <time>2024-07-24T15:03:32Z</time>
      </trkpt>
      <trkpt lat="48.13055" lon="5.64393">
        <ele>351.1</ele>
        <time>2024-07-24T15:03:36Z</time>
      </trkpt>
      <trkpt lat="48.13074" lon="5.64377">
        <ele>351.7</ele>
        <time>2024-07-24T15:03:42Z</time>
      </trkpt>
      <trkpt lat="48.1309" lon="5.64364">
        <ele>351.9</ele>
        <time>2024-07-24T15:03:48Z</time>
      </trkpt>
      <trkpt lat="48.13107" lon="5.64349">
        <ele>351.5</ele>
        <time>2024-07-24T15:03:54Z</time>
      </trkpt>
      <trkpt lat="48.13134" lon="5.64325">
        <ele>350.9</ele>
        <time>2024-07-24T15:04:01Z</time>
      </trkpt>
      <trkpt lat="48.13145" lon="5.64315">
        <ele>350.7</ele>
        <time>2024-07-24T15:04:04Z</time>
      </trkpt>
      <trkpt lat="48.13151" lon="5.64313">
        <ele>350.6</ele>
        <time>2024-07-24T15:04:06Z</time>
      </trkpt>
      <trkpt lat="48.13155" lon="5.64287">
        <ele>350.4</ele>
        <time>2024-07-24T15:04:10Z</time>
      </trkpt>
      <trkpt lat="48.13152" lon="5.64262">
        <ele>350</ele>
        <time>2024-07-24T15:04:14Z</time>
      </trkpt>
      <trkpt lat="48.13153" lon="5.64256">
        <ele>349.9</ele>
        <time>2024-07-24T15:04:15Z</time>
      </trkpt>
      <trkpt lat="48.13157" lon="5.64216">
        <ele>348.6</ele>
        <time>2024-07-24T15:04:21Z</time>
      </trkpt>
      <trkpt lat="48.13164" lon="5.64152">
        <ele>346.6</ele>
        <time>2024-07-24T15:04:28Z</time>
      </trkpt>
      <trkpt lat="48.13165" lon="5.64143">
        <ele>346.3</ele>
        <time>2024-07-24T15:04:29Z</time>
      </trkpt>
      <trkpt lat="48.13172" lon="5.64079">
        <ele>345.1</ele>
        <time>2024-07-24T15:04:36Z</time>
      </trkpt>
      <trkpt lat="48.1318" lon="5.64004">
        <ele>343.8</ele>
        <time>2024-07-24T15:04:43Z</time>
      </trkpt>
      <trkpt lat="48.13188" lon="5.63931">
        <ele>343.3</ele>
        <time>2024-07-24T15:04:50Z</time>
      </trkpt>
      <trkpt lat="48.1319" lon="5.63854">
        <ele>343.3</ele>
        <time>2024-07-24T15:04:57Z</time>
      </trkpt>
      <trkpt lat="48.13185" lon="5.63773">
        <ele>343</ele>
        <time>2024-07-24T15:05:04Z</time>
      </trkpt>
      <trkpt lat="48.1318" lon="5.63688">
        <ele>342.3</ele>
        <time>2024-07-24T15:05:12Z</time>
      </trkpt>
      <trkpt lat="48.13179" lon="5.63677">
        <ele>342.2</ele>
        <time>2024-07-24T15:05:13Z</time>
      </trkpt>
      <trkpt lat="48.13176" lon="5.63593">
        <ele>341.3</ele>
        <time>2024-07-24T15:05:21Z</time>
      </trkpt>
      <trkpt lat="48.13183" lon="5.63519">
        <ele>340.7</ele>
        <time>2024-07-24T15:05:28Z</time>
      </trkpt>
      <trkpt lat="48.13189" lon="5.63447">
        <ele>340.5</ele>
        <time>2024-07-24T15:05:35Z</time>
      </trkpt>
      <trkpt lat="48.13192" lon="5.6338">
        <ele>340.6</ele>
        <time>2024-07-24T15:05:43Z</time>
      </trkpt>
      <trkpt lat="48.13193" lon="5.63356">
        <ele>340.7</ele>
        <time>2024-07-24T15:05:48Z</time>
      </trkpt>
      <trkpt lat="48.13193" lon="5.63356">
        <ele>340.7</ele>
        <time>2024-07-24T15:05:50Z</time>
      </trkpt>
      <trkpt lat="48.13194" lon="5.63348">
        <ele>340.8</ele>
        <time>2024-07-24T15:05:55Z</time>
      </trkpt>
      <trkpt lat="48.13194" lon="5.63346">
        <ele>340.8</ele>
        <time>2024-07-24T15:05:56Z</time>
      </trkpt>
      <trkpt lat="48.13194" lon="5.6334">
        <ele>340.9</ele>
        <time>2024-07-24T15:06:01Z</time>
      </trkpt>
      <trkpt lat="48.13194" lon="5.63346">
        <ele>340.8</ele>
        <time>2024-07-24T15:11:18Z</time>
      </trkpt>
      <trkpt lat="48.13194" lon="5.63352">
        <ele>340.8</ele>
        <time>2024-07-24T15:11:20Z</time>
      </trkpt>
      <trkpt lat="48.13192" lon="5.63376">
        <ele>340.6</ele>
        <time>2024-07-24T15:11:25Z</time>
      </trkpt>
      <trkpt lat="48.13191" lon="5.63396">
        <ele>340.5</ele>
        <time>2024-07-24T15:11:28Z</time>
      </trkpt>
      <trkpt lat="48.1319" lon="5.63419">
        <ele>340.5</ele>
        <time>2024-07-24T15:11:31Z</time>
      </trkpt>
      <trkpt lat="48.13186" lon="5.63481">
        <ele>340.6</ele>
        <time>2024-07-24T15:11:38Z</time>
      </trkpt>
      <trkpt lat="48.13179" lon="5.63561">
        <ele>341</ele>
        <time>2024-07-24T15:11:46Z</time>
      </trkpt>
      <trkpt lat="48.13178" lon="5.63571">
        <ele>341.1</ele>
        <time>2024-07-24T15:11:47Z</time>
      </trkpt>
      <trkpt lat="48.13176" lon="5.63631">
        <ele>341.7</ele>
        <time>2024-07-24T15:11:53Z</time>
      </trkpt>
      <trkpt lat="48.1318" lon="5.63689">
        <ele>342.3</ele>
        <time>2024-07-24T15:11:59Z</time>
      </trkpt>
      <trkpt lat="48.13184" lon="5.63759">
        <ele>342.9</ele>
        <time>2024-07-24T15:12:07Z</time>
      </trkpt>
      <trkpt lat="48.13189" lon="5.63845">
        <ele>343.3</ele>
        <time>2024-07-24T15:12:17Z</time>
      </trkpt>
      <trkpt lat="48.1319" lon="5.63912">
        <ele>343.5</ele>
        <time>2024-07-24T15:12:25Z</time>
      </trkpt>
      <trkpt lat="48.13181" lon="5.6399">
        <ele>343.7</ele>
        <time>2024-07-24T15:12:34Z</time>
      </trkpt>
      <trkpt lat="48.13175" lon="5.64047">
        <ele>344.5</ele>
        <time>2024-07-24T15:12:41Z</time>
      </trkpt>
      <trkpt lat="48.13168" lon="5.64116">
        <ele>345.7</ele>
        <time>2024-07-24T15:12:50Z</time>
      </trkpt>
      <trkpt lat="48.13162" lon="5.64168">
        <ele>347.1</ele>
        <time>2024-07-24T15:12:57Z</time>
      </trkpt>
      <trkpt lat="48.13156" lon="5.64229">
        <ele>349.1</ele>
        <time>2024-07-24T15:13:05Z</time>
      </trkpt>
      <trkpt lat="48.13151" lon="5.6427">
        <ele>350.2</ele>
        <time>2024-07-24T15:13:11Z</time>
      </trkpt>
      <trkpt lat="48.13156" lon="5.64291">
        <ele>350.4</ele>
        <time>2024-07-24T15:13:14Z</time>
      </trkpt>
      <trkpt lat="48.13159" lon="5.64304">
        <ele>350.4</ele>
        <time>2024-07-24T15:13:16Z</time>
      </trkpt>
      <trkpt lat="48.13171" lon="5.64332">
        <ele>350.7</ele>
        <time>2024-07-24T15:13:21Z</time>
      </trkpt>
      <trkpt lat="48.13177" lon="5.64343">
        <ele>350.8</ele>
        <time>2024-07-24T15:13:23Z</time>
      </trkpt>
      <trkpt lat="48.13186" lon="5.64362">
        <ele>351</ele>
        <time>2024-07-24T15:13:27Z</time>
      </trkpt>
      <trkpt lat="48.13198" lon="5.64361">
        <ele>351.1</ele>
        <time>2024-07-24T15:13:31Z</time>
      </trkpt>
      <trkpt lat="48.13218" lon="5.6435">
        <ele>351</ele>
        <time>2024-07-24T15:13:35Z</time>
      </trkpt>
      <trkpt lat="48.13223" lon="5.64348">
        <ele>350.9</ele>
        <time>2024-07-24T15:13:36Z</time>
      </trkpt>
      <trkpt lat="48.13234" lon="5.64344">
        <ele>350.9</ele>
        <time>2024-07-24T15:13:38Z</time>
      </trkpt>
      <trkpt lat="48.13239" lon="5.64342">
        <ele>350.8</ele>
        <time>2024-07-24T15:13:39Z</time>
      </trkpt>
      <trkpt lat="48.13245" lon="5.64342">
        <ele>350.8</ele>
        <time>2024-07-24T15:13:40Z</time>
      </trkpt>
      <trkpt lat="48.13255" lon="5.64347">
        <ele>350.7</ele>
        <time>2024-07-24T15:13:42Z</time>
      </trkpt>
      <trkpt lat="48.13259" lon="5.64353">
        <ele>350.7</ele>
        <time>2024-07-24T15:13:43Z</time>
      </trkpt>
      <trkpt lat="48.13266" lon="5.64365">
        <ele>350.7</ele>
        <time>2024-07-24T15:13:45Z</time>
      </trkpt>
      <trkpt lat="48.13278" lon="5.64382">
        <ele>350.6</ele>
        <time>2024-07-24T15:13:48Z</time>
      </trkpt>
      <trkpt lat="48.133" lon="5.64412">
        <ele>350.4</ele>
        <time>2024-07-24T15:13:54Z</time>
      </trkpt>
      <trkpt lat="48.13305" lon="5.64416">
        <ele>350.3</ele>
        <time>2024-07-24T15:13:55Z</time>
      </trkpt>
      <trkpt lat="48.1331" lon="5.6442">
        <ele>350.3</ele>
        <time>2024-07-24T15:13:56Z</time>
      </trkpt>
      <trkpt lat="48.13322" lon="5.64421">
        <ele>350.1</ele>
        <time>2024-07-24T15:13:58Z</time>
      </trkpt>
      <trkpt lat="48.13334" lon="5.64417">
        <ele>350</ele>
        <time>2024-07-24T15:14:00Z</time>
      </trkpt>
      <trkpt lat="48.13345" lon="5.64409">
        <ele>349.9</ele>
        <time>2024-07-24T15:14:02Z</time>
      </trkpt>
      <trkpt lat="48.13385" lon="5.64384">
        <ele>349.6</ele>
        <time>2024-07-24T15:14:09Z</time>
      </trkpt>
      <trkpt lat="48.13421" lon="5.64359">
        <ele>349.3</ele>
        <time>2024-07-24T15:14:15Z</time>
      </trkpt>
      <trkpt lat="48.13472" lon="5.6432">
        <ele>349</ele>
        <time>2024-07-24T15:14:23Z</time>
      </trkpt>
      <trkpt lat="48.13492" lon="5.64312">
        <ele>348.9</ele>
        <time>2024-07-24T15:14:26Z</time>
      </trkpt>
      <trkpt lat="48.13506" lon="5.64307">
        <ele>348.8</ele>
        <time>2024-07-24T15:14:28Z</time>
      </trkpt>
      <trkpt lat="48.13544" lon="5.64311">
        <ele>348</ele>
        <time>2024-07-24T15:14:33Z</time>
      </trkpt>
      <trkpt lat="48.136" lon="5.64325">
        <ele>346.7</ele>
        <time>2024-07-24T15:14:40Z</time>
      </trkpt>
      <trkpt lat="48.13608" lon="5.64328">
        <ele>346.7</ele>
        <time>2024-07-24T15:14:41Z</time>
      </trkpt>
      <trkpt lat="48.13659" lon="5.64355">
        <ele>346.5</ele>
        <time>2024-07-24T15:14:48Z</time>
      </trkpt>
      <trkpt lat="48.13698" lon="5.64381">
        <ele>347</ele>
        <time>2024-07-24T15:14:54Z</time>
      </trkpt>
      <trkpt lat="48.13729" lon="5.644">
        <ele>347.6</ele>
        <time>2024-07-24T15:14:59Z</time>
      </trkpt>
      <trkpt lat="48.13757" lon="5.64418">
        <ele>348.1</ele>
        <time>2024-07-24T15:15:04Z</time>
      </trkpt>
      <trkpt lat="48.13797" lon="5.64444">
        <ele>347.9</ele>
        <time>2024-07-24T15:15:11Z</time>
      </trkpt>
      <trkpt lat="48.13835" lon="5.64475">
        <ele>347.1</ele>
        <time>2024-07-24T15:15:17Z</time>
      </trkpt>
      <trkpt lat="48.13884" lon="5.64518">
        <ele>346</ele>
        <time>2024-07-24T15:15:25Z</time>
      </trkpt>
      <trkpt lat="48.13921" lon="5.6455">
        <ele>345.3</ele>
        <time>2024-07-24T15:15:31Z</time>
      </trkpt>
      <trkpt lat="48.13972" lon="5.64578">
        <ele>344.5</ele>
        <time>2024-07-24T15:15:38Z</time>
      </trkpt>
      <trkpt lat="48.14023" lon="5.64606">
        <ele>343.8</ele>
        <time>2024-07-24T15:15:46Z</time>
      </trkpt>
      <trkpt lat="48.14069" lon="5.64631">
        <ele>343.3</ele>
        <time>2024-07-24T15:15:53Z</time>
      </trkpt>
      <trkpt lat="48.14106" lon="5.64651">
        <ele>342.8</ele>
        <time>2024-07-24T15:15:59Z</time>
      </trkpt>
      <trkpt lat="48.14156" lon="5.64678">
        <ele>342.5</ele>
        <time>2024-07-24T15:16:07Z</time>
      </trkpt>
      <trkpt lat="48.14191" lon="5.64701">
        <ele>342.4</ele>
        <time>2024-07-24T15:16:13Z</time>
      </trkpt>
      <trkpt lat="48.14229" lon="5.64732">
        <ele>342.2</ele>
        <time>2024-07-24T15:16:20Z</time>
      </trkpt>
      <trkpt lat="48.14268" lon="5.64764">
        <ele>342.7</ele>
        <time>2024-07-24T15:16:27Z</time>
      </trkpt>
      <trkpt lat="48.14294" lon="5.64785">
        <ele>343.5</ele>
        <time>2024-07-24T15:16:32Z</time>
      </trkpt>
      <trkpt lat="48.14328" lon="5.64807">
        <ele>345</ele>
        <time>2024-07-24T15:16:39Z</time>
      </trkpt>
      <trkpt lat="48.14355" lon="5.64823">
        <ele>346.2</ele>
        <time>2024-07-24T15:16:45Z</time>
      </trkpt>
      <trkpt lat="48.14359" lon="5.64825">
        <ele>346.5</ele>
        <time>2024-07-24T15:16:46Z</time>
      </trkpt>
      <trkpt lat="48.14381" lon="5.64833">
        <ele>348.2</ele>
        <time>2024-07-24T15:16:52Z</time>
      </trkpt>
      <trkpt lat="48.14414" lon="5.64844">
        <ele>350.6</ele>
        <time>2024-07-24T15:17:01Z</time>
      </trkpt>
      <trkpt lat="48.14437" lon="5.64852">
        <ele>352.3</ele>
        <time>2024-07-24T15:17:08Z</time>
      </trkpt>
      <trkpt lat="48.14462" lon="5.64861">
        <ele>354.1</ele>
        <time>2024-07-24T15:17:16Z</time>
      </trkpt>
      <trkpt lat="48.14486" lon="5.64869">
        <ele>355.8</ele>
        <time>2024-07-24T15:17:24Z</time>
      </trkpt>
      <trkpt lat="48.14511" lon="5.6487">
        <ele>357.3</ele>
        <time>2024-07-24T15:17:33Z</time>
      </trkpt>
      <trkpt lat="48.14532" lon="5.64871">
        <ele>358</ele>
        <time>2024-07-24T15:17:40Z</time>
      </trkpt>
      <trkpt lat="48.14551" lon="5.64886">
        <ele>359.7</ele>
        <time>2024-07-24T15:17:48Z</time>
      </trkpt>
      <trkpt lat="48.14571" lon="5.64902">
        <ele>361.7</ele>
        <time>2024-07-24T15:17:57Z</time>
      </trkpt>
      <trkpt lat="48.14582" lon="5.64918">
        <ele>363.1</ele>
        <time>2024-07-24T15:18:04Z</time>
      </trkpt>
      <trkpt lat="48.14583" lon="5.64922">
        <ele>363.3</ele>
        <time>2024-07-24T15:18:05Z</time>
      </trkpt>
      <trkpt lat="48.14587" lon="5.64949">
        <ele>364.7</ele>
        <time>2024-07-24T15:18:12Z</time>
      </trkpt>
      <trkpt lat="48.14591" lon="5.64976">
        <ele>366.1</ele>
        <time>2024-07-24T15:18:19Z</time>
      </trkpt>
      <trkpt lat="48.14595" lon="5.64999">
        <ele>367.2</ele>
        <time>2024-07-24T15:18:25Z</time>
      </trkpt>
      <trkpt lat="48.14597" lon="5.65017">
        <ele>368.2</ele>
        <time>2024-07-24T15:18:31Z</time>
      </trkpt>
      <trkpt lat="48.14599" lon="5.65051">
        <ele>368.7</ele>
        <time>2024-07-24T15:18:38Z</time>
      </trkpt>
      <trkpt lat="48.146" lon="5.65085">
        <ele>369.1</ele>
        <time>2024-07-24T15:18:45Z</time>
      </trkpt>
      <trkpt lat="48.14602" lon="5.6513">
        <ele>369.1</ele>
        <time>2024-07-24T15:18:53Z</time>
      </trkpt>
      <trkpt lat="48.14604" lon="5.65175">
        <ele>368.8</ele>
        <time>2024-07-24T15:19:01Z</time>
      </trkpt>
      <trkpt lat="48.14605" lon="5.65215">
        <ele>368.4</ele>
        <time>2024-07-24T15:19:08Z</time>
      </trkpt>
      <trkpt lat="48.14607" lon="5.65273">
        <ele>367.2</ele>
        <time>2024-07-24T15:19:17Z</time>
      </trkpt>
      <trkpt lat="48.14604" lon="5.65294">
        <ele>366.6</ele>
        <time>2024-07-24T15:19:21Z</time>
      </trkpt>
      <trkpt lat="48.14588" lon="5.65302">
        <ele>364.8</ele>
        <time>2024-07-24T15:19:27Z</time>
      </trkpt>
      <trkpt lat="48.14585" lon="5.65304">
        <ele>365</ele>
        <time>2024-07-24T15:19:31Z</time>
      </trkpt>
      <trkpt lat="48.146" lon="5.65296">
        <ele>366</ele>
        <time>2024-07-24T15:24:22Z</time>
      </trkpt>
      <trkpt lat="48.14605" lon="5.65294">
        <ele>366.3</ele>
        <time>2024-07-24T15:24:26Z</time>
      </trkpt>
      <trkpt lat="48.14606" lon="5.65293">
        <ele>366.4</ele>
        <time>2024-07-24T15:24:27Z</time>
      </trkpt>
      <trkpt lat="48.14608" lon="5.65292">
        <ele>366.6</ele>
        <time>2024-07-24T15:24:30Z</time>
      </trkpt>
      <trkpt lat="48.14608" lon="5.65288">
        <ele>366.7</ele>
        <time>2024-07-24T15:24:31Z</time>
      </trkpt>
      <trkpt lat="48.14607" lon="5.65264">
        <ele>367.4</ele>
        <time>2024-07-24T15:24:36Z</time>
      </trkpt>
      <trkpt lat="48.14605" lon="5.65217">
        <ele>368.4</ele>
        <time>2024-07-24T15:24:44Z</time>
      </trkpt>
      <trkpt lat="48.14603" lon="5.65168">
        <ele>368.9</ele>
        <time>2024-07-24T15:24:51Z</time>
      </trkpt>
      <trkpt lat="48.14601" lon="5.6512">
        <ele>369.1</ele>
        <time>2024-07-24T15:24:58Z</time>
      </trkpt>
      <trkpt lat="48.146" lon="5.65078">
        <ele>369</ele>
        <time>2024-07-24T15:25:05Z</time>
      </trkpt>
      <trkpt lat="48.14598" lon="5.65025">
        <ele>368.3</ele>
        <time>2024-07-24T15:25:13Z</time>
      </trkpt>
      <trkpt lat="48.14591" lon="5.64974">
        <ele>366</ele>
        <time>2024-07-24T15:25:20Z</time>
      </trkpt>
      <trkpt lat="48.14584" lon="5.64927">
        <ele>363.6</ele>
        <time>2024-07-24T15:25:26Z</time>
      </trkpt>
      <trkpt lat="48.14583" lon="5.64921">
        <ele>363.3</ele>
        <time>2024-07-24T15:25:27Z</time>
      </trkpt>
      <trkpt lat="48.14579" lon="5.64909">
        <ele>362.5</ele>
        <time>2024-07-24T15:25:29Z</time>
      </trkpt>
      <trkpt lat="48.14555" lon="5.64889">
        <ele>360.1</ele>
        <time>2024-07-24T15:25:34Z</time>
      </trkpt>
      <trkpt lat="48.14546" lon="5.64882">
        <ele>359.3</ele>
        <time>2024-07-24T15:25:36Z</time>
      </trkpt>
      <trkpt lat="48.14535" lon="5.64873">
        <ele>358.2</ele>
        <time>2024-07-24T15:25:39Z</time>
      </trkpt>
      <trkpt lat="48.14527" lon="5.64867">
        <ele>357.5</ele>
        <time>2024-07-24T15:25:41Z</time>
      </trkpt>
      <trkpt lat="48.14522" lon="5.64851">
        <ele>356.8</ele>
        <time>2024-07-24T15:25:44Z</time>
      </trkpt>
      <trkpt lat="48.14517" lon="5.64828">
        <ele>356</ele>
        <time>2024-07-24T15:25:49Z</time>
      </trkpt>
      <trkpt lat="48.14518" lon="5.64819">
        <ele>355.8</ele>
        <time>2024-07-24T15:25:50Z</time>
      </trkpt>
      <trkpt lat="48.14523" lon="5.64808">
        <ele>356.1</ele>
        <time>2024-07-24T15:25:52Z</time>
      </trkpt>
      <trkpt lat="48.14526" lon="5.64802">
        <ele>356.3</ele>
        <time>2024-07-24T15:25:53Z</time>
      </trkpt>
      <trkpt lat="48.14543" lon="5.6477">
        <ele>358</ele>
        <time>2024-07-24T15:25:59Z</time>
      </trkpt>
      <trkpt lat="48.14548" lon="5.64762">
        <ele>358.7</ele>
        <time>2024-07-24T15:26:03Z</time>
      </trkpt>
      <trkpt lat="48.14548" lon="5.64762">
        <ele>358.7</ele>
        <time>2024-07-24T15:26:05Z</time>
      </trkpt>
      <trkpt lat="48.14547" lon="5.64752">
        <ele>359.3</ele>
        <time>2024-07-24T15:27:19Z</time>
      </trkpt>
      <trkpt lat="48.14544" lon="5.64752">
        <ele>358.9</ele>
        <time>2024-07-24T15:27:20Z</time>
      </trkpt>
      <trkpt lat="48.14525" lon="5.64749">
        <ele>354.5</ele>
        <time>2024-07-24T15:27:25Z</time>
      </trkpt>
      <trkpt lat="48.14511" lon="5.64747">
        <ele>351</ele>
        <time>2024-07-24T15:27:30Z</time>
      </trkpt>
      <trkpt lat="48.145" lon="5.64733">
        <ele>349.1</ele>
        <time>2024-07-24T15:27:34Z</time>
      </trkpt>
      <trkpt lat="48.14491" lon="5.64707">
        <ele>347.8</ele>
        <time>2024-07-24T15:27:38Z</time>
      </trkpt>
      <trkpt lat="48.14482" lon="5.64681">
        <ele>346.7</ele>
        <time>2024-07-24T15:27:41Z</time>
      </trkpt>
      <trkpt lat="48.14476" lon="5.64661">
        <ele>345.9</ele>
        <time>2024-07-24T15:27:43Z</time>
      </trkpt>
      <trkpt lat="48.14469" lon="5.64592">
        <ele>343.6</ele>
        <time>2024-07-24T15:27:49Z</time>
      </trkpt>
      <trkpt lat="48.14471" lon="5.6452">
        <ele>342.2</ele>
        <time>2024-07-24T15:27:55Z</time>
      </trkpt>
      <trkpt lat="48.14474" lon="5.6444">
        <ele>341.2</ele>
        <time>2024-07-24T15:28:02Z</time>
      </trkpt>
      <trkpt lat="48.14479" lon="5.64351">
        <ele>340.8</ele>
        <time>2024-07-24T15:28:10Z</time>
      </trkpt>
      <trkpt lat="48.14486" lon="5.6427">
        <ele>340.5</ele>
        <time>2024-07-24T15:28:17Z</time>
      </trkpt>
      <trkpt lat="48.14488" lon="5.64248">
        <ele>340.4</ele>
        <time>2024-07-24T15:28:19Z</time>
      </trkpt>
      <trkpt lat="48.14494" lon="5.64185">
        <ele>339.7</ele>
        <time>2024-07-24T15:28:25Z</time>
      </trkpt>
      <trkpt lat="48.145" lon="5.64117">
        <ele>339.5</ele>
        <time>2024-07-24T15:28:31Z</time>
      </trkpt>
      <trkpt lat="48.14503" lon="5.64096">
        <ele>339.4</ele>
        <time>2024-07-24T15:28:33Z</time>
      </trkpt>
      <trkpt lat="48.14507" lon="5.64064">
        <ele>339.3</ele>
        <time>2024-07-24T15:28:36Z</time>
      </trkpt>
      <trkpt lat="48.14529" lon="5.64014">
        <ele>339.1</ele>
        <time>2024-07-24T15:28:41Z</time>
      </trkpt>
      <trkpt lat="48.14567" lon="5.63945">
        <ele>339</ele>
        <time>2024-07-24T15:28:49Z</time>
      </trkpt>
      <trkpt lat="48.14601" lon="5.63883">
        <ele>338.7</ele>
        <time>2024-07-24T15:28:56Z</time>
      </trkpt>
      <trkpt lat="48.14617" lon="5.63821">
        <ele>338.5</ele>
        <time>2024-07-24T15:29:02Z</time>
      </trkpt>
      <trkpt lat="48.14638" lon="5.63738">
        <ele>338.4</ele>
        <time>2024-07-24T15:29:10Z</time>
      </trkpt>
      <trkpt lat="48.14659" lon="5.63656">
        <ele>338</ele>
        <time>2024-07-24T15:29:18Z</time>
      </trkpt>
      <trkpt lat="48.1468" lon="5.63575">
        <ele>337.8</ele>
        <time>2024-07-24T15:29:26Z</time>
      </trkpt>
      <trkpt lat="48.14695" lon="5.63517">
        <ele>337.7</ele>
        <time>2024-07-24T15:29:32Z</time>
      </trkpt>
      <trkpt lat="48.14721" lon="5.63454">
        <ele>337.7</ele>
        <time>2024-07-24T15:29:39Z</time>
      </trkpt>
      <trkpt lat="48.14731" lon="5.63406">
        <ele>337.8</ele>
        <time>2024-07-24T15:29:44Z</time>
      </trkpt>
      <trkpt lat="48.14736" lon="5.63331">
        <ele>337.3</ele>
        <time>2024-07-24T15:29:51Z</time>
      </trkpt>
      <trkpt lat="48.14736" lon="5.6332">
        <ele>337.3</ele>
        <time>2024-07-24T15:29:52Z</time>
      </trkpt>
      <trkpt lat="48.14735" lon="5.63266">
        <ele>337.2</ele>
        <time>2024-07-24T15:29:57Z</time>
      </trkpt>
      <trkpt lat="48.14733" lon="5.63179">
        <ele>336.7</ele>
        <time>2024-07-24T15:30:05Z</time>
      </trkpt>
      <trkpt lat="48.14732" lon="5.63108">
        <ele>337.2</ele>
        <time>2024-07-24T15:30:12Z</time>
      </trkpt>
      <trkpt lat="48.14731" lon="5.63039">
        <ele>337.9</ele>
        <time>2024-07-24T15:30:19Z</time>
      </trkpt>
      <trkpt lat="48.14715" lon="5.62951">
        <ele>336.5</ele>
        <time>2024-07-24T15:30:28Z</time>
      </trkpt>
      <trkpt lat="48.14698" lon="5.62874">
        <ele>335.9</ele>
        <time>2024-07-24T15:30:35Z</time>
      </trkpt>
      <trkpt lat="48.1468" lon="5.6281">
        <ele>334.9</ele>
        <time>2024-07-24T15:30:41Z</time>
      </trkpt>
      <trkpt lat="48.14654" lon="5.62738">
        <ele>334.6</ele>
        <time>2024-07-24T15:30:48Z</time>
      </trkpt>
      <trkpt lat="48.1465" lon="5.62728">
        <ele>334.6</ele>
        <time>2024-07-24T15:30:49Z</time>
      </trkpt>
      <trkpt lat="48.1462" lon="5.62653">
        <ele>334.3</ele>
        <time>2024-07-24T15:30:57Z</time>
      </trkpt>
      <trkpt lat="48.14616" lon="5.62644">
        <ele>334.3</ele>
        <time>2024-07-24T15:30:58Z</time>
      </trkpt>
      <trkpt lat="48.14584" lon="5.62566">
        <ele>334.2</ele>
        <time>2024-07-24T15:31:06Z</time>
      </trkpt>
      <trkpt lat="48.14557" lon="5.62489">
        <ele>333.6</ele>
        <time>2024-07-24T15:31:14Z</time>
      </trkpt>
      <trkpt lat="48.1453" lon="5.62409">
        <ele>333.6</ele>
        <time>2024-07-24T15:31:22Z</time>
      </trkpt>
      <trkpt lat="48.14526" lon="5.62399">
        <ele>333.6</ele>
        <time>2024-07-24T15:31:23Z</time>
      </trkpt>
      <trkpt lat="48.145" lon="5.62322">
        <ele>333.5</ele>
        <time>2024-07-24T15:31:31Z</time>
      </trkpt>
      <trkpt lat="48.14476" lon="5.62244">
        <ele>333.6</ele>
        <time>2024-07-24T15:31:39Z</time>
      </trkpt>
      <trkpt lat="48.14459" lon="5.62165">
        <ele>333.6</ele>
        <time>2024-07-24T15:31:47Z</time>
      </trkpt>
      <trkpt lat="48.14457" lon="5.62155">
        <ele>333.6</ele>
        <time>2024-07-24T15:31:48Z</time>
      </trkpt>
      <trkpt lat="48.14439" lon="5.62087">
        <ele>333.8</ele>
        <time>2024-07-24T15:31:55Z</time>
      </trkpt>
      <trkpt lat="48.14419" lon="5.62011">
        <ele>334</ele>
        <time>2024-07-24T15:32:03Z</time>
      </trkpt>
      <trkpt lat="48.14403" lon="5.61947">
        <ele>334.2</ele>
        <time>2024-07-24T15:32:10Z</time>
      </trkpt>
      <trkpt lat="48.1439" lon="5.61868">
        <ele>333.6</ele>
        <time>2024-07-24T15:32:18Z</time>
      </trkpt>
      <trkpt lat="48.14382" lon="5.61781">
        <ele>332.5</ele>
        <time>2024-07-24T15:32:26Z</time>
      </trkpt>
      <trkpt lat="48.14381" lon="5.61769">
        <ele>332.5</ele>
        <time>2024-07-24T15:32:27Z</time>
      </trkpt>
      <trkpt lat="48.14382" lon="5.61705">
        <ele>332.9</ele>
        <time>2024-07-24T15:32:33Z</time>
      </trkpt>
      <trkpt lat="48.14389" lon="5.61633">
        <ele>333.6</ele>
        <time>2024-07-24T15:32:40Z</time>
      </trkpt>
      <trkpt lat="48.14388" lon="5.61615">
        <ele>334</ele>
        <time>2024-07-24T15:32:42Z</time>
      </trkpt>
      <trkpt lat="48.14385" lon="5.6158">
        <ele>334.2</ele>
        <time>2024-07-24T15:32:46Z</time>
      </trkpt>
      <trkpt lat="48.14374" lon="5.61544">
        <ele>333.5</ele>
        <time>2024-07-24T15:32:50Z</time>
      </trkpt>
      <trkpt lat="48.14347" lon="5.6148">
        <ele>332.4</ele>
        <time>2024-07-24T15:32:57Z</time>
      </trkpt>
      <trkpt lat="48.14318" lon="5.61414">
        <ele>331.2</ele>
        <time>2024-07-24T15:33:04Z</time>
      </trkpt>
      <trkpt lat="48.14288" lon="5.61346">
        <ele>330.5</ele>
        <time>2024-07-24T15:33:11Z</time>
      </trkpt>
      <trkpt lat="48.1428" lon="5.61326">
        <ele>330.4</ele>
        <time>2024-07-24T15:33:13Z</time>
      </trkpt>
      <trkpt lat="48.14251" lon="5.61258">
        <ele>329.6</ele>
        <time>2024-07-24T15:33:20Z</time>
      </trkpt>
      <trkpt lat="48.14244" lon="5.61237">
        <ele>329.3</ele>
        <time>2024-07-24T15:33:22Z</time>
      </trkpt>
      <trkpt lat="48.14218" lon="5.61155">
        <ele>328.2</ele>
        <time>2024-07-24T15:33:30Z</time>
      </trkpt>
      <trkpt lat="48.142" lon="5.61076">
        <ele>327.9</ele>
        <time>2024-07-24T15:33:37Z</time>
      </trkpt>
      <trkpt lat="48.142" lon="5.61065">
        <ele>327.9</ele>
        <time>2024-07-24T15:33:38Z</time>
      </trkpt>
      <trkpt lat="48.14194" lon="5.6099">
        <ele>328</ele>
        <time>2024-07-24T15:33:45Z</time>
      </trkpt>
      <trkpt lat="48.14195" lon="5.60916">
        <ele>327.9</ele>
        <time>2024-07-24T15:33:52Z</time>
      </trkpt>
      <trkpt lat="48.14195" lon="5.60857">
        <ele>327.9</ele>
        <time>2024-07-24T15:33:58Z</time>
      </trkpt>
      <trkpt lat="48.14196" lon="5.60768">
        <ele>328.1</ele>
        <time>2024-07-24T15:34:07Z</time>
      </trkpt>
      <trkpt lat="48.14199" lon="5.6068">
        <ele>328.3</ele>
        <time>2024-07-24T15:34:16Z</time>
      </trkpt>
      <trkpt lat="48.14201" lon="5.6061">
        <ele>328.6</ele>
        <time>2024-07-24T15:34:23Z</time>
      </trkpt>
      <trkpt lat="48.14206" lon="5.60532">
        <ele>329</ele>
        <time>2024-07-24T15:34:31Z</time>
      </trkpt>
      <trkpt lat="48.14214" lon="5.60466">
        <ele>329.3</ele>
        <time>2024-07-24T15:34:38Z</time>
      </trkpt>
      <trkpt lat="48.14222" lon="5.60404">
        <ele>329</ele>
        <time>2024-07-24T15:34:45Z</time>
      </trkpt>
      <trkpt lat="48.14229" lon="5.60343">
        <ele>328.7</ele>
        <time>2024-07-24T15:34:52Z</time>
      </trkpt>
      <trkpt lat="48.14237" lon="5.60278">
        <ele>328</ele>
        <time>2024-07-24T15:34:59Z</time>
      </trkpt>
      <trkpt lat="48.14247" lon="5.60202">
        <ele>327.6</ele>
        <time>2024-07-24T15:35:07Z</time>
      </trkpt>
      <trkpt lat="48.14254" lon="5.60154">
        <ele>327.4</ele>
        <time>2024-07-24T15:35:12Z</time>
      </trkpt>
      <trkpt lat="48.14267" lon="5.60072">
        <ele>327.2</ele>
        <time>2024-07-24T15:35:20Z</time>
      </trkpt>
      <trkpt lat="48.1428" lon="5.59994">
        <ele>326.7</ele>
        <time>2024-07-24T15:35:28Z</time>
      </trkpt>
      <trkpt lat="48.14284" lon="5.59974">
        <ele>326.7</ele>
        <time>2024-07-24T15:35:30Z</time>
      </trkpt>
      <trkpt lat="48.14301" lon="5.59896">
        <ele>327.1</ele>
        <time>2024-07-24T15:35:38Z</time>
      </trkpt>
      <trkpt lat="48.1432" lon="5.5982">
        <ele>326.9</ele>
        <time>2024-07-24T15:35:46Z</time>
      </trkpt>
      <trkpt lat="48.14339" lon="5.59739">
        <ele>326.7</ele>
        <time>2024-07-24T15:35:54Z</time>
      </trkpt>
      <trkpt lat="48.14354" lon="5.59661">
        <ele>325.9</ele>
        <time>2024-07-24T15:36:02Z</time>
      </trkpt>
      <trkpt lat="48.14354" lon="5.59641">
        <ele>325.6</ele>
        <time>2024-07-24T15:36:04Z</time>
      </trkpt>
      <trkpt lat="48.14351" lon="5.59621">
        <ele>325.2</ele>
        <time>2024-07-24T15:36:06Z</time>
      </trkpt>
      <trkpt lat="48.14337" lon="5.59565">
        <ele>323.3</ele>
        <time>2024-07-24T15:36:11Z</time>
      </trkpt>
      <trkpt lat="48.14317" lon="5.59479">
        <ele>321.3</ele>
        <time>2024-07-24T15:36:18Z</time>
      </trkpt>
      <trkpt lat="48.14315" lon="5.59467">
        <ele>321.1</ele>
        <time>2024-07-24T15:36:19Z</time>
      </trkpt>
      <trkpt lat="48.14313" lon="5.59443">
        <ele>320.8</ele>
        <time>2024-07-24T15:36:21Z</time>
      </trkpt>
      <trkpt lat="48.14316" lon="5.5942">
        <ele>320.5</ele>
        <time>2024-07-24T15:36:23Z</time>
      </trkpt>
      <trkpt lat="48.14328" lon="5.59333">
        <ele>320</ele>
        <time>2024-07-24T15:36:30Z</time>
      </trkpt>
      <trkpt lat="48.14336" lon="5.59247">
        <ele>320.3</ele>
        <time>2024-07-24T15:36:37Z</time>
      </trkpt>
      <trkpt lat="48.14341" lon="5.59173">
        <ele>320.3</ele>
        <time>2024-07-24T15:36:44Z</time>
      </trkpt>
      <trkpt lat="48.14347" lon="5.59088">
        <ele>320.3</ele>
        <time>2024-07-24T15:36:52Z</time>
      </trkpt>
      <trkpt lat="48.14348" lon="5.59077">
        <ele>320.3</ele>
        <time>2024-07-24T15:36:53Z</time>
      </trkpt>
      <trkpt lat="48.14355" lon="5.59016">
        <ele>320.1</ele>
        <time>2024-07-24T15:36:59Z</time>
      </trkpt>
      <trkpt lat="48.14368" lon="5.58931">
        <ele>319.7</ele>
        <time>2024-07-24T15:37:07Z</time>
      </trkpt>
      <trkpt lat="48.14374" lon="5.58869">
        <ele>319.7</ele>
        <time>2024-07-24T15:37:13Z</time>
      </trkpt>
      <trkpt lat="48.14375" lon="5.58792">
        <ele>319.5</ele>
        <time>2024-07-24T15:37:21Z</time>
      </trkpt>
      <trkpt lat="48.14376" lon="5.58727">
        <ele>319.3</ele>
        <time>2024-07-24T15:37:28Z</time>
      </trkpt>
      <trkpt lat="48.14376" lon="5.5866">
        <ele>318.8</ele>
        <time>2024-07-24T15:37:34Z</time>
      </trkpt>
      <trkpt lat="48.14377" lon="5.5858">
        <ele>318.5</ele>
        <time>2024-07-24T15:37:41Z</time>
      </trkpt>
      <trkpt lat="48.14378" lon="5.585">
        <ele>318.3</ele>
        <time>2024-07-24T15:37:48Z</time>
      </trkpt>
      <trkpt lat="48.14378" lon="5.58429">
        <ele>318.4</ele>
        <time>2024-07-24T15:37:55Z</time>
      </trkpt>
      <trkpt lat="48.14386" lon="5.58349">
        <ele>318.6</ele>
        <time>2024-07-24T15:38:03Z</time>
      </trkpt>
      <trkpt lat="48.14395" lon="5.58284">
        <ele>318.8</ele>
        <time>2024-07-24T15:38:10Z</time>
      </trkpt>
      <trkpt lat="48.14416" lon="5.58223">
        <ele>319.5</ele>
        <time>2024-07-24T15:38:17Z</time>
      </trkpt>
      <trkpt lat="48.14424" lon="5.58171">
        <ele>320.6</ele>
        <time>2024-07-24T15:38:23Z</time>
      </trkpt>
      <trkpt lat="48.14432" lon="5.58123">
        <ele>320.9</ele>
        <time>2024-07-24T15:38:29Z</time>
      </trkpt>
      <trkpt lat="48.14444" lon="5.58071">
        <ele>320.4</ele>
        <time>2024-07-24T15:38:35Z</time>
      </trkpt>
      <trkpt lat="48.14463" lon="5.57989">
        <ele>319.9</ele>
        <time>2024-07-24T15:38:44Z</time>
      </trkpt>
      <trkpt lat="48.14466" lon="5.57979">
        <ele>319.8</ele>
        <time>2024-07-24T15:38:45Z</time>
      </trkpt>
      <trkpt lat="48.14479" lon="5.57925">
        <ele>319.5</ele>
        <time>2024-07-24T15:38:51Z</time>
      </trkpt>
      <trkpt lat="48.14493" lon="5.57871">
        <ele>319.3</ele>
        <time>2024-07-24T15:38:57Z</time>
      </trkpt>
      <trkpt lat="48.1451" lon="5.57801">
        <ele>319.1</ele>
        <time>2024-07-24T15:39:05Z</time>
      </trkpt>
      <trkpt lat="48.14532" lon="5.57731">
        <ele>318.6</ele>
        <time>2024-07-24T15:39:13Z</time>
      </trkpt>
      <trkpt lat="48.14555" lon="5.57674">
        <ele>318.5</ele>
        <time>2024-07-24T15:39:20Z</time>
      </trkpt>
      <trkpt lat="48.14565" lon="5.57652">
        <ele>318.4</ele>
        <time>2024-07-24T15:39:23Z</time>
      </trkpt>
      <trkpt lat="48.14572" lon="5.57638">
        <ele>318.3</ele>
        <time>2024-07-24T15:39:25Z</time>
      </trkpt>
      <trkpt lat="48.14596" lon="5.57608">
        <ele>318</ele>
        <time>2024-07-24T15:39:30Z</time>
      </trkpt>
      <trkpt lat="48.14627" lon="5.57561">
        <ele>318.4</ele>
        <time>2024-07-24T15:39:37Z</time>
      </trkpt>
      <trkpt lat="48.14658" lon="5.57507">
        <ele>319.3</ele>
        <time>2024-07-24T15:39:45Z</time>
      </trkpt>
      <trkpt lat="48.1468" lon="5.57469">
        <ele>320.1</ele>
        <time>2024-07-24T15:39:51Z</time>
      </trkpt>
      <trkpt lat="48.14704" lon="5.57426">
        <ele>321</ele>
        <time>2024-07-24T15:39:58Z</time>
      </trkpt>
      <trkpt lat="48.14737" lon="5.57387">
        <ele>322.1</ele>
        <time>2024-07-24T15:40:06Z</time>
      </trkpt>
      <trkpt lat="48.14767" lon="5.57362">
        <ele>323</ele>
        <time>2024-07-24T15:40:13Z</time>
      </trkpt>
      <trkpt lat="48.14799" lon="5.5734">
        <ele>323.8</ele>
        <time>2024-07-24T15:40:20Z</time>
      </trkpt>
      <trkpt lat="48.14823" lon="5.57324">
        <ele>324.8</ele>
        <time>2024-07-24T15:40:26Z</time>
      </trkpt>
      <trkpt lat="48.14827" lon="5.57321">
        <ele>325.1</ele>
        <time>2024-07-24T15:40:27Z</time>
      </trkpt>
      <trkpt lat="48.14834" lon="5.57315">
        <ele>325.5</ele>
        <time>2024-07-24T15:40:29Z</time>
      </trkpt>
      <trkpt lat="48.14846" lon="5.573">
        <ele>326.4</ele>
        <time>2024-07-24T15:40:33Z</time>
      </trkpt>
      <trkpt lat="48.14859" lon="5.57283">
        <ele>327.2</ele>
        <time>2024-07-24T15:40:39Z</time>
      </trkpt>
      <trkpt lat="48.14868" lon="5.57273">
        <ele>327.6</ele>
        <time>2024-07-24T15:40:44Z</time>
      </trkpt>
      <trkpt lat="48.14869" lon="5.57271">
        <ele>327.7</ele>
        <time>2024-07-24T15:40:46Z</time>
      </trkpt>
      <trkpt lat="48.14869" lon="5.5727">
        <ele>327.7</ele>
        <time>2024-07-24T15:40:49Z</time>
      </trkpt>
      <trkpt lat="48.14871" lon="5.57266">
        <ele>327.9</ele>
        <time>2024-07-24T15:44:52Z</time>
      </trkpt>
      <trkpt lat="48.14874" lon="5.57258">
        <ele>328.2</ele>
        <time>2024-07-24T15:44:55Z</time>
      </trkpt>
      <trkpt lat="48.14881" lon="5.57243">
        <ele>328.8</ele>
        <time>2024-07-24T15:45:00Z</time>
      </trkpt>
      <trkpt lat="48.14889" lon="5.57214">
        <ele>329.6</ele>
        <time>2024-07-24T15:45:07Z</time>
      </trkpt>
      <trkpt lat="48.14901" lon="5.57175">
        <ele>330</ele>
        <time>2024-07-24T15:45:14Z</time>
      </trkpt>
      <trkpt lat="48.14914" lon="5.57133">
        <ele>329.4</ele>
        <time>2024-07-24T15:45:20Z</time>
      </trkpt>
      <trkpt lat="48.14918" lon="5.57118">
        <ele>329</ele>
        <time>2024-07-24T15:45:22Z</time>
      </trkpt>
      <trkpt lat="48.1493" lon="5.57078">
        <ele>328.4</ele>
        <time>2024-07-24T15:45:27Z</time>
      </trkpt>
      <trkpt lat="48.14953" lon="5.57026">
        <ele>328.1</ele>
        <time>2024-07-24T15:45:33Z</time>
      </trkpt>
      <trkpt lat="48.14976" lon="5.56988">
        <ele>328.5</ele>
        <time>2024-07-24T15:45:38Z</time>
      </trkpt>
      <trkpt lat="48.15008" lon="5.56937">
        <ele>328.8</ele>
        <time>2024-07-24T15:45:45Z</time>
      </trkpt>
      <trkpt lat="48.15038" lon="5.56888">
        <ele>326.9</ele>
        <time>2024-07-24T15:45:52Z</time>
      </trkpt>
      <trkpt lat="48.15038" lon="5.56888">
        <ele>326.9</ele>
        <time>2024-07-24T15:45:53Z</time>
      </trkpt>
      <trkpt lat="48.15058" lon="5.56842">
        <ele>324.7</ele>
        <time>2024-07-24T15:45:57Z</time>
      </trkpt>
      <trkpt lat="48.15061" lon="5.56832">
        <ele>324.1</ele>
        <time>2024-07-24T15:45:58Z</time>
      </trkpt>
      <trkpt lat="48.15066" lon="5.56799">
        <ele>322.5</ele>
        <time>2024-07-24T15:46:01Z</time>
      </trkpt>
      <trkpt lat="48.15069" lon="5.56753">
        <ele>320.5</ele>
        <time>2024-07-24T15:46:05Z</time>
      </trkpt>
      <trkpt lat="48.15072" lon="5.56743">
        <ele>320.1</ele>
        <time>2024-07-24T15:46:06Z</time>
      </trkpt>
      <trkpt lat="48.15075" lon="5.56733">
        <ele>319.8</ele>
        <time>2024-07-24T15:46:07Z</time>
      </trkpt>
      <trkpt lat="48.15087" lon="5.56721">
        <ele>319.3</ele>
        <time>2024-07-24T15:46:09Z</time>
      </trkpt>
      <trkpt lat="48.151" lon="5.56712">
        <ele>318.9</ele>
        <time>2024-07-24T15:46:11Z</time>
      </trkpt>
      <trkpt lat="48.15114" lon="5.56707">
        <ele>318.4</ele>
        <time>2024-07-24T15:46:13Z</time>
      </trkpt>
      <trkpt lat="48.15162" lon="5.56698">
        <ele>317.2</ele>
        <time>2024-07-24T15:46:19Z</time>
      </trkpt>
      <trkpt lat="48.15177" lon="5.56701">
        <ele>317.1</ele>
        <time>2024-07-24T15:46:21Z</time>
      </trkpt>
      <trkpt lat="48.15185" lon="5.56702">
        <ele>317</ele>
        <time>2024-07-24T15:46:24Z</time>
      </trkpt>
      <trkpt lat="48.15246" lon="5.5672">
        <ele>317.1</ele>
        <time>2024-07-24T15:46:30Z</time>
      </trkpt>
      <trkpt lat="48.15267" lon="5.56728">
        <ele>317.1</ele>
        <time>2024-07-24T15:46:33Z</time>
      </trkpt>
      <trkpt lat="48.15322" lon="5.56747">
        <ele>316.9</ele>
        <time>2024-07-24T15:46:41Z</time>
      </trkpt>
      <trkpt lat="48.1538" lon="5.56767">
        <ele>316.1</ele>
        <time>2024-07-24T15:46:49Z</time>
      </trkpt>
      <trkpt lat="48.15387" lon="5.5677">
        <ele>316</ele>
        <time>2024-07-24T15:46:50Z</time>
      </trkpt>
      <trkpt lat="48.15436" lon="5.56796">
        <ele>315.5</ele>
        <time>2024-07-24T15:46:57Z</time>
      </trkpt>
      <trkpt lat="48.1549" lon="5.56833">
        <ele>314.9</ele>
        <time>2024-07-24T15:47:05Z</time>
      </trkpt>
      <trkpt lat="48.15497" lon="5.56838">
        <ele>314.8</ele>
        <time>2024-07-24T15:47:06Z</time>
      </trkpt>
      <trkpt lat="48.15545" lon="5.56871">
        <ele>314.4</ele>
        <time>2024-07-24T15:47:13Z</time>
      </trkpt>
      <trkpt lat="48.15597" lon="5.56906">
        <ele>314.3</ele>
        <time>2024-07-24T15:47:21Z</time>
      </trkpt>
      <trkpt lat="48.15648" lon="5.56942">
        <ele>314.1</ele>
        <time>2024-07-24T15:47:29Z</time>
      </trkpt>
      <trkpt lat="48.15654" lon="5.56946">
        <ele>314.1</ele>
        <time>2024-07-24T15:47:30Z</time>
      </trkpt>
      <trkpt lat="48.15704" lon="5.5698">
        <ele>314.2</ele>
        <time>2024-07-24T15:47:38Z</time>
      </trkpt>
      <trkpt lat="48.15755" lon="5.57015">
        <ele>314.2</ele>
        <time>2024-07-24T15:47:46Z</time>
      </trkpt>
      <trkpt lat="48.15808" lon="5.57045">
        <ele>314.2</ele>
        <time>2024-07-24T15:47:54Z</time>
      </trkpt>
      <trkpt lat="48.15814" lon="5.57049">
        <ele>314.2</ele>
        <time>2024-07-24T15:47:55Z</time>
      </trkpt>
      <trkpt lat="48.15865" lon="5.57077">
        <ele>314</ele>
        <time>2024-07-24T15:48:03Z</time>
      </trkpt>
      <trkpt lat="48.15915" lon="5.57104">
        <ele>313.9</ele>
        <time>2024-07-24T15:48:11Z</time>
      </trkpt>
      <trkpt lat="48.15949" lon="5.57123">
        <ele>314</ele>
        <time>2024-07-24T15:48:17Z</time>
      </trkpt>
      <trkpt lat="48.15958" lon="5.57128">
        <ele>314</ele>
        <time>2024-07-24T15:48:19Z</time>
      </trkpt>
      <trkpt lat="48.15968" lon="5.57128">
        <ele>313.9</ele>
        <time>2024-07-24T15:48:21Z</time>
      </trkpt>
      <trkpt lat="48.15976" lon="5.57122">
        <ele>313.3</ele>
        <time>2024-07-24T15:48:23Z</time>
      </trkpt>
      <trkpt lat="48.15987" lon="5.57114">
        <ele>312.3</ele>
        <time>2024-07-24T15:48:26Z</time>
      </trkpt>
      <trkpt lat="48.16006" lon="5.571">
        <ele>311.9</ele>
        <time>2024-07-24T15:48:32Z</time>
      </trkpt>
      <trkpt lat="48.16027" lon="5.57083">
        <ele>311.7</ele>
        <time>2024-07-24T15:48:37Z</time>
      </trkpt>
      <trkpt lat="48.16043" lon="5.57074">
        <ele>311.6</ele>
        <time>2024-07-24T15:48:42Z</time>
      </trkpt>
      <trkpt lat="48.16055" lon="5.57064">
        <ele>311.3</ele>
        <time>2024-07-24T15:48:46Z</time>
      </trkpt>
      <trkpt lat="48.16059" lon="5.5706">
        <ele>311.2</ele>
        <time>2024-07-24T15:48:47Z</time>
      </trkpt>
      <trkpt lat="48.16062" lon="5.57057">
        <ele>311.1</ele>
        <time>2024-07-24T15:48:48Z</time>
      </trkpt>
      <trkpt lat="48.16069" lon="5.57034">
        <ele>310.7</ele>
        <time>2024-07-24T15:48:52Z</time>
      </trkpt>
      <trkpt lat="48.16077" lon="5.57005">
        <ele>310.2</ele>
        <time>2024-07-24T15:48:57Z</time>
      </trkpt>
      <trkpt lat="48.16083" lon="5.56995">
        <ele>310</ele>
        <time>2024-07-24T15:48:59Z</time>
      </trkpt>
      <trkpt lat="48.1609" lon="5.56983">
        <ele>309.7</ele>
        <time>2024-07-24T15:49:01Z</time>
      </trkpt>
      <trkpt lat="48.16095" lon="5.56979">
        <ele>309.5</ele>
        <time>2024-07-24T15:49:02Z</time>
      </trkpt>
      <trkpt lat="48.16125" lon="5.56965">
        <ele>309</ele>
        <time>2024-07-24T15:49:07Z</time>
      </trkpt>
      <trkpt lat="48.16155" lon="5.5695">
        <ele>308.9</ele>
        <time>2024-07-24T15:49:13Z</time>
      </trkpt>
      <trkpt lat="48.16189" lon="5.5693">
        <ele>309</ele>
        <time>2024-07-24T15:49:20Z</time>
      </trkpt>
      <trkpt lat="48.16211" lon="5.56916">
        <ele>309.2</ele>
        <time>2024-07-24T15:49:24Z</time>
      </trkpt>
      <trkpt lat="48.16223" lon="5.56908">
        <ele>309.3</ele>
        <time>2024-07-24T15:49:26Z</time>
      </trkpt>
      <trkpt lat="48.16259" lon="5.56885">
        <ele>310</ele>
        <time>2024-07-24T15:49:32Z</time>
      </trkpt>
      <trkpt lat="48.16265" lon="5.56882">
        <ele>310.2</ele>
        <time>2024-07-24T15:49:33Z</time>
      </trkpt>
      <trkpt lat="48.16269" lon="5.56877">
        <ele>310.3</ele>
        <time>2024-07-24T15:49:34Z</time>
      </trkpt>
      <trkpt lat="48.16275" lon="5.56865">
        <ele>310.7</ele>
        <time>2024-07-24T15:49:36Z</time>
      </trkpt>
      <trkpt lat="48.16278" lon="5.56859">
        <ele>310.8</ele>
        <time>2024-07-24T15:49:37Z</time>
      </trkpt>
      <trkpt lat="48.1629" lon="5.56832">
        <ele>311.5</ele>
        <time>2024-07-24T15:49:42Z</time>
      </trkpt>
      <trkpt lat="48.16295" lon="5.56811">
        <ele>311.9</ele>
        <time>2024-07-24T15:49:46Z</time>
      </trkpt>
      <trkpt lat="48.16293" lon="5.56805">
        <ele>311.9</ele>
        <time>2024-07-24T15:49:47Z</time>
      </trkpt>
      <trkpt lat="48.16292" lon="5.56799">
        <ele>311.9</ele>
        <time>2024-07-24T15:49:48Z</time>
      </trkpt>
      <trkpt lat="48.16289" lon="5.56785">
        <ele>311.9</ele>
        <time>2024-07-24T15:49:50Z</time>
      </trkpt>
      <trkpt lat="48.16287" lon="5.56779">
        <ele>311.8</ele>
        <time>2024-07-24T15:49:51Z</time>
      </trkpt>
      <trkpt lat="48.16264" lon="5.56737">
        <ele>311.6</ele>
        <time>2024-07-24T15:49:57Z</time>
      </trkpt>
      <trkpt lat="48.16228" lon="5.56677">
        <ele>311.4</ele>
        <time>2024-07-24T15:50:05Z</time>
      </trkpt>
      <trkpt lat="48.16195" lon="5.56621">
        <ele>311.4</ele>
        <time>2024-07-24T15:50:13Z</time>
      </trkpt>
      <trkpt lat="48.16164" lon="5.56569">
        <ele>311.3</ele>
        <time>2024-07-24T15:50:21Z</time>
      </trkpt>
      <trkpt lat="48.16135" lon="5.56529">
        <ele>311.1</ele>
        <time>2024-07-24T15:50:27Z</time>
      </trkpt>
      <trkpt lat="48.16089" lon="5.56475">
        <ele>310.9</ele>
        <time>2024-07-24T15:50:36Z</time>
      </trkpt>
      <trkpt lat="48.16053" lon="5.56432">
        <ele>310.9</ele>
        <time>2024-07-24T15:50:43Z</time>
      </trkpt>
      <trkpt lat="48.16016" lon="5.5639">
        <ele>310.9</ele>
        <time>2024-07-24T15:50:50Z</time>
      </trkpt>
      <trkpt lat="48.15973" lon="5.56362">
        <ele>310.9</ele>
        <time>2024-07-24T15:50:57Z</time>
      </trkpt>
      <trkpt lat="48.15938" lon="5.5634">
        <ele>310.8</ele>
        <time>2024-07-24T15:51:03Z</time>
      </trkpt>
      <trkpt lat="48.15897" lon="5.56318">
        <ele>310.7</ele>
        <time>2024-07-24T15:51:10Z</time>
      </trkpt>
      <trkpt lat="48.15892" lon="5.56315">
        <ele>310.7</ele>
        <time>2024-07-24T15:51:11Z</time>
      </trkpt>
      <trkpt lat="48.15868" lon="5.56315">
        <ele>310.7</ele>
        <time>2024-07-24T15:51:15Z</time>
      </trkpt>
      <trkpt lat="48.15817" lon="5.56324">
        <ele>311</ele>
        <time>2024-07-24T15:51:23Z</time>
      </trkpt>
      <trkpt lat="48.15779" lon="5.56331">
        <ele>311.4</ele>
        <time>2024-07-24T15:51:30Z</time>
      </trkpt>
      <trkpt lat="48.15762" lon="5.56327">
        <ele>311.6</ele>
        <time>2024-07-24T15:51:32Z</time>
      </trkpt>
      <trkpt lat="48.15758" lon="5.56322">
        <ele>311.7</ele>
        <time>2024-07-24T15:51:33Z</time>
      </trkpt>
      <trkpt lat="48.15754" lon="5.56314">
        <ele>311.8</ele>
        <time>2024-07-24T15:51:34Z</time>
      </trkpt>
      <trkpt lat="48.15754" lon="5.56296">
        <ele>311.9</ele>
        <time>2024-07-24T15:51:36Z</time>
      </trkpt>
      <trkpt lat="48.15753" lon="5.56226">
        <ele>312.6</ele>
        <time>2024-07-24T15:51:44Z</time>
      </trkpt>
      <trkpt lat="48.15752" lon="5.56157">
        <ele>313.7</ele>
        <time>2024-07-24T15:51:52Z</time>
      </trkpt>
      <trkpt lat="48.15752" lon="5.56102">
        <ele>314.7</ele>
        <time>2024-07-24T15:51:59Z</time>
      </trkpt>
      <trkpt lat="48.15755" lon="5.56082">
        <ele>315</ele>
        <time>2024-07-24T15:52:02Z</time>
      </trkpt>
      <trkpt lat="48.15761" lon="5.56063">
        <ele>315.2</ele>
        <time>2024-07-24T15:52:05Z</time>
      </trkpt>
      <trkpt lat="48.15764" lon="5.56056">
        <ele>315.3</ele>
        <time>2024-07-24T15:52:06Z</time>
      </trkpt>
      <trkpt lat="48.15776" lon="5.5602">
        <ele>315.8</ele>
        <time>2024-07-24T15:52:11Z</time>
      </trkpt>
      <trkpt lat="48.15785" lon="5.55993">
        <ele>316.1</ele>
        <time>2024-07-24T15:52:15Z</time>
      </trkpt>
      <trkpt lat="48.15787" lon="5.55987">
        <ele>316.2</ele>
        <time>2024-07-24T15:52:16Z</time>
      </trkpt>
      <trkpt lat="48.15799" lon="5.55946">
        <ele>316.8</ele>
        <time>2024-07-24T15:52:22Z</time>
      </trkpt>
      <trkpt lat="48.15805" lon="5.55915">
        <ele>317.3</ele>
        <time>2024-07-24T15:52:26Z</time>
      </trkpt>
      <trkpt lat="48.15805" lon="5.55901">
        <ele>317.5</ele>
        <time>2024-07-24T15:52:28Z</time>
      </trkpt>
      <trkpt lat="48.15802" lon="5.55849">
        <ele>318.3</ele>
        <time>2024-07-24T15:52:35Z</time>
      </trkpt>
      <trkpt lat="48.15799" lon="5.55777">
        <ele>319.2</ele>
        <time>2024-07-24T15:52:44Z</time>
      </trkpt>
      <trkpt lat="48.15795" lon="5.55706">
        <ele>319.8</ele>
        <time>2024-07-24T15:52:53Z</time>
      </trkpt>
      <trkpt lat="48.15799" lon="5.55664">
        <ele>320.2</ele>
        <time>2024-07-24T15:52:59Z</time>
      </trkpt>
      <trkpt lat="48.15805" lon="5.55616">
        <ele>320.8</ele>
        <time>2024-07-24T15:53:06Z</time>
      </trkpt>
      <trkpt lat="48.15812" lon="5.55569">
        <ele>321.3</ele>
        <time>2024-07-24T15:53:13Z</time>
      </trkpt>
      <trkpt lat="48.15819" lon="5.55518">
        <ele>321.8</ele>
        <time>2024-07-24T15:53:20Z</time>
      </trkpt>
      <trkpt lat="48.15826" lon="5.5547">
        <ele>322.2</ele>
        <time>2024-07-24T15:53:26Z</time>
      </trkpt>
      <trkpt lat="48.15828" lon="5.55455">
        <ele>322.3</ele>
        <time>2024-07-24T15:53:28Z</time>
      </trkpt>
      <trkpt lat="48.15827" lon="5.5544">
        <ele>322.4</ele>
        <time>2024-07-24T15:53:30Z</time>
      </trkpt>
      <trkpt lat="48.15825" lon="5.55434">
        <ele>322.4</ele>
        <time>2024-07-24T15:53:31Z</time>
      </trkpt>
      <trkpt lat="48.1582" lon="5.5542">
        <ele>322.5</ele>
        <time>2024-07-24T15:53:33Z</time>
      </trkpt>
      <trkpt lat="48.1581" lon="5.55391">
        <ele>322.8</ele>
        <time>2024-07-24T15:53:37Z</time>
      </trkpt>
      <trkpt lat="48.15806" lon="5.55362">
        <ele>323.2</ele>
        <time>2024-07-24T15:53:41Z</time>
      </trkpt>
      <trkpt lat="48.15805" lon="5.55354">
        <ele>323.3</ele>
        <time>2024-07-24T15:53:42Z</time>
      </trkpt>
      <trkpt lat="48.15804" lon="5.55339">
        <ele>323.7</ele>
        <time>2024-07-24T15:53:44Z</time>
      </trkpt>
      <trkpt lat="48.15807" lon="5.55325">
        <ele>324.1</ele>
        <time>2024-07-24T15:53:46Z</time>
      </trkpt>
      <trkpt lat="48.15808" lon="5.55318">
        <ele>324.3</ele>
        <time>2024-07-24T15:53:47Z</time>
      </trkpt>
      <trkpt lat="48.1581" lon="5.55312">
        <ele>324.4</ele>
        <time>2024-07-24T15:53:48Z</time>
      </trkpt>
      <trkpt lat="48.15817" lon="5.55283">
        <ele>325.1</ele>
        <time>2024-07-24T15:53:53Z</time>
      </trkpt>
      <trkpt lat="48.15821" lon="5.55269">
        <ele>325.4</ele>
        <time>2024-07-24T15:53:56Z</time>
      </trkpt>
      <trkpt lat="48.15822" lon="5.55266">
        <ele>325.4</ele>
        <time>2024-07-24T15:53:57Z</time>
      </trkpt>
      <trkpt lat="48.15819" lon="5.55264">
        <ele>325.3</ele>
        <time>2024-07-24T15:53:58Z</time>
      </trkpt>
      <trkpt lat="48.15814" lon="5.55265">
        <ele>325.1</ele>
        <time>2024-07-24T15:54:00Z</time>
      </trkpt>
      <trkpt lat="48.1581" lon="5.55267">
        <ele>325</ele>
        <time>2024-07-24T15:54:01Z</time>
      </trkpt>
      <trkpt lat="48.15795" lon="5.55272">
        <ele>324.6</ele>
        <time>2024-07-24T15:54:04Z</time>
      </trkpt>
      <trkpt lat="48.15757" lon="5.55285">
        <ele>323.6</ele>
        <time>2024-07-24T15:54:11Z</time>
      </trkpt>
      <trkpt lat="48.15725" lon="5.55303">
        <ele>323</ele>
        <time>2024-07-24T15:54:17Z</time>
      </trkpt>
      <trkpt lat="48.15702" lon="5.55321">
        <ele>323</ele>
        <time>2024-07-24T15:54:22Z</time>
      </trkpt>
      <trkpt lat="48.15691" lon="5.55325">
        <ele>323</ele>
        <time>2024-07-24T15:54:24Z</time>
      </trkpt>
      <trkpt lat="48.1568" lon="5.55328">
        <ele>322.9</ele>
        <time>2024-07-24T15:54:26Z</time>
      </trkpt>
      <trkpt lat="48.15668" lon="5.55325">
        <ele>323</ele>
        <time>2024-07-24T15:54:28Z</time>
      </trkpt>
      <trkpt lat="48.15636" lon="5.55299">
        <ele>323.3</ele>
        <time>2024-07-24T15:54:35Z</time>
      </trkpt>
      <trkpt lat="48.15604" lon="5.55259">
        <ele>323</ele>
        <time>2024-07-24T15:54:41Z</time>
      </trkpt>
      <trkpt lat="48.15567" lon="5.55199">
        <ele>322.5</ele>
        <time>2024-07-24T15:54:48Z</time>
      </trkpt>
      <trkpt lat="48.15561" lon="5.55192">
        <ele>322.4</ele>
        <time>2024-07-24T15:54:49Z</time>
      </trkpt>
      <trkpt lat="48.15533" lon="5.55165">
        <ele>322.1</ele>
        <time>2024-07-24T15:54:53Z</time>
      </trkpt>
      <trkpt lat="48.15492" lon="5.55132">
        <ele>322.2</ele>
        <time>2024-07-24T15:54:59Z</time>
      </trkpt>
      <trkpt lat="48.15448" lon="5.55089">
        <ele>322.7</ele>
        <time>2024-07-24T15:55:06Z</time>
      </trkpt>
      <trkpt lat="48.15415" lon="5.55069">
        <ele>323</ele>
        <time>2024-07-24T15:55:11Z</time>
      </trkpt>
      <trkpt lat="48.15371" lon="5.55054">
        <ele>320.7</ele>
        <time>2024-07-24T15:55:17Z</time>
      </trkpt>
      <trkpt lat="48.15319" lon="5.55039">
        <ele>318</ele>
        <time>2024-07-24T15:55:23Z</time>
      </trkpt>
      <trkpt lat="48.15304" lon="5.55047">
        <ele>317.5</ele>
        <time>2024-07-24T15:55:25Z</time>
      </trkpt>
      <trkpt lat="48.15296" lon="5.55052">
        <ele>317.3</ele>
        <time>2024-07-24T15:55:26Z</time>
      </trkpt>
      <trkpt lat="48.15292" lon="5.55063">
        <ele>317.1</ele>
        <time>2024-07-24T15:55:27Z</time>
      </trkpt>
      <trkpt lat="48.15281" lon="5.55095">
        <ele>316.5</ele>
        <time>2024-07-24T15:55:30Z</time>
      </trkpt>
      <trkpt lat="48.15267" lon="5.55111">
        <ele>316.3</ele>
        <time>2024-07-24T15:55:32Z</time>
      </trkpt>
      <trkpt lat="48.1526" lon="5.55116">
        <ele>316.4</ele>
        <time>2024-07-24T15:55:33Z</time>
      </trkpt>
      <trkpt lat="48.15252" lon="5.55116">
        <ele>316.4</ele>
        <time>2024-07-24T15:55:34Z</time>
      </trkpt>
      <trkpt lat="48.15246" lon="5.55112">
        <ele>316.3</ele>
        <time>2024-07-24T15:55:35Z</time>
      </trkpt>
      <trkpt lat="48.15239" lon="5.55107">
        <ele>316.3</ele>
        <time>2024-07-24T15:55:36Z</time>
      </trkpt>
      <trkpt lat="48.15225" lon="5.55098">
        <ele>316.3</ele>
        <time>2024-07-24T15:55:38Z</time>
      </trkpt>
      <trkpt lat="48.15173" lon="5.55051">
        <ele>316.9</ele>
        <time>2024-07-24T15:55:46Z</time>
      </trkpt>
      <trkpt lat="48.15158" lon="5.55024">
        <ele>317.3</ele>
        <time>2024-07-24T15:55:49Z</time>
      </trkpt>
      <trkpt lat="48.15154" lon="5.55014">
        <ele>317.5</ele>
        <time>2024-07-24T15:55:50Z</time>
      </trkpt>
      <trkpt lat="48.15128" lon="5.54947">
        <ele>319.4</ele>
        <time>2024-07-24T15:55:57Z</time>
      </trkpt>
      <trkpt lat="48.15109" lon="5.54912">
        <ele>321.3</ele>
        <time>2024-07-24T15:56:02Z</time>
      </trkpt>
      <trkpt lat="48.15082" lon="5.54881">
        <ele>323.8</ele>
        <time>2024-07-24T15:56:09Z</time>
      </trkpt>
      <trkpt lat="48.15055" lon="5.54855">
        <ele>325.5</ele>
        <time>2024-07-24T15:56:17Z</time>
      </trkpt>
      <trkpt lat="48.15022" lon="5.5484">
        <ele>326</ele>
        <time>2024-07-24T15:56:25Z</time>
      </trkpt>
      <trkpt lat="48.14991" lon="5.54826">
        <ele>324.5</ele>
        <time>2024-07-24T15:56:31Z</time>
      </trkpt>
      <trkpt lat="48.14958" lon="5.54811">
        <ele>323</ele>
        <time>2024-07-24T15:56:36Z</time>
      </trkpt>
      <trkpt lat="48.14915" lon="5.54796">
        <ele>321.2</ele>
        <time>2024-07-24T15:56:41Z</time>
      </trkpt>
      <trkpt lat="48.14866" lon="5.54795">
        <ele>318.9</ele>
        <time>2024-07-24T15:56:46Z</time>
      </trkpt>
      <trkpt lat="48.14819" lon="5.54809">
        <ele>317.4</ele>
        <time>2024-07-24T15:56:51Z</time>
      </trkpt>
      <trkpt lat="48.14803" lon="5.54825">
        <ele>316.6</ele>
        <time>2024-07-24T15:56:53Z</time>
      </trkpt>
      <trkpt lat="48.14787" lon="5.54841">
        <ele>316.1</ele>
        <time>2024-07-24T15:56:55Z</time>
      </trkpt>
      <trkpt lat="48.14776" lon="5.54867">
        <ele>315.7</ele>
        <time>2024-07-24T15:56:57Z</time>
      </trkpt>
      <trkpt lat="48.14771" lon="5.54879">
        <ele>315.6</ele>
        <time>2024-07-24T15:56:58Z</time>
      </trkpt>
      <trkpt lat="48.14747" lon="5.54935">
        <ele>315.2</ele>
        <time>2024-07-24T15:57:03Z</time>
      </trkpt>
      <trkpt lat="48.14741" lon="5.54944">
        <ele>315.2</ele>
        <time>2024-07-24T15:57:04Z</time>
      </trkpt>
      <trkpt lat="48.14713" lon="5.54985">
        <ele>315.1</ele>
        <time>2024-07-24T15:57:09Z</time>
      </trkpt>
      <trkpt lat="48.14684" lon="5.55027">
        <ele>314.9</ele>
        <time>2024-07-24T15:57:14Z</time>
      </trkpt>
      <trkpt lat="48.14656" lon="5.55068">
        <ele>314.7</ele>
        <time>2024-07-24T15:57:19Z</time>
      </trkpt>
      <trkpt lat="48.14641" lon="5.5509">
        <ele>314.6</ele>
        <time>2024-07-24T15:57:22Z</time>
      </trkpt>
      <trkpt lat="48.14635" lon="5.55098">
        <ele>314.5</ele>
        <time>2024-07-24T15:57:23Z</time>
      </trkpt>
      <trkpt lat="48.14618" lon="5.55123">
        <ele>314.4</ele>
        <time>2024-07-24T15:57:26Z</time>
      </trkpt>
      <trkpt lat="48.14604" lon="5.55138">
        <ele>314.5</ele>
        <time>2024-07-24T15:57:28Z</time>
      </trkpt>
      <trkpt lat="48.14569" lon="5.55173">
        <ele>314.3</ele>
        <time>2024-07-24T15:57:33Z</time>
      </trkpt>
      <trkpt lat="48.14517" lon="5.55218">
        <ele>313.7</ele>
        <time>2024-07-24T15:57:40Z</time>
      </trkpt>
      <trkpt lat="48.14469" lon="5.5526">
        <ele>313.6</ele>
        <time>2024-07-24T15:57:47Z</time>
      </trkpt>
      <trkpt lat="48.14462" lon="5.55266">
        <ele>313.6</ele>
        <time>2024-07-24T15:57:48Z</time>
      </trkpt>
      <trkpt lat="48.14415" lon="5.55306">
        <ele>313</ele>
        <time>2024-07-24T15:57:55Z</time>
      </trkpt>
      <trkpt lat="48.14409" lon="5.55312">
        <ele>312.9</ele>
        <time>2024-07-24T15:57:56Z</time>
      </trkpt>
      <trkpt lat="48.14362" lon="5.55352">
        <ele>312.7</ele>
        <time>2024-07-24T15:58:03Z</time>
      </trkpt>
      <trkpt lat="48.14348" lon="5.55364">
        <ele>312.7</ele>
        <time>2024-07-24T15:58:05Z</time>
      </trkpt>
      <trkpt lat="48.14305" lon="5.55401">
        <ele>313</ele>
        <time>2024-07-24T15:58:12Z</time>
      </trkpt>
      <trkpt lat="48.1427" lon="5.55431">
        <ele>313.4</ele>
        <time>2024-07-24T15:58:19Z</time>
      </trkpt>
      <trkpt lat="48.14264" lon="5.55435">
        <ele>313.5</ele>
        <time>2024-07-24T15:58:22Z</time>
      </trkpt>
      <trkpt lat="48.14258" lon="5.55427">
        <ele>313.6</ele>
        <time>2024-07-24T15:58:24Z</time>
      </trkpt>
      <trkpt lat="48.14259" lon="5.55422">
        <ele>313.6</ele>
        <time>2024-07-24T15:58:25Z</time>
      </trkpt>
      <trkpt lat="48.14265" lon="5.55392">
        <ele>313.6</ele>
        <time>2024-07-24T15:58:30Z</time>
      </trkpt>
      <trkpt lat="48.14274" lon="5.55345">
        <ele>313.4</ele>
        <time>2024-07-24T15:58:36Z</time>
      </trkpt>
      <trkpt lat="48.14286" lon="5.55288">
        <ele>313.6</ele>
        <time>2024-07-24T15:58:42Z</time>
      </trkpt>
      <trkpt lat="48.14302" lon="5.55214">
        <ele>313.8</ele>
        <time>2024-07-24T15:58:50Z</time>
      </trkpt>
      <trkpt lat="48.1431" lon="5.55178">
        <ele>314</ele>
        <time>2024-07-24T15:58:54Z</time>
      </trkpt>
      <trkpt lat="48.14316" lon="5.55162">
        <ele>314.1</ele>
        <time>2024-07-24T15:58:56Z</time>
      </trkpt>
      <trkpt lat="48.14342" lon="5.55105">
        <ele>315</ele>
        <time>2024-07-24T15:59:04Z</time>
      </trkpt>
      <trkpt lat="48.14373" lon="5.5505">
        <ele>316.6</ele>
        <time>2024-07-24T15:59:13Z</time>
      </trkpt>
      <trkpt lat="48.14396" lon="5.55006">
        <ele>317.7</ele>
        <time>2024-07-24T15:59:20Z</time>
      </trkpt>
      <trkpt lat="48.14421" lon="5.54946">
        <ele>319</ele>
        <time>2024-07-24T15:59:29Z</time>
      </trkpt>
      <trkpt lat="48.1444" lon="5.54891">
        <ele>319.7</ele>
        <time>2024-07-24T15:59:37Z</time>
      </trkpt>
      <trkpt lat="48.14466" lon="5.54823">
        <ele>321</ele>
        <time>2024-07-24T15:59:47Z</time>
      </trkpt>
      <trkpt lat="48.14492" lon="5.54765">
        <ele>322.2</ele>
        <time>2024-07-24T15:59:56Z</time>
      </trkpt>
      <trkpt lat="48.14514" lon="5.54715">
        <ele>323.1</ele>
        <time>2024-07-24T16:00:04Z</time>
      </trkpt>
      <trkpt lat="48.14536" lon="5.54664">
        <ele>323.9</ele>
        <time>2024-07-24T16:00:12Z</time>
      </trkpt>
      <trkpt lat="48.14553" lon="5.54608">
        <ele>324.5</ele>
        <time>2024-07-24T16:00:20Z</time>
      </trkpt>
      <trkpt lat="48.14572" lon="5.54548">
        <ele>324.5</ele>
        <time>2024-07-24T16:00:28Z</time>
      </trkpt>
      <trkpt lat="48.14586" lon="5.54493">
        <ele>324.7</ele>
        <time>2024-07-24T16:00:35Z</time>
      </trkpt>
      <trkpt lat="48.14599" lon="5.54429">
        <ele>325.2</ele>
        <time>2024-07-24T16:00:43Z</time>
      </trkpt>
      <trkpt lat="48.1461" lon="5.54355">
        <ele>325.8</ele>
        <time>2024-07-24T16:00:52Z</time>
      </trkpt>
      <trkpt lat="48.14617" lon="5.54306">
        <ele>325.9</ele>
        <time>2024-07-24T16:00:58Z</time>
      </trkpt>
      <trkpt lat="48.14618" lon="5.54297">
        <ele>325.8</ele>
        <time>2024-07-24T16:00:59Z</time>
      </trkpt>
      <trkpt lat="48.14625" lon="5.54224">
        <ele>325.7</ele>
        <time>2024-07-24T16:01:07Z</time>
      </trkpt>
      <trkpt lat="48.14628" lon="5.54149">
        <ele>325.6</ele>
        <time>2024-07-24T16:01:15Z</time>
      </trkpt>
      <trkpt lat="48.14631" lon="5.54064">
        <ele>325.2</ele>
        <time>2024-07-24T16:01:24Z</time>
      </trkpt>
      <trkpt lat="48.14635" lon="5.53994">
        <ele>324.4</ele>
        <time>2024-07-24T16:01:31Z</time>
      </trkpt>
      <trkpt lat="48.14649" lon="5.53926">
        <ele>323</ele>
        <time>2024-07-24T16:01:38Z</time>
      </trkpt>
      <trkpt lat="48.14669" lon="5.53855">
        <ele>322.5</ele>
        <time>2024-07-24T16:01:45Z</time>
      </trkpt>
      <trkpt lat="48.1468" lon="5.53806">
        <ele>323.1</ele>
        <time>2024-07-24T16:01:51Z</time>
      </trkpt>
      <trkpt lat="48.14691" lon="5.53759">
        <ele>324.3</ele>
        <time>2024-07-24T16:01:57Z</time>
      </trkpt>
      <trkpt lat="48.14694" lon="5.53701">
        <ele>326.2</ele>
        <time>2024-07-24T16:02:05Z</time>
      </trkpt>
      <trkpt lat="48.14691" lon="5.53643">
        <ele>328.2</ele>
        <time>2024-07-24T16:02:13Z</time>
      </trkpt>
      <trkpt lat="48.14686" lon="5.53581">
        <ele>330.1</ele>
        <time>2024-07-24T16:02:22Z</time>
      </trkpt>
      <trkpt lat="48.14683" lon="5.53532">
        <ele>331.2</ele>
        <time>2024-07-24T16:02:29Z</time>
      </trkpt>
      <trkpt lat="48.14684" lon="5.53474">
        <ele>332.8</ele>
        <time>2024-07-24T16:02:37Z</time>
      </trkpt>
      <trkpt lat="48.14691" lon="5.53412">
        <ele>334.2</ele>
        <time>2024-07-24T16:02:46Z</time>
      </trkpt>
      <trkpt lat="48.147" lon="5.53357">
        <ele>334.6</ele>
        <time>2024-07-24T16:02:54Z</time>
      </trkpt>
      <trkpt lat="48.14711" lon="5.53306">
        <ele>334.4</ele>
        <time>2024-07-24T16:03:02Z</time>
      </trkpt>
      <trkpt lat="48.14724" lon="5.53254">
        <ele>334.1</ele>
        <time>2024-07-24T16:03:09Z</time>
      </trkpt>
      <trkpt lat="48.14741" lon="5.53186">
        <ele>333.3</ele>
        <time>2024-07-24T16:03:18Z</time>
      </trkpt>
      <trkpt lat="48.14758" lon="5.53116">
        <ele>332.6</ele>
        <time>2024-07-24T16:03:27Z</time>
      </trkpt>
      <trkpt lat="48.1477" lon="5.53069">
        <ele>332.4</ele>
        <time>2024-07-24T16:03:34Z</time>
      </trkpt>
      <trkpt lat="48.14779" lon="5.53031">
        <ele>332.7</ele>
        <time>2024-07-24T16:03:41Z</time>
      </trkpt>
      <trkpt lat="48.14786" lon="5.53003">
        <ele>332.7</ele>
        <time>2024-07-24T16:03:46Z</time>
      </trkpt>
      <trkpt lat="48.14795" lon="5.52963">
        <ele>331.9</ele>
        <time>2024-07-24T16:03:51Z</time>
      </trkpt>
      <trkpt lat="48.14809" lon="5.52898">
        <ele>332.3</ele>
        <time>2024-07-24T16:03:59Z</time>
      </trkpt>
      <trkpt lat="48.14819" lon="5.52855">
        <ele>332.7</ele>
        <time>2024-07-24T16:04:05Z</time>
      </trkpt>
      <trkpt lat="48.14832" lon="5.52795">
        <ele>333.5</ele>
        <time>2024-07-24T16:04:13Z</time>
      </trkpt>
      <trkpt lat="48.14843" lon="5.52737">
        <ele>334.6</ele>
        <time>2024-07-24T16:04:21Z</time>
      </trkpt>
      <trkpt lat="48.14851" lon="5.52689">
        <ele>335.7</ele>
        <time>2024-07-24T16:04:28Z</time>
      </trkpt>
      <trkpt lat="48.14852" lon="5.52682">
        <ele>335.9</ele>
        <time>2024-07-24T16:04:29Z</time>
      </trkpt>
      <trkpt lat="48.1486" lon="5.52641">
        <ele>336.9</ele>
        <time>2024-07-24T16:04:35Z</time>
      </trkpt>
      <trkpt lat="48.14863" lon="5.52623">
        <ele>337.6</ele>
        <time>2024-07-24T16:04:38Z</time>
      </trkpt>
      <trkpt lat="48.14865" lon="5.52609">
        <ele>338.2</ele>
        <time>2024-07-24T16:04:40Z</time>
      </trkpt>
      <trkpt lat="48.1487" lon="5.52581">
        <ele>339.6</ele>
        <time>2024-07-24T16:04:45Z</time>
      </trkpt>
      <trkpt lat="48.14875" lon="5.52553">
        <ele>341</ele>
        <time>2024-07-24T16:04:50Z</time>
      </trkpt>
      <trkpt lat="48.1488" lon="5.52512">
        <ele>343.1</ele>
        <time>2024-07-24T16:04:57Z</time>
      </trkpt>
      <trkpt lat="48.14883" lon="5.52473">
        <ele>344.7</ele>
        <time>2024-07-24T16:05:04Z</time>
      </trkpt>
      <trkpt lat="48.14886" lon="5.52433">
        <ele>346</ele>
        <time>2024-07-24T16:05:11Z</time>
      </trkpt>
      <trkpt lat="48.14889" lon="5.52391">
        <ele>346.6</ele>
        <time>2024-07-24T16:05:18Z</time>
      </trkpt>
      <trkpt lat="48.14886" lon="5.52347">
        <ele>346.6</ele>
        <time>2024-07-24T16:05:25Z</time>
      </trkpt>
      <trkpt lat="48.14879" lon="5.52291">
        <ele>346.2</ele>
        <time>2024-07-24T16:05:33Z</time>
      </trkpt>
      <trkpt lat="48.1487" lon="5.52245">
        <ele>345.8</ele>
        <time>2024-07-24T16:05:39Z</time>
      </trkpt>
      <trkpt lat="48.14859" lon="5.5219">
        <ele>345.1</ele>
        <time>2024-07-24T16:05:46Z</time>
      </trkpt>
      <trkpt lat="48.14849" lon="5.52126">
        <ele>343.7</ele>
        <time>2024-07-24T16:05:53Z</time>
      </trkpt>
      <trkpt lat="48.14844" lon="5.52067">
        <ele>342.3</ele>
        <time>2024-07-24T16:05:59Z</time>
      </trkpt>
      <trkpt lat="48.14838" lon="5.51998">
        <ele>341.2</ele>
        <time>2024-07-24T16:06:06Z</time>
      </trkpt>
      <trkpt lat="48.14828" lon="5.51924">
        <ele>341.4</ele>
        <time>2024-07-24T16:06:14Z</time>
      </trkpt>
      <trkpt lat="48.14814" lon="5.51872">
        <ele>342.2</ele>
        <time>2024-07-24T16:06:21Z</time>
      </trkpt>
      <trkpt lat="48.14798" lon="5.51821">
        <ele>343.3</ele>
        <time>2024-07-24T16:06:29Z</time>
      </trkpt>
      <trkpt lat="48.14796" lon="5.51815">
        <ele>343.5</ele>
        <time>2024-07-24T16:06:30Z</time>
      </trkpt>
      <trkpt lat="48.14782" lon="5.5178">
        <ele>344.9</ele>
        <time>2024-07-24T16:06:36Z</time>
      </trkpt>
      <trkpt lat="48.14758" lon="5.51735">
        <ele>346.8</ele>
        <time>2024-07-24T16:06:45Z</time>
      </trkpt>
      <trkpt lat="48.14736" lon="5.51696">
        <ele>347.9</ele>
        <time>2024-07-24T16:06:53Z</time>
      </trkpt>
      <trkpt lat="48.14734" lon="5.51691">
        <ele>348</ele>
        <time>2024-07-24T16:06:54Z</time>
      </trkpt>
      <trkpt lat="48.14713" lon="5.51654">
        <ele>348.6</ele>
        <time>2024-07-24T16:07:02Z</time>
      </trkpt>
      <trkpt lat="48.14695" lon="5.51621">
        <ele>348.9</ele>
        <time>2024-07-24T16:07:09Z</time>
      </trkpt>
      <trkpt lat="48.14693" lon="5.51616">
        <ele>348.9</ele>
        <time>2024-07-24T16:07:10Z</time>
      </trkpt>
      <trkpt lat="48.14681" lon="5.51589">
        <ele>348.9</ele>
        <time>2024-07-24T16:07:15Z</time>
      </trkpt>
      <trkpt lat="48.14667" lon="5.51555">
        <ele>349.2</ele>
        <time>2024-07-24T16:07:21Z</time>
      </trkpt>
      <trkpt lat="48.14648" lon="5.51511">
        <ele>349.7</ele>
        <time>2024-07-24T16:07:29Z</time>
      </trkpt>
      <trkpt lat="48.14637" lon="5.51484">
        <ele>350.2</ele>
        <time>2024-07-24T16:07:35Z</time>
      </trkpt>
      <trkpt lat="48.14624" lon="5.51451">
        <ele>351.2</ele>
        <time>2024-07-24T16:07:42Z</time>
      </trkpt>
      <trkpt lat="48.14607" lon="5.5141">
        <ele>352.8</ele>
        <time>2024-07-24T16:07:51Z</time>
      </trkpt>
      <trkpt lat="48.14592" lon="5.51377">
        <ele>354.6</ele>
        <time>2024-07-24T16:07:59Z</time>
      </trkpt>
      <trkpt lat="48.14573" lon="5.5133">
        <ele>356.3</ele>
        <time>2024-07-24T16:08:09Z</time>
      </trkpt>
      <trkpt lat="48.14559" lon="5.51297">
        <ele>357.5</ele>
        <time>2024-07-24T16:08:17Z</time>
      </trkpt>
      <trkpt lat="48.14549" lon="5.51272">
        <ele>359</ele>
        <time>2024-07-24T16:08:24Z</time>
      </trkpt>
      <trkpt lat="48.1454" lon="5.51249">
        <ele>360.4</ele>
        <time>2024-07-24T16:08:31Z</time>
      </trkpt>
      <trkpt lat="48.14529" lon="5.51223">
        <ele>361.7</ele>
        <time>2024-07-24T16:08:38Z</time>
      </trkpt>
      <trkpt lat="48.14521" lon="5.51197">
        <ele>363.1</ele>
        <time>2024-07-24T16:08:45Z</time>
      </trkpt>
      <trkpt lat="48.14518" lon="5.51173">
        <ele>364.3</ele>
        <time>2024-07-24T16:08:51Z</time>
      </trkpt>
      <trkpt lat="48.14522" lon="5.51141">
        <ele>365.9</ele>
        <time>2024-07-24T16:08:59Z</time>
      </trkpt>
      <trkpt lat="48.14534" lon="5.5112">
        <ele>367.1</ele>
        <time>2024-07-24T16:09:06Z</time>
      </trkpt>
      <trkpt lat="48.14547" lon="5.51103">
        <ele>368.5</ele>
        <time>2024-07-24T16:09:13Z</time>
      </trkpt>
      <trkpt lat="48.14559" lon="5.51089">
        <ele>369.5</ele>
        <time>2024-07-24T16:09:19Z</time>
      </trkpt>
      <trkpt lat="48.1458" lon="5.51068">
        <ele>371.1</ele>
        <time>2024-07-24T16:09:29Z</time>
      </trkpt>
      <trkpt lat="48.14594" lon="5.51057">
        <ele>372.4</ele>
        <time>2024-07-24T16:09:36Z</time>
      </trkpt>
      <trkpt lat="48.14609" lon="5.51046">
        <ele>373.9</ele>
        <time>2024-07-24T16:09:43Z</time>
      </trkpt>
      <trkpt lat="48.14624" lon="5.51037">
        <ele>375.6</ele>
        <time>2024-07-24T16:09:50Z</time>
      </trkpt>
      <trkpt lat="48.1464" lon="5.51033">
        <ele>377.1</ele>
        <time>2024-07-24T16:09:57Z</time>
      </trkpt>
      <trkpt lat="48.1466" lon="5.51029">
        <ele>378.6</ele>
        <time>2024-07-24T16:10:05Z</time>
      </trkpt>
      <trkpt lat="48.1468" lon="5.51024">
        <ele>380.5</ele>
        <time>2024-07-24T16:10:14Z</time>
      </trkpt>
      <trkpt lat="48.14695" lon="5.51021">
        <ele>381.9</ele>
        <time>2024-07-24T16:10:21Z</time>
      </trkpt>
      <trkpt lat="48.14713" lon="5.51015">
        <ele>383.5</ele>
        <time>2024-07-24T16:10:29Z</time>
      </trkpt>
      <trkpt lat="48.14732" lon="5.51006">
        <ele>385.4</ele>
        <time>2024-07-24T16:10:38Z</time>
      </trkpt>
      <trkpt lat="48.14749" lon="5.50998">
        <ele>387.4</ele>
        <time>2024-07-24T16:10:46Z</time>
      </trkpt>
      <trkpt lat="48.14773" lon="5.50998">
        <ele>389.7</ele>
        <time>2024-07-24T16:10:56Z</time>
      </trkpt>
      <trkpt lat="48.14791" lon="5.50996">
        <ele>391.1</ele>
        <time>2024-07-24T16:11:05Z</time>
      </trkpt>
      <trkpt lat="48.14807" lon="5.5099">
        <ele>392.6</ele>
        <time>2024-07-24T16:11:13Z</time>
      </trkpt>
      <trkpt lat="48.14818" lon="5.50982">
        <ele>393.6</ele>
        <time>2024-07-24T16:11:19Z</time>
      </trkpt>
      <trkpt lat="48.14829" lon="5.50965">
        <ele>394.7</ele>
        <time>2024-07-24T16:11:26Z</time>
      </trkpt>
      <trkpt lat="48.14843" lon="5.50948">
        <ele>395.9</ele>
        <time>2024-07-24T16:11:33Z</time>
      </trkpt>
      <trkpt lat="48.14858" lon="5.50944">
        <ele>396.6</ele>
        <time>2024-07-24T16:11:39Z</time>
      </trkpt>
      <trkpt lat="48.14876" lon="5.50938">
        <ele>397.1</ele>
        <time>2024-07-24T16:11:46Z</time>
      </trkpt>
      <trkpt lat="48.14889" lon="5.50934">
        <ele>397.1</ele>
        <time>2024-07-24T16:11:53Z</time>
      </trkpt>
      <trkpt lat="48.1489" lon="5.50934">
        <ele>397.1</ele>
        <time>2024-07-24T16:11:56Z</time>
      </trkpt>
      <trkpt lat="48.1488" lon="5.50941">
        <ele>397.1</ele>
        <time>2024-07-24T16:14:37Z</time>
      </trkpt>
      <trkpt lat="48.14879" lon="5.50942">
        <ele>397.1</ele>
        <time>2024-07-24T16:14:38Z</time>
      </trkpt>
      <trkpt lat="48.14872" lon="5.50951">
        <ele>397</ele>
        <time>2024-07-24T16:14:44Z</time>
      </trkpt>
      <trkpt lat="48.14872" lon="5.50954">
        <ele>397</ele>
        <time>2024-07-24T16:14:45Z</time>
      </trkpt>
      <trkpt lat="48.14872" lon="5.50956">
        <ele>397</ele>
        <time>2024-07-24T16:14:46Z</time>
      </trkpt>
      <trkpt lat="48.14873" lon="5.50956">
        <ele>397</ele>
        <time>2024-07-24T16:14:48Z</time>
      </trkpt>
      <trkpt lat="48.14862" lon="5.50942">
        <ele>396.8</ele>
        <time>2024-07-24T16:16:24Z</time>
      </trkpt>
      <trkpt lat="48.14846" lon="5.50948">
        <ele>397.1</ele>
        <time>2024-07-24T16:16:32Z</time>
      </trkpt>
      <trkpt lat="48.14828" lon="5.50949">
        <ele>399.9</ele>
        <time>2024-07-24T16:16:39Z</time>
      </trkpt>
      <trkpt lat="48.14814" lon="5.50955">
        <ele>402.1</ele>
        <time>2024-07-24T16:16:46Z</time>
      </trkpt>
      <trkpt lat="48.14804" lon="5.5096">
        <ele>403.9</ele>
        <time>2024-07-24T16:16:51Z</time>
      </trkpt>
      <trkpt lat="48.14798" lon="5.50966">
        <ele>404.4</ele>
        <time>2024-07-24T16:16:55Z</time>
      </trkpt>
      <trkpt lat="48.14797" lon="5.50967">
        <ele>403.8</ele>
        <time>2024-07-24T16:16:56Z</time>
      </trkpt>
      <trkpt lat="48.14797" lon="5.50969">
        <ele>403.2</ele>
        <time>2024-07-24T16:16:57Z</time>
      </trkpt>
      <trkpt lat="48.14795" lon="5.50973">
        <ele>401.3</ele>
        <time>2024-07-24T16:17:03Z</time>
      </trkpt>
      <trkpt lat="48.14782" lon="5.50999">
        <ele>390.4</ele>
        <time>2024-07-24T16:19:10Z</time>
      </trkpt>
      <trkpt lat="48.14778" lon="5.50998">
        <ele>390.1</ele>
        <time>2024-07-24T16:19:12Z</time>
      </trkpt>
      <trkpt lat="48.1476" lon="5.50997">
        <ele>388.5</ele>
        <time>2024-07-24T16:19:17Z</time>
      </trkpt>
      <trkpt lat="48.14745" lon="5.51">
        <ele>386.9</ele>
        <time>2024-07-24T16:19:21Z</time>
      </trkpt>
      <trkpt lat="48.14737" lon="5.51004">
        <ele>386</ele>
        <time>2024-07-24T16:19:23Z</time>
      </trkpt>
      <trkpt lat="48.14707" lon="5.51018">
        <ele>382.9</ele>
        <time>2024-07-24T16:19:29Z</time>
      </trkpt>
      <trkpt lat="48.1467" lon="5.51026">
        <ele>379.5</ele>
        <time>2024-07-24T16:19:35Z</time>
      </trkpt>
      <trkpt lat="48.14627" lon="5.51036">
        <ele>375.8</ele>
        <time>2024-07-24T16:19:42Z</time>
      </trkpt>
      <trkpt lat="48.14612" lon="5.51044">
        <ele>374.1</ele>
        <time>2024-07-24T16:19:45Z</time>
      </trkpt>
      <trkpt lat="48.14601" lon="5.51052">
        <ele>372.9</ele>
        <time>2024-07-24T16:19:47Z</time>
      </trkpt>
      <trkpt lat="48.1457" lon="5.51077">
        <ele>370.4</ele>
        <time>2024-07-24T16:19:52Z</time>
      </trkpt>
      <trkpt lat="48.14559" lon="5.51089">
        <ele>369.6</ele>
        <time>2024-07-24T16:19:55Z</time>
      </trkpt>
      <trkpt lat="48.14547" lon="5.51102">
        <ele>368.5</ele>
        <time>2024-07-24T16:19:59Z</time>
      </trkpt>
      <trkpt lat="48.14543" lon="5.51107">
        <ele>368.1</ele>
        <time>2024-07-24T16:20:00Z</time>
      </trkpt>
      <trkpt lat="48.14526" lon="5.5113">
        <ele>366.4</ele>
        <time>2024-07-24T16:20:04Z</time>
      </trkpt>
      <trkpt lat="48.14519" lon="5.5115">
        <ele>365.4</ele>
        <time>2024-07-24T16:20:06Z</time>
      </trkpt>
      <trkpt lat="48.14518" lon="5.51161">
        <ele>364.8</ele>
        <time>2024-07-24T16:20:07Z</time>
      </trkpt>
      <trkpt lat="48.14518" lon="5.51172">
        <ele>364.2</ele>
        <time>2024-07-24T16:20:08Z</time>
      </trkpt>
      <trkpt lat="48.1452" lon="5.51194">
        <ele>363.2</ele>
        <time>2024-07-24T16:20:10Z</time>
      </trkpt>
      <trkpt lat="48.14522" lon="5.51205">
        <ele>362.6</ele>
        <time>2024-07-24T16:20:11Z</time>
      </trkpt>
      <trkpt lat="48.14526" lon="5.51215">
        <ele>362.1</ele>
        <time>2024-07-24T16:20:12Z</time>
      </trkpt>
      <trkpt lat="48.14538" lon="5.51245">
        <ele>360.6</ele>
        <time>2024-07-24T16:20:15Z</time>
      </trkpt>
      <trkpt lat="48.14566" lon="5.51313">
        <ele>356.9</ele>
        <time>2024-07-24T16:20:22Z</time>
      </trkpt>
      <trkpt lat="48.1458" lon="5.51346">
        <ele>355.8</ele>
        <time>2024-07-24T16:20:26Z</time>
      </trkpt>
      <trkpt lat="48.14583" lon="5.51353">
        <ele>355.6</ele>
        <time>2024-07-24T16:20:27Z</time>
      </trkpt>
      <trkpt lat="48.14585" lon="5.51359">
        <ele>355.4</ele>
        <time>2024-07-24T16:20:28Z</time>
      </trkpt>
      <trkpt lat="48.14583" lon="5.51373">
        <ele>355.1</ele>
        <time>2024-07-24T16:20:29Z</time>
      </trkpt>
      <trkpt lat="48.14579" lon="5.51376">
        <ele>355.2</ele>
        <time>2024-07-24T16:20:30Z</time>
      </trkpt>
      <trkpt lat="48.1457" lon="5.51384">
        <ele>355.2</ele>
        <time>2024-07-24T16:20:32Z</time>
      </trkpt>
      <trkpt lat="48.14566" lon="5.51387">
        <ele>355.2</ele>
        <time>2024-07-24T16:20:33Z</time>
      </trkpt>
      <trkpt lat="48.14548" lon="5.51403">
        <ele>355.2</ele>
        <time>2024-07-24T16:20:38Z</time>
      </trkpt>
      <trkpt lat="48.14527" lon="5.5142">
        <ele>355.2</ele>
        <time>2024-07-24T16:20:43Z</time>
      </trkpt>
      <trkpt lat="48.14514" lon="5.51426">
        <ele>355.2</ele>
        <time>2024-07-24T16:20:46Z</time>
      </trkpt>
      <trkpt lat="48.14509" lon="5.51428">
        <ele>355.2</ele>
        <time>2024-07-24T16:20:47Z</time>
      </trkpt>
      <trkpt lat="48.14498" lon="5.51433">
        <ele>355.3</ele>
        <time>2024-07-24T16:20:49Z</time>
      </trkpt>
      <trkpt lat="48.14493" lon="5.51436">
        <ele>355.3</ele>
        <time>2024-07-24T16:20:50Z</time>
      </trkpt>
      <trkpt lat="48.14459" lon="5.51441">
        <ele>355.3</ele>
        <time>2024-07-24T16:20:55Z</time>
      </trkpt>
      <trkpt lat="48.14411" lon="5.51437">
        <ele>355.3</ele>
        <time>2024-07-24T16:21:01Z</time>
      </trkpt>
      <trkpt lat="48.14403" lon="5.51439">
        <ele>355.4</ele>
        <time>2024-07-24T16:21:02Z</time>
      </trkpt>
      <trkpt lat="48.14371" lon="5.51446">
        <ele>355.4</ele>
        <time>2024-07-24T16:21:06Z</time>
      </trkpt>
      <trkpt lat="48.14325" lon="5.51456">
        <ele>355.4</ele>
        <time>2024-07-24T16:21:12Z</time>
      </trkpt>
      <trkpt lat="48.14299" lon="5.51471">
        <ele>355.5</ele>
        <time>2024-07-24T16:21:16Z</time>
      </trkpt>
      <trkpt lat="48.14293" lon="5.51476">
        <ele>355.5</ele>
        <time>2024-07-24T16:21:17Z</time>
      </trkpt>
      <trkpt lat="48.14287" lon="5.51482">
        <ele>355.5</ele>
        <time>2024-07-24T16:21:18Z</time>
      </trkpt>
      <trkpt lat="48.14273" lon="5.51507">
        <ele>355.5</ele>
        <time>2024-07-24T16:21:21Z</time>
      </trkpt>
      <trkpt lat="48.14243" lon="5.5156">
        <ele>355.7</ele>
        <time>2024-07-24T16:21:28Z</time>
      </trkpt>
      <trkpt lat="48.14223" lon="5.51598">
        <ele>356.9</ele>
        <time>2024-07-24T16:21:34Z</time>
      </trkpt>
      <trkpt lat="48.14201" lon="5.51636">
        <ele>357.2</ele>
        <time>2024-07-24T16:21:41Z</time>
      </trkpt>
      <trkpt lat="48.14179" lon="5.51676">
        <ele>355.8</ele>
        <time>2024-07-24T16:21:47Z</time>
      </trkpt>
      <trkpt lat="48.1415" lon="5.51729">
        <ele>354.2</ele>
        <time>2024-07-24T16:21:53Z</time>
      </trkpt>
      <trkpt lat="48.14113" lon="5.51795">
        <ele>354.5</ele>
        <time>2024-07-24T16:22:00Z</time>
      </trkpt>
      <trkpt lat="48.14108" lon="5.51804">
        <ele>354.7</ele>
        <time>2024-07-24T16:22:01Z</time>
      </trkpt>
      <trkpt lat="48.1408" lon="5.51854">
        <ele>356.1</ele>
        <time>2024-07-24T16:22:07Z</time>
      </trkpt>
      <trkpt lat="48.14052" lon="5.51904">
        <ele>358</ele>
        <time>2024-07-24T16:22:14Z</time>
      </trkpt>
      <trkpt lat="48.14025" lon="5.51954">
        <ele>359.2</ele>
        <time>2024-07-24T16:22:22Z</time>
      </trkpt>
      <trkpt lat="48.13998" lon="5.52001">
        <ele>359.3</ele>
        <time>2024-07-24T16:22:30Z</time>
      </trkpt>
      <trkpt lat="48.13976" lon="5.52031">
        <ele>359.1</ele>
        <time>2024-07-24T16:22:35Z</time>
      </trkpt>
      <trkpt lat="48.13938" lon="5.52071">
        <ele>358.8</ele>
        <time>2024-07-24T16:22:42Z</time>
      </trkpt>
      <trkpt lat="48.13901" lon="5.52111">
        <ele>360</ele>
        <time>2024-07-24T16:22:49Z</time>
      </trkpt>
      <trkpt lat="48.13875" lon="5.52146">
        <ele>361.3</ele>
        <time>2024-07-24T16:22:55Z</time>
      </trkpt>
      <trkpt lat="48.13853" lon="5.52179">
        <ele>362.5</ele>
        <time>2024-07-24T16:23:01Z</time>
      </trkpt>
      <trkpt lat="48.13835" lon="5.52206">
        <ele>363.2</ele>
        <time>2024-07-24T16:23:06Z</time>
      </trkpt>
      <trkpt lat="48.13828" lon="5.52216">
        <ele>363.5</ele>
        <time>2024-07-24T16:23:08Z</time>
      </trkpt>
      <trkpt lat="48.13804" lon="5.52243">
        <ele>364.4</ele>
        <time>2024-07-24T16:23:14Z</time>
      </trkpt>
      <trkpt lat="48.138" lon="5.52247">
        <ele>364.5</ele>
        <time>2024-07-24T16:23:15Z</time>
      </trkpt>
      <trkpt lat="48.13766" lon="5.52273">
        <ele>365.2</ele>
        <time>2024-07-24T16:23:23Z</time>
      </trkpt>
      <trkpt lat="48.13747" lon="5.52285">
        <ele>365.5</ele>
        <time>2024-07-24T16:23:27Z</time>
      </trkpt>
      <trkpt lat="48.13736" lon="5.52288">
        <ele>365.4</ele>
        <time>2024-07-24T16:23:29Z</time>
      </trkpt>
      <trkpt lat="48.13732" lon="5.52287">
        <ele>365.4</ele>
        <time>2024-07-24T16:23:30Z</time>
      </trkpt>
      <trkpt lat="48.13721" lon="5.52287">
        <ele>365.3</ele>
        <time>2024-07-24T16:23:32Z</time>
      </trkpt>
      <trkpt lat="48.1371" lon="5.52283">
        <ele>365.1</ele>
        <time>2024-07-24T16:23:34Z</time>
      </trkpt>
      <trkpt lat="48.13678" lon="5.52267">
        <ele>364.7</ele>
        <time>2024-07-24T16:23:40Z</time>
      </trkpt>
      <trkpt lat="48.13673" lon="5.52265">
        <ele>364.7</ele>
        <time>2024-07-24T16:23:41Z</time>
      </trkpt>
      <trkpt lat="48.13662" lon="5.52268">
        <ele>364.7</ele>
        <time>2024-07-24T16:23:43Z</time>
      </trkpt>
      <trkpt lat="48.13656" lon="5.5227">
        <ele>364.7</ele>
        <time>2024-07-24T16:23:44Z</time>
      </trkpt>
      <trkpt lat="48.13629" lon="5.52296">
        <ele>364.9</ele>
        <time>2024-07-24T16:23:49Z</time>
      </trkpt>
      <trkpt lat="48.13596" lon="5.52339">
        <ele>364.9</ele>
        <time>2024-07-24T16:23:56Z</time>
      </trkpt>
      <trkpt lat="48.13561" lon="5.52383">
        <ele>365.4</ele>
        <time>2024-07-24T16:24:04Z</time>
      </trkpt>
      <trkpt lat="48.13526" lon="5.52418">
        <ele>365.6</ele>
        <time>2024-07-24T16:24:11Z</time>
      </trkpt>
      <trkpt lat="48.1349" lon="5.52455">
        <ele>365.9</ele>
        <time>2024-07-24T16:24:18Z</time>
      </trkpt>
      <trkpt lat="48.13462" lon="5.52495">
        <ele>366.1</ele>
        <time>2024-07-24T16:24:24Z</time>
      </trkpt>
      <trkpt lat="48.13434" lon="5.52537">
        <ele>366.3</ele>
        <time>2024-07-24T16:24:30Z</time>
      </trkpt>
      <trkpt lat="48.13403" lon="5.52589">
        <ele>366.5</ele>
        <time>2024-07-24T16:24:37Z</time>
      </trkpt>
      <trkpt lat="48.1338" lon="5.52635">
        <ele>366.8</ele>
        <time>2024-07-24T16:24:43Z</time>
      </trkpt>
      <trkpt lat="48.13373" lon="5.5265">
        <ele>366.8</ele>
        <time>2024-07-24T16:24:45Z</time>
      </trkpt>
      <trkpt lat="48.13357" lon="5.52684">
        <ele>367</ele>
        <time>2024-07-24T16:24:50Z</time>
      </trkpt>
      <trkpt lat="48.13337" lon="5.52726">
        <ele>367.2</ele>
        <time>2024-07-24T16:24:57Z</time>
      </trkpt>
      <trkpt lat="48.13329" lon="5.52743">
        <ele>367.3</ele>
        <time>2024-07-24T16:25:01Z</time>
      </trkpt>
      <trkpt lat="48.13326" lon="5.52752">
        <ele>367.5</ele>
        <time>2024-07-24T16:25:06Z</time>
      </trkpt>
      <trkpt lat="48.13322" lon="5.52773">
        <ele>367.2</ele>
        <time>2024-07-24T16:25:11Z</time>
      </trkpt>
      <trkpt lat="48.13315" lon="5.52809">
        <ele>367.1</ele>
        <time>2024-07-24T16:25:16Z</time>
      </trkpt>
      <trkpt lat="48.13308" lon="5.52863">
        <ele>368</ele>
        <time>2024-07-24T16:25:23Z</time>
      </trkpt>
      <trkpt lat="48.13302" lon="5.52908">
        <ele>367.6</ele>
        <time>2024-07-24T16:25:29Z</time>
      </trkpt>
      <trkpt lat="48.13297" lon="5.52941">
        <ele>367</ele>
        <time>2024-07-24T16:25:34Z</time>
      </trkpt>
      <trkpt lat="48.1329" lon="5.52957">
        <ele>366.3</ele>
        <time>2024-07-24T16:25:37Z</time>
      </trkpt>
      <trkpt lat="48.13285" lon="5.52973">
        <ele>365.9</ele>
        <time>2024-07-24T16:25:39Z</time>
      </trkpt>
      <trkpt lat="48.13289" lon="5.53">
        <ele>365.5</ele>
        <time>2024-07-24T16:25:44Z</time>
      </trkpt>
      <trkpt lat="48.13287" lon="5.53012">
        <ele>365.1</ele>
        <time>2024-07-24T16:25:46Z</time>
      </trkpt>
      <trkpt lat="48.13282" lon="5.53023">
        <ele>364.6</ele>
        <time>2024-07-24T16:25:48Z</time>
      </trkpt>
      <trkpt lat="48.13274" lon="5.53026">
        <ele>364.2</ele>
        <time>2024-07-24T16:25:50Z</time>
      </trkpt>
      <trkpt lat="48.13267" lon="5.53026">
        <ele>363.9</ele>
        <time>2024-07-24T16:25:51Z</time>
      </trkpt>
      <trkpt lat="48.13261" lon="5.53024">
        <ele>363.6</ele>
        <time>2024-07-24T16:25:52Z</time>
      </trkpt>
      <trkpt lat="48.13241" lon="5.53015">
        <ele>362.5</ele>
        <time>2024-07-24T16:25:55Z</time>
      </trkpt>
      <trkpt lat="48.13234" lon="5.53013">
        <ele>362.1</ele>
        <time>2024-07-24T16:25:56Z</time>
      </trkpt>
      <trkpt lat="48.13213" lon="5.5301">
        <ele>361</ele>
        <time>2024-07-24T16:25:59Z</time>
      </trkpt>
      <trkpt lat="48.13177" lon="5.53012">
        <ele>359.2</ele>
        <time>2024-07-24T16:26:04Z</time>
      </trkpt>
      <trkpt lat="48.13147" lon="5.53024">
        <ele>357.5</ele>
        <time>2024-07-24T16:26:09Z</time>
      </trkpt>
      <trkpt lat="48.13112" lon="5.53049">
        <ele>354</ele>
        <time>2024-07-24T16:26:15Z</time>
      </trkpt>
      <trkpt lat="48.13108" lon="5.53056">
        <ele>353.3</ele>
        <time>2024-07-24T16:26:16Z</time>
      </trkpt>
      <trkpt lat="48.13098" lon="5.53073">
        <ele>351.7</ele>
        <time>2024-07-24T16:26:18Z</time>
      </trkpt>
      <trkpt lat="48.13089" lon="5.53116">
        <ele>348.4</ele>
        <time>2024-07-24T16:26:22Z</time>
      </trkpt>
      <trkpt lat="48.13087" lon="5.53127">
        <ele>347.6</ele>
        <time>2024-07-24T16:26:23Z</time>
      </trkpt>
      <trkpt lat="48.13085" lon="5.53202">
        <ele>345.9</ele>
        <time>2024-07-24T16:26:30Z</time>
      </trkpt>
      <trkpt lat="48.13085" lon="5.53235">
        <ele>345.1</ele>
        <time>2024-07-24T16:26:33Z</time>
      </trkpt>
      <trkpt lat="48.13079" lon="5.53256">
        <ele>344.6</ele>
        <time>2024-07-24T16:26:35Z</time>
      </trkpt>
      <trkpt lat="48.13069" lon="5.53288">
        <ele>343.7</ele>
        <time>2024-07-24T16:26:38Z</time>
      </trkpt>
      <trkpt lat="48.13047" lon="5.53338">
        <ele>342.3</ele>
        <time>2024-07-24T16:26:43Z</time>
      </trkpt>
      <trkpt lat="48.13038" lon="5.53384">
        <ele>341.5</ele>
        <time>2024-07-24T16:26:47Z</time>
      </trkpt>
      <trkpt lat="48.13032" lon="5.53417">
        <ele>341</ele>
        <time>2024-07-24T16:26:50Z</time>
      </trkpt>
      <trkpt lat="48.13028" lon="5.5344">
        <ele>340.6</ele>
        <time>2024-07-24T16:26:52Z</time>
      </trkpt>
      <trkpt lat="48.13023" lon="5.53487">
        <ele>339.8</ele>
        <time>2024-07-24T16:26:56Z</time>
      </trkpt>
      <trkpt lat="48.13023" lon="5.535">
        <ele>339.6</ele>
        <time>2024-07-24T16:26:57Z</time>
      </trkpt>
      <trkpt lat="48.13026" lon="5.53586">
        <ele>338.2</ele>
        <time>2024-07-24T16:27:04Z</time>
      </trkpt>
      <trkpt lat="48.13029" lon="5.53672">
        <ele>336.9</ele>
        <time>2024-07-24T16:27:12Z</time>
      </trkpt>
      <trkpt lat="48.13029" lon="5.53683">
        <ele>336.7</ele>
        <time>2024-07-24T16:27:13Z</time>
      </trkpt>
      <trkpt lat="48.13031" lon="5.53757">
        <ele>335.5</ele>
        <time>2024-07-24T16:27:20Z</time>
      </trkpt>
      <trkpt lat="48.13029" lon="5.53829">
        <ele>334.4</ele>
        <time>2024-07-24T16:27:27Z</time>
      </trkpt>
      <trkpt lat="48.13027" lon="5.53885">
        <ele>333.5</ele>
        <time>2024-07-24T16:27:32Z</time>
      </trkpt>
      <trkpt lat="48.13027" lon="5.53908">
        <ele>333.1</ele>
        <time>2024-07-24T16:27:34Z</time>
      </trkpt>
      <trkpt lat="48.13019" lon="5.5399">
        <ele>331.8</ele>
        <time>2024-07-24T16:27:41Z</time>
      </trkpt>
      <trkpt lat="48.13008" lon="5.54072">
        <ele>330.5</ele>
        <time>2024-07-24T16:27:48Z</time>
      </trkpt>
      <trkpt lat="48.13006" lon="5.54083">
        <ele>330.3</ele>
        <time>2024-07-24T16:27:49Z</time>
      </trkpt>
      <trkpt lat="48.12988" lon="5.54169">
        <ele>328.8</ele>
        <time>2024-07-24T16:27:57Z</time>
      </trkpt>
      <trkpt lat="48.12977" lon="5.54252">
        <ele>327.5</ele>
        <time>2024-07-24T16:28:04Z</time>
      </trkpt>
      <trkpt lat="48.12975" lon="5.54264">
        <ele>327.3</ele>
        <time>2024-07-24T16:28:05Z</time>
      </trkpt>
      <trkpt lat="48.12965" lon="5.54354">
        <ele>325.8</ele>
        <time>2024-07-24T16:28:12Z</time>
      </trkpt>
      <trkpt lat="48.12958" lon="5.54445">
        <ele>324.4</ele>
        <time>2024-07-24T16:28:19Z</time>
      </trkpt>
      <trkpt lat="48.12954" lon="5.54514">
        <ele>323.3</ele>
        <time>2024-07-24T16:28:25Z</time>
      </trkpt>
      <trkpt lat="48.12954" lon="5.54602">
        <ele>321.9</ele>
        <time>2024-07-24T16:28:32Z</time>
      </trkpt>
      <trkpt lat="48.12954" lon="5.54627">
        <ele>321.5</ele>
        <time>2024-07-24T16:28:34Z</time>
      </trkpt>
      <trkpt lat="48.12955" lon="5.54712">
        <ele>320.5</ele>
        <time>2024-07-24T16:28:41Z</time>
      </trkpt>
      <trkpt lat="48.12956" lon="5.54723">
        <ele>320.4</ele>
        <time>2024-07-24T16:28:42Z</time>
      </trkpt>
      <trkpt lat="48.12961" lon="5.54789">
        <ele>320</ele>
        <time>2024-07-24T16:28:48Z</time>
      </trkpt>
      <trkpt lat="48.12964" lon="5.54869">
        <ele>319.5</ele>
        <time>2024-07-24T16:28:55Z</time>
      </trkpt>
      <trkpt lat="48.12964" lon="5.5495">
        <ele>319</ele>
        <time>2024-07-24T16:29:02Z</time>
      </trkpt>
      <trkpt lat="48.12964" lon="5.54962">
        <ele>319</ele>
        <time>2024-07-24T16:29:03Z</time>
      </trkpt>
      <trkpt lat="48.12959" lon="5.55035">
        <ele>318.5</ele>
        <time>2024-07-24T16:29:09Z</time>
      </trkpt>
      <trkpt lat="48.12941" lon="5.5509">
        <ele>318.1</ele>
        <time>2024-07-24T16:29:14Z</time>
      </trkpt>
      <trkpt lat="48.12913" lon="5.55152">
        <ele>317.7</ele>
        <time>2024-07-24T16:29:21Z</time>
      </trkpt>
      <trkpt lat="48.12879" lon="5.55218">
        <ele>317.2</ele>
        <time>2024-07-24T16:29:28Z</time>
      </trkpt>
      <trkpt lat="48.12845" lon="5.55284">
        <ele>316.7</ele>
        <time>2024-07-24T16:29:35Z</time>
      </trkpt>
      <trkpt lat="48.12813" lon="5.55356">
        <ele>316.2</ele>
        <time>2024-07-24T16:29:42Z</time>
      </trkpt>
      <trkpt lat="48.12809" lon="5.55366">
        <ele>316.1</ele>
        <time>2024-07-24T16:29:43Z</time>
      </trkpt>
      <trkpt lat="48.12782" lon="5.55437">
        <ele>315.6</ele>
        <time>2024-07-24T16:29:50Z</time>
      </trkpt>
      <trkpt lat="48.12759" lon="5.555">
        <ele>315.2</ele>
        <time>2024-07-24T16:29:57Z</time>
      </trkpt>
      <trkpt lat="48.12747" lon="5.55534">
        <ele>314.9</ele>
        <time>2024-07-24T16:30:02Z</time>
      </trkpt>
      <trkpt lat="48.12738" lon="5.55557">
        <ele>314.8</ele>
        <time>2024-07-24T16:30:07Z</time>
      </trkpt>
      <trkpt lat="48.12724" lon="5.55549">
        <ele>314.5</ele>
        <time>2024-07-24T16:30:09Z</time>
      </trkpt>
      <trkpt lat="48.1272" lon="5.55551">
        <ele>314.5</ele>
        <time>2024-07-24T16:30:11Z</time>
      </trkpt>
      <trkpt lat="48.12693" lon="5.55519">
        <ele>314.5</ele>
        <time>2024-07-24T16:30:17Z</time>
      </trkpt>
      <trkpt lat="48.12657" lon="5.55476">
        <ele>314.7</ele>
        <time>2024-07-24T16:30:24Z</time>
      </trkpt>
      <trkpt lat="48.12617" lon="5.5543">
        <ele>315.1</ele>
        <time>2024-07-24T16:30:31Z</time>
      </trkpt>
      <trkpt lat="48.12586" lon="5.55379">
        <ele>316</ele>
        <time>2024-07-24T16:30:38Z</time>
      </trkpt>
      <trkpt lat="48.12557" lon="5.55322">
        <ele>317.9</ele>
        <time>2024-07-24T16:30:46Z</time>
      </trkpt>
      <trkpt lat="48.12528" lon="5.55265">
        <ele>320.2</ele>
        <time>2024-07-24T16:30:55Z</time>
      </trkpt>
      <trkpt lat="48.12496" lon="5.55206">
        <ele>321.3</ele>
        <time>2024-07-24T16:31:05Z</time>
      </trkpt>
      <trkpt lat="48.12465" lon="5.55152">
        <ele>320.5</ele>
        <time>2024-07-24T16:31:13Z</time>
      </trkpt>
      <trkpt lat="48.12437" lon="5.55104">
        <ele>319.6</ele>
        <time>2024-07-24T16:31:19Z</time>
      </trkpt>
      <trkpt lat="48.12403" lon="5.55038">
        <ele>319</ele>
        <time>2024-07-24T16:31:27Z</time>
      </trkpt>
      <trkpt lat="48.12399" lon="5.55029">
        <ele>318.9</ele>
        <time>2024-07-24T16:31:28Z</time>
      </trkpt>
      <trkpt lat="48.12378" lon="5.54978">
        <ele>319</ele>
        <time>2024-07-24T16:31:34Z</time>
      </trkpt>
      <trkpt lat="48.12353" lon="5.54918">
        <ele>319.3</ele>
        <time>2024-07-24T16:31:41Z</time>
      </trkpt>
      <trkpt lat="48.12327" lon="5.5485">
        <ele>320</ele>
        <time>2024-07-24T16:31:49Z</time>
      </trkpt>
      <trkpt lat="48.12308" lon="5.5479">
        <ele>320.5</ele>
        <time>2024-07-24T16:31:56Z</time>
      </trkpt>
      <trkpt lat="48.1229" lon="5.54729">
        <ele>321.2</ele>
        <time>2024-07-24T16:32:03Z</time>
      </trkpt>
      <trkpt lat="48.12276" lon="5.5466">
        <ele>322.2</ele>
        <time>2024-07-24T16:32:11Z</time>
      </trkpt>
      <trkpt lat="48.12263" lon="5.54601">
        <ele>322.9</ele>
        <time>2024-07-24T16:32:18Z</time>
      </trkpt>
      <trkpt lat="48.12251" lon="5.54545">
        <ele>323.5</ele>
        <time>2024-07-24T16:32:25Z</time>
      </trkpt>
      <trkpt lat="48.12235" lon="5.54503">
        <ele>323.8</ele>
        <time>2024-07-24T16:32:31Z</time>
      </trkpt>
      <trkpt lat="48.12213" lon="5.54458">
        <ele>323.7</ele>
        <time>2024-07-24T16:32:38Z</time>
      </trkpt>
      <trkpt lat="48.12179" lon="5.54394">
        <ele>324.8</ele>
        <time>2024-07-24T16:32:48Z</time>
      </trkpt>
      <trkpt lat="48.12168" lon="5.54376">
        <ele>325.4</ele>
        <time>2024-07-24T16:32:51Z</time>
      </trkpt>
      <trkpt lat="48.12156" lon="5.54366">
        <ele>326</ele>
        <time>2024-07-24T16:32:54Z</time>
      </trkpt>
      <trkpt lat="48.1213" lon="5.54344">
        <ele>327.7</ele>
        <time>2024-07-24T16:33:01Z</time>
      </trkpt>
      <trkpt lat="48.12099" lon="5.54329">
        <ele>329.6</ele>
        <time>2024-07-24T16:33:09Z</time>
      </trkpt>
      <trkpt lat="48.1207" lon="5.54322">
        <ele>331.5</ele>
        <time>2024-07-24T16:33:17Z</time>
      </trkpt>
      <trkpt lat="48.1205" lon="5.54318">
        <ele>333.1</ele>
        <time>2024-07-24T16:33:23Z</time>
      </trkpt>
      <trkpt lat="48.12027" lon="5.54317">
        <ele>334.9</ele>
        <time>2024-07-24T16:33:30Z</time>
      </trkpt>
      <trkpt lat="48.12006" lon="5.54319">
        <ele>336.6</ele>
        <time>2024-07-24T16:33:37Z</time>
      </trkpt>
      <trkpt lat="48.11983" lon="5.54321">
        <ele>338.3</ele>
        <time>2024-07-24T16:33:45Z</time>
      </trkpt>
      <trkpt lat="48.11968" lon="5.54326">
        <ele>339.2</ele>
        <time>2024-07-24T16:33:51Z</time>
      </trkpt>
      <trkpt lat="48.11956" lon="5.5433">
        <ele>339.9</ele>
        <time>2024-07-24T16:33:56Z</time>
      </trkpt>
      <trkpt lat="48.11933" lon="5.54334">
        <ele>341.1</ele>
        <time>2024-07-24T16:34:05Z</time>
      </trkpt>
      <trkpt lat="48.11918" lon="5.54332">
        <ele>341.8</ele>
        <time>2024-07-24T16:34:11Z</time>
      </trkpt>
      <trkpt lat="48.11899" lon="5.54326">
        <ele>342.5</ele>
        <time>2024-07-24T16:34:18Z</time>
      </trkpt>
      <trkpt lat="48.11883" lon="5.54303">
        <ele>343</ele>
        <time>2024-07-24T16:34:25Z</time>
      </trkpt>
      <trkpt lat="48.11871" lon="5.54279">
        <ele>343.3</ele>
        <time>2024-07-24T16:34:31Z</time>
      </trkpt>
      <trkpt lat="48.11859" lon="5.54235">
        <ele>343.6</ele>
        <time>2024-07-24T16:34:39Z</time>
      </trkpt>
      <trkpt lat="48.11843" lon="5.54179">
        <ele>343.6</ele>
        <time>2024-07-24T16:34:48Z</time>
      </trkpt>
      <trkpt lat="48.11832" lon="5.54137">
        <ele>343</ele>
        <time>2024-07-24T16:34:54Z</time>
      </trkpt>
      <trkpt lat="48.11817" lon="5.54085">
        <ele>342.2</ele>
        <time>2024-07-24T16:35:00Z</time>
      </trkpt>
      <trkpt lat="48.11797" lon="5.54013">
        <ele>339.9</ele>
        <time>2024-07-24T16:35:07Z</time>
      </trkpt>
      <trkpt lat="48.1178" lon="5.53932">
        <ele>338.2</ele>
        <time>2024-07-24T16:35:14Z</time>
      </trkpt>
      <trkpt lat="48.11778" lon="5.5392">
        <ele>338</ele>
        <time>2024-07-24T16:35:15Z</time>
      </trkpt>
      <trkpt lat="48.11763" lon="5.53841">
        <ele>337</ele>
        <time>2024-07-24T16:35:22Z</time>
      </trkpt>
      <trkpt lat="48.11735" lon="5.53769">
        <ele>335.9</ele>
        <time>2024-07-24T16:35:29Z</time>
      </trkpt>
      <trkpt lat="48.11695" lon="5.53702">
        <ele>335.7</ele>
        <time>2024-07-24T16:35:36Z</time>
      </trkpt>
      <trkpt lat="48.11689" lon="5.53694">
        <ele>335.8</ele>
        <time>2024-07-24T16:35:37Z</time>
      </trkpt>
      <trkpt lat="48.11677" lon="5.53678">
        <ele>336.6</ele>
        <time>2024-07-24T16:35:39Z</time>
      </trkpt>
      <trkpt lat="48.11661" lon="5.53655">
        <ele>337</ele>
        <time>2024-07-24T16:35:42Z</time>
      </trkpt>
      <trkpt lat="48.11636" lon="5.53613">
        <ele>336.7</ele>
        <time>2024-07-24T16:35:47Z</time>
      </trkpt>
      <trkpt lat="48.11603" lon="5.53544">
        <ele>335.6</ele>
        <time>2024-07-24T16:35:54Z</time>
      </trkpt>
      <trkpt lat="48.1157" lon="5.53475">
        <ele>334</ele>
        <time>2024-07-24T16:36:01Z</time>
      </trkpt>
      <trkpt lat="48.11551" lon="5.53436">
        <ele>333.2</ele>
        <time>2024-07-24T16:36:05Z</time>
      </trkpt>
      <trkpt lat="48.11521" lon="5.53364">
        <ele>331.6</ele>
        <time>2024-07-24T16:36:12Z</time>
      </trkpt>
      <trkpt lat="48.1151" lon="5.53331">
        <ele>331</ele>
        <time>2024-07-24T16:36:15Z</time>
      </trkpt>
      <trkpt lat="48.11489" lon="5.53265">
        <ele>330.3</ele>
        <time>2024-07-24T16:36:21Z</time>
      </trkpt>
      <trkpt lat="48.11474" lon="5.53196">
        <ele>330.1</ele>
        <time>2024-07-24T16:36:27Z</time>
      </trkpt>
      <trkpt lat="48.1147" lon="5.53117">
        <ele>329.9</ele>
        <time>2024-07-24T16:36:34Z</time>
      </trkpt>
      <trkpt lat="48.11466" lon="5.53029">
        <ele>329.2</ele>
        <time>2024-07-24T16:36:42Z</time>
      </trkpt>
      <trkpt lat="48.11462" lon="5.52964">
        <ele>328.5</ele>
        <time>2024-07-24T16:36:48Z</time>
      </trkpt>
      <trkpt lat="48.11447" lon="5.52918">
        <ele>328.1</ele>
        <time>2024-07-24T16:36:53Z</time>
      </trkpt>
      <trkpt lat="48.1143" lon="5.5287">
        <ele>328.3</ele>
        <time>2024-07-24T16:36:58Z</time>
      </trkpt>
      <trkpt lat="48.11417" lon="5.52831">
        <ele>328.7</ele>
        <time>2024-07-24T16:37:02Z</time>
      </trkpt>
      <trkpt lat="48.11411" lon="5.52811">
        <ele>329</ele>
        <time>2024-07-24T16:37:04Z</time>
      </trkpt>
      <trkpt lat="48.11396" lon="5.52742">
        <ele>328.9</ele>
        <time>2024-07-24T16:37:11Z</time>
      </trkpt>
      <trkpt lat="48.11377" lon="5.52677">
        <ele>329.2</ele>
        <time>2024-07-24T16:37:18Z</time>
      </trkpt>
      <trkpt lat="48.11361" lon="5.52639">
        <ele>329.9</ele>
        <time>2024-07-24T16:37:23Z</time>
      </trkpt>
      <trkpt lat="48.11348" lon="5.52608">
        <ele>330.9</ele>
        <time>2024-07-24T16:37:27Z</time>
      </trkpt>
      <trkpt lat="48.11342" lon="5.52595">
        <ele>331.6</ele>
        <time>2024-07-24T16:37:29Z</time>
      </trkpt>
      <trkpt lat="48.11338" lon="5.5259">
        <ele>332.1</ele>
        <time>2024-07-24T16:37:30Z</time>
      </trkpt>
      <trkpt lat="48.11327" lon="5.52572">
        <ele>332.8</ele>
        <time>2024-07-24T16:37:33Z</time>
      </trkpt>
      <trkpt lat="48.11323" lon="5.52565">
        <ele>333</ele>
        <time>2024-07-24T16:37:34Z</time>
      </trkpt>
      <trkpt lat="48.11297" lon="5.52522">
        <ele>334.2</ele>
        <time>2024-07-24T16:37:41Z</time>
      </trkpt>
      <trkpt lat="48.11265" lon="5.52471">
        <ele>335.4</ele>
        <time>2024-07-24T16:37:49Z</time>
      </trkpt>
      <trkpt lat="48.11258" lon="5.52457">
        <ele>335.4</ele>
        <time>2024-07-24T16:37:51Z</time>
      </trkpt>
      <trkpt lat="48.11245" lon="5.52426">
        <ele>335.4</ele>
        <time>2024-07-24T16:37:55Z</time>
      </trkpt>
      <trkpt lat="48.11221" lon="5.5237">
        <ele>335.9</ele>
        <time>2024-07-24T16:38:03Z</time>
      </trkpt>
      <trkpt lat="48.11201" lon="5.52323">
        <ele>336.5</ele>
        <time>2024-07-24T16:38:10Z</time>
      </trkpt>
      <trkpt lat="48.1119" lon="5.52308">
        <ele>336.6</ele>
        <time>2024-07-24T16:38:13Z</time>
      </trkpt>
      <trkpt lat="48.1118" lon="5.52293">
        <ele>336.7</ele>
        <time>2024-07-24T16:38:16Z</time>
      </trkpt>
      <trkpt lat="48.11162" lon="5.52277">
        <ele>336.7</ele>
        <time>2024-07-24T16:38:21Z</time>
      </trkpt>
      <trkpt lat="48.11127" lon="5.52267">
        <ele>336.5</ele>
        <time>2024-07-24T16:38:27Z</time>
      </trkpt>
      <trkpt lat="48.11116" lon="5.52263">
        <ele>336.5</ele>
        <time>2024-07-24T16:38:29Z</time>
      </trkpt>
      <trkpt lat="48.11094" lon="5.52255">
        <ele>336.3</ele>
        <time>2024-07-24T16:38:33Z</time>
      </trkpt>
      <trkpt lat="48.11058" lon="5.52224">
        <ele>336.5</ele>
        <time>2024-07-24T16:38:40Z</time>
      </trkpt>
      <trkpt lat="48.11032" lon="5.52195">
        <ele>337.1</ele>
        <time>2024-07-24T16:38:46Z</time>
      </trkpt>
      <trkpt lat="48.10998" lon="5.52158">
        <ele>338.2</ele>
        <time>2024-07-24T16:38:54Z</time>
      </trkpt>
      <trkpt lat="48.1097" lon="5.52128">
        <ele>339.3</ele>
        <time>2024-07-24T16:39:01Z</time>
      </trkpt>
      <trkpt lat="48.10949" lon="5.52106">
        <ele>340.3</ele>
        <time>2024-07-24T16:39:07Z</time>
      </trkpt>
      <trkpt lat="48.10945" lon="5.52104">
        <ele>340.5</ele>
        <time>2024-07-24T16:39:08Z</time>
      </trkpt>
      <trkpt lat="48.10933" lon="5.52099">
        <ele>341.8</ele>
        <time>2024-07-24T16:39:11Z</time>
      </trkpt>
      <trkpt lat="48.10925" lon="5.52096">
        <ele>343.9</ele>
        <time>2024-07-24T16:39:13Z</time>
      </trkpt>
      <trkpt lat="48.10902" lon="5.52088">
        <ele>345.1</ele>
        <time>2024-07-24T16:39:19Z</time>
      </trkpt>
      <trkpt lat="48.10887" lon="5.52082">
        <ele>345.1</ele>
        <time>2024-07-24T16:39:25Z</time>
      </trkpt>
      <trkpt lat="48.10874" lon="5.52075">
        <ele>345.2</ele>
        <time>2024-07-24T16:39:31Z</time>
      </trkpt>
      <trkpt lat="48.10862" lon="5.52067">
        <ele>345.3</ele>
        <time>2024-07-24T16:39:37Z</time>
      </trkpt>
      <trkpt lat="48.10861" lon="5.52066">
        <ele>345.3</ele>
        <time>2024-07-24T16:39:38Z</time>
      </trkpt>
      <trkpt lat="48.10864" lon="5.52071">
        <ele>345.3</ele>
        <time>2024-07-24T16:39:40Z</time>
      </trkpt>
      <trkpt lat="48.10865" lon="5.52069">
        <ele>345.3</ele>
        <time>2024-07-24T16:39:42Z</time>
      </trkpt>
      <trkpt lat="48.10874" lon="5.52075">
        <ele>345.4</ele>
        <time>2024-07-24T16:39:45Z</time>
      </trkpt>
      <trkpt lat="48.10881" lon="5.5208">
        <ele>345.3</ele>
        <time>2024-07-24T16:39:47Z</time>
      </trkpt>
      <trkpt lat="48.10907" lon="5.5209">
        <ele>345</ele>
        <time>2024-07-24T16:39:53Z</time>
      </trkpt>
      <trkpt lat="48.10911" lon="5.52091">
        <ele>345</ele>
        <time>2024-07-24T16:39:54Z</time>
      </trkpt>
      <trkpt lat="48.10936" lon="5.52099">
        <ele>341.3</ele>
        <time>2024-07-24T16:40:00Z</time>
      </trkpt>
      <trkpt lat="48.10949" lon="5.52105">
        <ele>340.3</ele>
        <time>2024-07-24T16:40:04Z</time>
      </trkpt>
      <trkpt lat="48.10951" lon="5.52101">
        <ele>340.3</ele>
        <time>2024-07-24T16:40:05Z</time>
      </trkpt>
      <trkpt lat="48.10953" lon="5.52097">
        <ele>340.3</ele>
        <time>2024-07-24T16:40:06Z</time>
      </trkpt>
      <trkpt lat="48.10955" lon="5.5209">
        <ele>340.2</ele>
        <time>2024-07-24T16:40:08Z</time>
      </trkpt>
      <trkpt lat="48.10941" lon="5.52092">
        <ele>340.9</ele>
        <time>2024-07-24T16:40:13Z</time>
      </trkpt>
      <trkpt lat="48.10911" lon="5.52091">
        <ele>345</ele>
        <time>2024-07-24T16:40:19Z</time>
      </trkpt>
      <trkpt lat="48.10881" lon="5.5208">
        <ele>345.3</ele>
        <time>2024-07-24T16:40:25Z</time>
      </trkpt>
      <trkpt lat="48.10845" lon="5.52054">
        <ele>345.6</ele>
        <time>2024-07-24T16:40:33Z</time>
      </trkpt>
      <trkpt lat="48.10815" lon="5.52033">
        <ele>346.6</ele>
        <time>2024-07-24T16:40:40Z</time>
      </trkpt>
      <trkpt lat="48.10794" lon="5.52018">
        <ele>347.6</ele>
        <time>2024-07-24T16:40:45Z</time>
      </trkpt>
      <trkpt lat="48.10783" lon="5.52011">
        <ele>348.2</ele>
        <time>2024-07-24T16:40:48Z</time>
      </trkpt>
      <trkpt lat="48.10758" lon="5.51998">
        <ele>349.4</ele>
        <time>2024-07-24T16:40:55Z</time>
      </trkpt>
      <trkpt lat="48.10728" lon="5.51983">
        <ele>350.3</ele>
        <time>2024-07-24T16:41:03Z</time>
      </trkpt>
      <trkpt lat="48.10701" lon="5.51969">
        <ele>350.6</ele>
        <time>2024-07-24T16:41:10Z</time>
      </trkpt>
      <trkpt lat="48.10693" lon="5.51965">
        <ele>350.6</ele>
        <time>2024-07-24T16:41:12Z</time>
      </trkpt>
      <trkpt lat="48.10685" lon="5.51961">
        <ele>350.5</ele>
        <time>2024-07-24T16:41:14Z</time>
      </trkpt>
      <trkpt lat="48.10677" lon="5.51957">
        <ele>350.4</ele>
        <time>2024-07-24T16:41:16Z</time>
      </trkpt>
      <trkpt lat="48.10645" lon="5.51937">
        <ele>350.7</ele>
        <time>2024-07-24T16:41:24Z</time>
      </trkpt>
      <trkpt lat="48.10615" lon="5.51913">
        <ele>351.7</ele>
        <time>2024-07-24T16:41:32Z</time>
      </trkpt>
      <trkpt lat="48.10607" lon="5.5189">
        <ele>353.1</ele>
        <time>2024-07-24T16:41:36Z</time>
      </trkpt>
      <trkpt lat="48.10619" lon="5.51869">
        <ele>354</ele>
        <time>2024-07-24T16:41:41Z</time>
      </trkpt>
      <trkpt lat="48.10633" lon="5.51852">
        <ele>354.8</ele>
        <time>2024-07-24T16:41:46Z</time>
      </trkpt>
      <trkpt lat="48.10647" lon="5.51835">
        <ele>355.7</ele>
        <time>2024-07-24T16:41:52Z</time>
      </trkpt>
      <trkpt lat="48.10658" lon="5.51805">
        <ele>356.8</ele>
        <time>2024-07-24T16:42:00Z</time>
      </trkpt>
      <trkpt lat="48.10663" lon="5.51777">
        <ele>357.8</ele>
        <time>2024-07-24T16:42:07Z</time>
      </trkpt>
      <trkpt lat="48.10663" lon="5.51749">
        <ele>358.7</ele>
        <time>2024-07-24T16:42:15Z</time>
      </trkpt>
      <trkpt lat="48.10663" lon="5.51727">
        <ele>359.4</ele>
        <time>2024-07-24T16:42:22Z</time>
      </trkpt>
      <trkpt lat="48.10658" lon="5.51701">
        <ele>360.3</ele>
        <time>2024-07-24T16:42:30Z</time>
      </trkpt>
      <trkpt lat="48.10647" lon="5.51669">
        <ele>361.5</ele>
        <time>2024-07-24T16:42:39Z</time>
      </trkpt>
      <trkpt lat="48.10634" lon="5.51634">
        <ele>362.8</ele>
        <time>2024-07-24T16:42:47Z</time>
      </trkpt>
      <trkpt lat="48.10626" lon="5.51599">
        <ele>364</ele>
        <time>2024-07-24T16:42:56Z</time>
      </trkpt>
      <trkpt lat="48.10623" lon="5.51577">
        <ele>364.7</ele>
        <time>2024-07-24T16:43:01Z</time>
      </trkpt>
      <trkpt lat="48.10633" lon="5.51568">
        <ele>365</ele>
        <time>2024-07-24T16:43:05Z</time>
      </trkpt>
      <trkpt lat="48.10649" lon="5.51572">
        <ele>365</ele>
        <time>2024-07-24T16:43:11Z</time>
      </trkpt>
      <trkpt lat="48.10677" lon="5.51579">
        <ele>364.9</ele>
        <time>2024-07-24T16:43:19Z</time>
      </trkpt>
      <trkpt lat="48.10712" lon="5.51588">
        <ele>364.7</ele>
        <time>2024-07-24T16:43:27Z</time>
      </trkpt>
      <trkpt lat="48.10722" lon="5.51593">
        <ele>364.7</ele>
        <time>2024-07-24T16:43:29Z</time>
      </trkpt>
      <trkpt lat="48.10739" lon="5.51606">
        <ele>364.6</ele>
        <time>2024-07-24T16:43:33Z</time>
      </trkpt>
      <trkpt lat="48.10773" lon="5.5164">
        <ele>364.5</ele>
        <time>2024-07-24T16:43:41Z</time>
      </trkpt>
      <trkpt lat="48.10803" lon="5.5168">
        <ele>364.3</ele>
        <time>2024-07-24T16:43:49Z</time>
      </trkpt>
      <trkpt lat="48.10826" lon="5.51711">
        <ele>364.2</ele>
        <time>2024-07-24T16:43:56Z</time>
      </trkpt>
      <trkpt lat="48.10853" lon="5.51753">
        <ele>364</ele>
        <time>2024-07-24T16:44:04Z</time>
      </trkpt>
      <trkpt lat="48.10871" lon="5.51782">
        <ele>363.9</ele>
        <time>2024-07-24T16:44:10Z</time>
      </trkpt>
      <trkpt lat="48.10887" lon="5.51808">
        <ele>364.1</ele>
        <time>2024-07-24T16:44:16Z</time>
      </trkpt>
      <trkpt lat="48.10892" lon="5.51826">
        <ele>364.2</ele>
        <time>2024-07-24T16:44:22Z</time>
      </trkpt>
      <trkpt lat="48.10892" lon="5.51826">
        <ele>364.2</ele>
        <time>2024-07-24T16:44:23Z</time>
      </trkpt>
    </trkseg>
  </trk>
</gpx>